[[{"header":{"parameterUnit":"m.s-1","parameterCategory":1,"la1":30.6,"la2":29.2853,"lo1":-89.7004,"lo2":-87.6739,"dy":0.0162,"dx":0.0183,"nx":112,"ny":82,"refTime":"2023-07-13T12:00:00:Z","depth":0,"parameterNumber":2,"parameterNumberName":"U-component_of_WINDS"},"data":[0.0,0.0,0.0,0.0,0.0,0.0,0.0,0.0,0.0,0.0,0.0,0.0,0.0,0.0,0.0,0.0,0.0,0.0,0.0,0.0,0.0,0.0,0.0,0.0,0.0,0.0,0.0,0.0,0.0,0.0,0.0,0.0,0.0,0.0,0.0,0.0,0.0,0.0,0.0,0.0,0.0,0.0,0.0,0.0,0.0,0.0,0.0,0.0,0.0,0.0,0.0,0.0,0.0,0.0,0.0,0.0,0.0,0.0,0.0,0.0,0.0,0.0,0.0,0.0,0.0,0.0,0.0,0.0,0.0,0.0,0.0,0.0,0.0,0.0,0.0,0.0,0.0,0.0,0.0,0.0,0.0,0.0,0.0,0.0,0.0,0.0,0.0,0.0,0.0,0.0,0.0,-2.9892,-3.4068,-3.6644,-3.7085,-3.7538,-3.5219,-2.9089,0.0,0.0,0.0,0.0,0.0,0.0,0.0,0.0,0.0,0.0,0.0,0.0,0.0,0.0,0.0,0.0,0.0,0.0,0.0,0.0,0.0,0.0,0.0,0.0,0.0,0.0,0.0,0.0,0.0,0.0,0.0,0.0,0.0,0.0,0.0,0.0,0.0,0.0,0.0,0.0,0.0,0.0,0.0,0.0,0.0,0.0,0.0,0.0,0.0,0.0,0.0,0.0,0.0,0.0,0.0,0.0,0.0,0.0,0.0,0.0,0.0,0.0,0.0,0.0,0.0,0.0,0.0,0.0,0.0,0.0,0.0,0.0,0.0,0.0,0.0,0.0,0.0,0.0,0.0,0.0,0.0,0.0,0.0,0.0,0.0,0.0,0.0,0.0,0.0,0.0,0.0,0.0,0.0,0.0,0.0,0.0,0.0,0.0,0.0,0.0,0.0,0.0,0.0,0.0,-2.805,-3.1685,-3.399,-3.5352,-3.5427,-3.5202,-3.338,-2.9389,0.0,0.0,0.0,0.0,0.0,0.0,0.0,0.0,0.0,0.0,0.0,0.0,0.0,0.0,0.0,0.0,0.0,0.0,0.0,0.0,0.0,0.0,0.0,0.0,0.0,0.0,0.0,0.0,0.0,0.0,0.0,0.0,0.0,0.0,0.0,0.0,0.0,0.0,0.0,0.0,0.0,0.0,0.0,0.0,0.0,0.0,0.0,0.0,0.0,0.0,0.0,0.0,0.0,0.0,0.0,0.0,0.0,0.0,0.0,0.0,0.0,0.0,0.0,0.0,0.0,0.0,0.0,0.0,0.0,0.0,0.0,0.0,0.0,0.0,0.0,0.0,0.0,0.0,0.0,0.0,0.0,0.0,0.0,0.0,0.0,0.0,0.0,0.0,0.0,0.0,0.0,0.0,0.0,0.0,0.0,0.0,0.0,0.0,0.0,0.0,0.0,0.0,0.0,-2.5629,-2.8835,-3.1202,-3.2859,-3.3771,-3.3711,-3.3516,-3.1788,-2.7971,-2.766,0.0,0.0,0.0,0.0,0.0,0.0,0.0,0.0,0.0,0.0,0.0,0.0,0.0,0.0,0.0,0.0,0.0,0.0,0.0,0.0,0.0,0.0,0.0,0.0,0.0,0.0,0.0,0.0,0.0,0.0,0.0,0.0,0.0,0.0,0.0,0.0,0.0,0.0,0.0,0.0,0.0,0.0,0.0,0.0,0.0,0.0,0.0,0.0,0.0,0.0,0.0,0.0,0.0,0.0,0.0,0.0,0.0,0.0,0.0,0.0,0.0,0.0,0.0,0.0,0.0,0.0,0.0,0.0,0.0,0.0,0.0,0.0,0.0,0.0,0.0,0.0,0.0,0.0,0.0,0.0,0.0,0.0,0.0,0.0,0.0,0.0,0.0,0.0,0.0,0.0,0.0,0.0,0.0,0.0,0.0,0.0,0.0,0.0,0.0,0.0,0.0,0.0,-2.586,-2.836,-2.9795,-3.1366,-3.2195,-3.2158,-3.2003,-3.0435,-2.6854,-2.5775,0.0,0.0,0.0,0.0,0.0,0.0,0.0,0.0,0.0,0.0,0.0,0.0,0.0,0.0,0.0,0.0,0.0,0.0,0.0,0.0,0.0,0.0,0.0,0.0,0.0,0.0,0.0,0.0,0.0,0.0,0.0,0.0,0.0,0.0,0.0,0.0,0.0,0.0,0.0,0.0,0.0,0.0,0.0,0.0,0.0,0.0,0.0,0.0,0.0,0.0,0.0,0.0,0.0,0.0,0.0,0.0,0.0,0.0,0.0,0.0,0.0,0.0,0.0,0.0,0.0,0.0,0.0,0.0,0.0,0.0,0.0,0.0,0.0,0.0,0.0,0.0,0.0,0.0,0.0,0.0,0.0,0.0,0.0,0.0,0.0,0.0,0.0,0.0,0.0,0.0,0.0,0.0,0.0,0.0,0.0,0.0,0.0,0.0,0.0,0.0,0.0,0.0,-2.4999,-2.6543,-2.7673,-2.9576,-3.0864,-3.1113,-3.0742,-2.9508,-2.7179,-2.5141,0.0,0.0,0.0,0.0,0.0,0.0,0.0,0.0,0.0,0.0,0.0,0.0,0.0,0.0,0.0,0.0,0.0,0.0,0.0,0.0,0.0,0.0,0.0,0.0,0.0,0.0,0.0,0.0,0.0,0.0,0.0,0.0,0.0,0.0,0.0,0.0,0.0,0.0,0.0,0.0,0.0,0.0,0.0,0.0,0.0,0.0,0.0,0.0,0.0,0.0,0.0,0.0,0.0,0.0,0.0,0.0,0.0,0.0,0.0,0.0,0.0,0.0,0.0,0.0,0.0,0.0,0.0,0.0,0.0,0.0,0.0,0.0,0.0,0.0,0.0,0.0,0.0,0.0,0.0,0.0,0.0,0.0,0.0,0.0,0.0,0.0,0.0,0.0,0.0,0.0,0.0,0.0,0.0,0.0,0.0,0.0,0.0,0.0,0.0,0.0,0.0,0.0,-2.4809,-2.6785,0.0,-2.8369,-2.9021,-2.9311,-2.9205,-2.7925,-2.5213,0.0,0.0,0.0,0.0,0.0,0.0,0.0,0.0,0.0,0.0,0.0,0.0,0.0,0.0,0.0,0.0,0.0,0.0,0.0,0.0,0.0,0.0,0.0,0.0,0.0,0.0,0.0,0.0,0.0,0.0,0.0,0.0,0.0,0.0,0.0,0.0,0.0,0.0,0.0,0.0,0.0,0.0,0.0,0.0,0.0,0.0,0.0,0.0,0.0,0.0,0.0,0.0,0.0,0.0,0.0,0.0,0.0,0.0,0.0,0.0,0.0,0.0,0.0,0.0,0.0,0.0,0.0,0.0,0.0,0.0,0.0,0.0,0.0,0.0,0.0,0.0,0.0,0.0,0.0,0.0,0.0,0.0,0.0,0.0,0.0,0.0,0.0,0.0,0.0,0.0,0.0,0.0,0.0,0.0,0.0,0.0,0.0,0.0,0.0,0.0,0.0,0.0,-2.1145,-2.392,-2.6177,0.0,-2.7008,-2.7369,-2.8218,-2.8021,-2.6693,-2.3783,0.0,0.0,0.0,0.0,0.0,0.0,0.0,0.0,0.0,0.0,0.0,0.0,0.0,0.0,0.0,0.0,0.0,0.0,0.0,0.0,0.0,0.0,0.0,0.0,0.0,0.0,0.0,0.0,0.0,0.0,0.0,0.0,0.0,0.0,0.0,0.0,0.0,0.0,0.0,0.0,0.0,0.0,0.0,0.0,0.0,0.0,0.0,0.0,0.0,0.0,0.0,0.0,0.0,0.0,0.0,0.0,0.0,0.0,0.0,0.0,0.0,0.0,0.0,0.0,0.0,0.0,0.0,0.0,0.0,0.0,0.0,0.0,0.0,0.0,0.0,0.0,0.0,0.0,0.0,0.0,0.0,0.0,0.0,0.0,0.0,0.0,0.0,0.0,0.0,0.0,0.0,0.0,0.0,0.0,0.0,0.0,0.0,0.0,0.0,0.0,0.0,0.0,-1.9672,-2.208,-2.4079,-2.5149,-2.5246,-2.6031,-2.7788,-2.7329,-2.5849,0.0,0.0,0.0,0.0,0.0,0.0,0.0,0.0,0.0,0.0,0.0,0.0,0.0,0.0,0.0,0.0,0.0,0.0,0.0,0.0,0.0,0.0,0.0,0.0,0.0,0.0,0.0,0.0,0.0,0.0,0.0,0.0,0.0,0.0,0.0,0.0,0.0,0.0,0.0,0.0,0.0,0.0,0.0,0.0,0.0,0.0,0.0,0.0,0.0,0.0,0.0,0.0,0.0,0.0,0.0,0.0,0.0,0.0,0.0,0.0,0.0,0.0,0.0,0.0,0.0,0.0,0.0,0.0,0.0,0.0,0.0,0.0,0.0,0.0,0.0,0.0,0.0,0.0,0.0,0.0,0.0,0.0,0.0,0.0,0.0,0.0,0.0,0.0,0.0,0.0,0.0,0.0,0.0,0.0,0.0,0.0,0.0,0.0,0.0,0.0,0.0,0.0,0.0,-1.9915,-2.217,-2.3781,-2.4072,-2.41,-2.4547,-2.5425,-2.5253,-2.4256,-2.2507,0.0,0.0,0.0,0.0,0.0,0.0,0.0,0.0,0.0,0.0,0.0,0.0,0.0,0.0,0.0,0.0,0.0,0.0,0.0,0.0,0.0,0.0,0.0,0.0,0.0,0.0,0.0,0.0,0.0,0.0,0.0,0.0,0.0,0.0,0.0,0.0,0.0,0.0,0.0,0.0,0.0,0.0,0.0,0.0,0.0,0.0,0.0,0.0,0.0,0.0,0.0,0.0,0.0,0.0,0.0,0.0,0.0,0.0,0.0,0.0,0.0,0.0,0.0,0.0,0.0,0.0,0.0,0.0,0.0,0.0,0.0,0.0,0.0,0.0,0.0,0.0,0.0,0.0,0.0,0.0,0.0,0.0,0.0,0.0,0.0,0.0,0.0,0.0,0.0,0.0,0.0,0.0,0.0,0.0,0.0,0.0,0.0,0.0,0.0,0.0,0.0,0.0,-1.9528,-2.1397,-2.273,-2.3196,-2.3282,-2.3664,-2.4649,-2.445,-2.3698,-2.2421,0.0,0.0,0.0,0.0,0.0,0.0,0.0,0.0,0.0,0.0,0.0,0.0,0.0,0.0,0.0,0.0,0.0,0.0,0.0,0.0,0.0,0.0,0.0,0.0,0.0,0.0,0.0,0.0,0.0,0.0,0.0,0.0,0.0,0.0,0.0,0.0,0.0,0.0,0.0,0.0,0.0,0.0,0.0,0.0,0.0,0.0,0.0,0.0,0.0,0.0,0.0,0.0,0.0,0.0,0.0,0.0,0.0,0.0,0.0,0.0,0.0,0.0,0.0,0.0,0.0,0.0,0.0,0.0,0.0,0.0,0.0,0.0,0.0,0.0,0.0,0.0,0.0,0.0,0.0,0.0,0.0,0.0,0.0,0.0,0.0,0.0,0.0,0.0,0.0,0.0,0.0,0.0,0.0,0.0,0.0,0.0,0.0,0.0,0.0,0.0,0.0,0.0,-1.8759,-2.003,-2.1362,-2.2291,-2.2386,-2.3158,-2.4767,-2.439,-2.3578,-2.2752,0.0,0.0,0.0,0.0,0.0,0.0,0.0,0.0,0.0,0.0,0.0,0.0,0.0,0.0,0.0,0.0,0.0,0.0,0.0,0.0,0.0,0.0,0.0,0.0,0.0,0.0,0.0,0.0,0.0,0.0,0.0,0.0,0.0,0.0,0.0,0.0,0.0,0.0,0.0,0.0,0.0,0.0,0.0,0.0,0.0,0.0,0.0,0.0,0.0,0.0,0.0,0.0,0.0,0.0,0.0,0.0,0.0,0.0,0.0,0.0,-1.5771,0.0,0.0,0.0,0.0,0.0,0.0,0.0,0.0,0.0,0.0,0.0,0.0,0.0,0.0,0.0,0.0,0.0,0.0,0.0,0.0,0.0,0.0,0.0,0.0,0.0,0.0,0.0,0.0,0.0,0.0,0.0,0.0,0.0,0.0,0.0,0.0,0.0,0.0,0.0,0.0,0.0,-1.8379,-1.9836,-2.1028,-2.1226,-2.1226,-2.1582,-2.2304,-2.2209,-2.2212,-2.2277,0.0,0.0,0.0,0.0,0.0,0.0,0.0,0.0,0.0,0.0,0.0,0.0,0.0,0.0,0.0,0.0,0.0,0.0,0.0,0.0,0.0,0.0,0.0,0.0,0.0,0.0,0.0,0.0,0.0,0.0,0.0,0.0,0.0,0.0,0.0,0.0,0.0,0.0,0.0,0.0,0.0,0.0,0.0,0.0,0.0,0.0,0.0,0.0,0.0,0.0,0.0,0.0,0.0,0.0,0.0,0.0,0.0,0.0,0.0,0.0,0.0,-1.5461,0.0,0.0,0.0,0.0,0.0,0.0,0.0,0.0,0.0,0.0,0.0,0.0,0.0,0.0,0.0,0.0,0.0,0.0,0.0,0.0,0.0,0.0,0.0,0.0,0.0,0.0,0.0,0.0,0.0,0.0,0.0,0.0,0.0,0.0,0.0,0.0,0.0,0.0,0.0,0.0,-1.8558,-2.0176,-2.1425,-2.1425,-2.1274,-2.1234,-2.167,-2.1586,-2.1827,-2.2342,-2.1544,0.0,0.0,0.0,0.0,0.0,0.0,0.0,0.0,0.0,0.0,0.0,0.0,0.0,0.0,0.0,0.0,0.0,0.0,0.0,0.0,0.0,0.0,0.0,0.0,0.0,0.0,0.0,0.0,0.0,0.0,0.0,0.0,0.0,0.0,0.0,0.0,0.0,0.0,0.0,0.0,0.0,0.0,0.0,0.0,0.0,0.0,0.0,0.0,0.0,0.0,0.0,0.0,0.0,0.0,0.0,-1.4465,-1.406,-1.3796,-1.372,-1.5364,-1.5829,-1.5425,0.0,0.0,0.0,0.0,0.0,0.0,0.0,0.0,0.0,0.0,0.0,0.0,0.0,0.0,0.0,0.0,0.0,0.0,0.0,0.0,0.0,0.0,0.0,0.0,0.0,-2.0709,-2.0666,0.0,0.0,0.0,0.0,0.0,0.0,0.0,0.0,0.0,0.0,0.0,0.0,-1.8665,-2.0556,-2.1894,-2.1949,-2.16,-2.1442,-2.1648,-2.1553,-2.1849,-2.2566,-2.1998,-2.1674,0.0,0.0,0.0,0.0,0.0,0.0,0.0,0.0,0.0,0.0,0.0,0.0,0.0,0.0,0.0,0.0,0.0,0.0,0.0,0.0,0.0,0.0,0.0,0.0,0.0,0.0,0.0,0.0,0.0,0.0,0.0,0.0,-1.9105,-1.9748,0.0,0.0,0.0,0.0,0.0,0.0,0.0,0.0,0.0,0.0,0.0,0.0,0.0,0.0,-1.1106,-1.0186,-1.0683,-1.2723,-1.1854,-1.2656,-1.4954,-1.4539,-1.4633,-1.503,-1.4057,0.0,-1.5162,-1.4435,0.0,0.0,0.0,0.0,0.0,0.0,0.0,0.0,0.0,0.0,0.0,0.0,0.0,0.0,0.0,0.0,0.0,0.0,0.0,0.0,0.0,0.0,-2.133,-2.35,-2.1462,-1.9637,0.0,-2.0278,-1.882,-1.9757,0.0,0.0,0.0,0.0,0.0,0.0,0.0,0.0,-1.807,-1.9963,-2.1632,-2.1926,-2.1377,-2.1178,-2.1623,-2.1676,-2.172,-2.1996,-2.2373,-2.2017,-2.0971,-2.2432,0.0,0.0,0.0,0.0,0.0,0.0,0.0,0.0,0.0,0.0,0.0,0.0,0.0,0.0,0.0,0.0,0.0,0.0,0.0,0.0,0.0,0.0,0.0,0.0,0.0,0.0,0.0,0.0,0.0,-2.0243,-1.9536,-1.9613,-1.9182,-1.7981,0.0,0.0,0.0,0.0,0.0,0.0,0.0,0.0,0.0,-0.924,-0.9293,-0.9643,-1.0207,-1.0184,-1.119,-1.311,-1.3292,-1.3984,-1.4911,-1.4904,-1.4953,-1.5043,-1.4401,-1.4336,-1.478,-1.3908,-1.4407,-1.5503,0.0,0.0,0.0,0.0,0.0,0.0,-1.5651,0.0,0.0,0.0,0.0,0.0,0.0,0.0,0.0,0.0,0.0,0.0,0.0,0.0,0.0,-2.2026,-2.1474,-2.0857,-2.1695,-2.0799,-1.9882,0.0,-1.8734,-1.7564,-1.7233,0.0,0.0,0.0,0.0,0.0,-1.9084,-2.075,-2.2013,-2.1965,-2.1513,-2.1235,-2.124,-2.1342,-2.1445,-2.1787,-2.1884,-2.1926,-2.1835,-2.2213,-2.1796,0.0,0.0,0.0,0.0,0.0,0.0,0.0,0.0,0.0,0.0,0.0,0.0,0.0,0.0,0.0,0.0,0.0,0.0,0.0,0.0,0.0,0.0,0.0,0.0,0.0,0.0,0.0,0.0,-2.0117,-1.9226,-1.9252,-1.8912,-1.7932,0.0,0.0,0.0,0.0,0.0,0.0,-0.9737,-0.9553,-0.9192,-0.8448,-0.846,-0.901,-0.9919,-1.0609,-1.1784,-1.3342,-1.4348,-1.4826,-1.4885,-1.5177,-1.521,-1.4972,-1.4848,-1.4729,-1.4568,-1.3793,-1.4032,-1.4845,-1.4694,-1.4647,0.0,-1.5062,-1.5493,-1.5936,-1.5819,-1.7237,-1.9225,-1.9039,0.0,-1.9937,-2.0918,0.0,0.0,0.0,0.0,-2.0472,-2.0403,0.0,-2.098,-2.0911,-2.1496,-2.1976,-2.1736,-2.1235,-2.0846,0.0,-1.9581,-1.8488,-1.7995,0.0,0.0,0.0,0.0,-2.0363,-2.0053,-2.1457,-2.2347,-2.1997,-2.1655,-2.1306,-2.0948,-2.0982,-2.1143,-2.1505,-2.132,-2.1573,-2.2158,-2.1708,-2.1283,-2.0902,0.0,0.0,0.0,0.0,0.0,0.0,0.0,0.0,0.0,0.0,0.0,0.0,0.0,0.0,0.0,0.0,0.0,0.0,0.0,0.0,0.0,0.0,0.0,0.0,0.0,0.0,0.0,0.0,0.0,-1.7795,-1.7686,0.0,0.0,0.0,0.0,-1.1688,-1.0762,-0.9675,-0.8088,-0.8115,-0.8578,-0.9568,-0.9439,-1.0008,-1.1358,-1.1515,-1.2068,-1.2994,-1.3393,-1.4044,-1.4891,-1.5122,-1.523,-1.5208,-1.4751,-1.467,-1.4848,-1.4573,-1.4538,-1.4691,-1.4999,-1.5382,-1.5793,-1.5166,-1.5506,-1.6188,-1.523,-1.6803,-1.9155,-1.9155,-2.0008,-2.0853,-2.0377,-2.021,0.0,0.0,-2.0264,-2.1238,-2.0452,-2.1085,-2.1939,-2.1962,-2.2035,-2.2107,-2.1976,-2.1264,-2.1077,0.0,-2.1219,-2.0215,-2.0204,0.0,0.0,-1.8255,-1.9653,-2.0726,-2.0412,-2.1608,-2.2347,-2.1997,-2.1655,-2.1306,-2.0948,-2.0901,-2.0901,-2.0917,-2.107,-2.1156,-2.0883,-2.1363,-2.122,-2.0577,-2.1188,0.0,0.0,0.0,0.0,0.0,0.0,0.0,0.0,0.0,0.0,0.0,0.0,0.0,0.0,0.0,0.0,0.0,0.0,0.0,0.0,0.0,0.0,0.0,0.0,0.0,0.0,0.0,0.0,-1.8507,-1.7921,0.0,0.0,-1.5286,-1.4231,-1.2604,-1.0968,-0.982,-0.9449,-0.9168,-0.9264,-0.9663,-1.0257,-1.1317,-1.2831,-1.2648,-1.3093,-1.4184,-1.4305,-1.4498,-1.4892,-1.4861,-1.5099,-1.5467,-1.5295,-1.509,-1.4875,-1.4794,-1.4641,-1.4385,-1.4612,-1.5071,-1.5368,-1.5287,-1.5646,-1.6118,-1.6437,-1.7701,-1.9398,-2.0631,-2.1561,-2.2186,-2.1408,-2.1323,-2.1371,-2.1306,-2.1234,-2.1315,-2.1862,-2.2166,-2.2253,-2.2158,-2.2411,-2.2581,-2.234,-2.2245,-2.2308,-2.2776,-2.1581,-2.0403,-2.0087,-2.0539,-2.0522,-1.9196,-2.0484,-2.1643,-2.1695,-2.2378,-2.2688,-2.2339,-2.2188,-2.1886,-2.1306,-2.1052,-2.0821,-2.0599,-2.044,-2.063,-2.1126,-2.1075,-2.1105,-2.1229,-2.187,-2.1851,0.0,0.0,0.0,0.0,0.0,0.0,0.0,0.0,0.0,0.0,0.0,0.0,0.0,0.0,0.0,0.0,0.0,0.0,0.0,0.0,0.0,0.0,0.0,0.0,0.0,0.0,-1.8764,-1.8759,-1.7994,-1.7243,-1.6504,-1.5126,-1.4046,-1.3439,-1.1711,-1.066,-1.0531,-1.0387,-1.0438,-1.0789,-1.1526,-1.2516,-1.3848,-1.3907,-1.4098,-1.4667,-1.494,-1.5014,-1.5014,-1.5014,-1.5131,-1.5237,-1.5359,-1.509,-1.4537,-1.4649,-1.4471,-1.4191,-1.4401,-1.4606,-1.4928,-1.5148,-1.547,-1.5998,-1.7569,-1.861,-1.9605,-2.1745,-2.2746,-2.2946,-2.2232,-2.2215,-2.2364,-2.2156,-2.1758,-2.1595,-2.2576,-2.2656,-2.2545,-2.2576,-2.2728,-2.295,-2.272,-2.2348,-2.2198,-2.2919,-2.215,-2.1113,-2.0377,-2.0805,-2.0837,-1.9566,-2.0345,-2.1211,-2.156,-2.2124,-2.2355,-2.1997,-2.2275,-2.2204,-2.1505,-2.0805,-2.0448,-2.0567,-1.9797,-1.9837,-2.0995,-2.0437,-2.0272,-2.0663,-2.0938,-2.0025,-1.7935,0.0,0.0,0.0,0.0,0.0,0.0,0.0,0.0,0.0,0.0,0.0,0.0,0.0,0.0,0.0,0.0,0.0,0.0,0.0,0.0,0.0,0.0,0.0,-1.904,-1.9958,-1.9983,-1.8232,-1.768,-1.7148,-1.628,-1.4853,-1.3908,-1.3948,-1.3049,-1.2106,-1.1456,-1.1414,-1.1908,-1.2989,-1.3206,-1.3688,-1.4395,-1.5221,-1.5232,-1.4535,-1.5226,-1.5569,-1.5575,-1.558,-1.521,-1.4551,-1.4778,-1.4521,-1.3877,-1.4099,-1.4202,-1.4191,-1.4196,-1.4401,-1.4606,-1.4606,-1.5041,-1.5897,-1.8387,-1.922,-1.9738,-2.2526,-2.3347,-2.3247,-2.2662,-2.2818,-2.2806,-2.1788,-2.1834,-2.223,-2.2293,-2.2648,-2.3014,-2.2964,-2.2933,-2.3014,-2.3022,-2.1564,-2.0775,-2.2624,-2.3014,-2.2577,-2.1211,-2.098,-2.0647,-1.9622,-1.9479,0.0,-1.9924,-2.0861,-2.137,-2.102,-2.187,-2.2188,-2.152,-2.0178,-1.9805,-2.0821,-1.928,-1.8939,-2.0289,-1.9372,-1.8885,-1.8885,-1.8383,-1.5721,-1.0729,0.0,0.0,0.0,0.0,0.0,0.0,0.0,0.0,0.0,0.0,0.0,0.0,0.0,0.0,0.0,0.0,0.0,0.0,0.0,0.0,0.0,0.0,-2.27,-2.147,-2.0397,-1.9495,-1.879,-1.8163,-1.7182,-1.579,-1.5299,-1.5172,-1.5323,-1.3898,-1.3056,-1.3056,-1.2228,-1.1736,-1.182,-1.3086,-1.3639,-1.347,-1.4707,-1.4876,-1.3958,-1.4312,-1.4463,-1.44,-1.4735,-1.4876,-1.5034,-1.5374,-1.5214,-1.4669,-1.4987,-1.499,-1.4724,-1.4299,-1.4509,-1.4928,-1.4928,-1.5779,-1.7134,-1.8238,-1.9433,-2.068,-2.2333,-2.2846,-2.2849,-2.2787,-2.2628,-2.2498,-2.2277,-2.2016,-2.1791,-2.208,-2.2363,-2.2521,-2.2554,-2.2578,-2.2675,-2.2949,-2.2609,-2.2419,-2.2934,-2.3014,-2.2807,-2.2172,-2.2267,-2.2259,-2.1711,0.0,0.0,-2.214,-2.2402,-2.2545,-2.245,-2.2013,-2.1759,-2.1814,-2.0313,-1.9598,0.0,-1.967,-1.9503,-1.9805,-1.96,-1.9662,-2.002,-1.8498,-1.6766,0.0,0.0,0.0,0.0,0.0,0.0,0.0,0.0,0.0,0.0,0.0,0.0,0.0,0.0,0.0,0.0,0.0,0.0,0.0,0.0,0.0,0.0,-2.3398,-2.3919,-2.3443,-2.2131,-2.1004,-2.0329,-1.9117,-1.7966,-1.6905,-1.605,-1.5608,-1.5867,-1.4987,-1.4428,-1.4471,-1.3592,-1.2886,-1.2462,-1.3449,-1.365,-1.3087,-1.4335,-1.4566,-1.3871,-1.4286,-1.4514,-1.4437,-1.4651,-1.4728,0.0,-1.5015,-1.4899,-1.4359,-1.4783,-1.4847,0.0,0.0,0.0,0.0,0.0,-1.6205,-1.764,-1.859,-1.988,-2.1318,-2.2825,-2.33,-2.321,-2.2967,-2.2561,-2.2009,-2.1489,-2.1042,-2.0718,-2.1644,-2.1781,-2.1775,-2.2212,-2.2312,-2.2402,-2.2925,-2.2981,-2.2974,-2.3031,0.0,0.0,-2.2641,-2.2513,-2.214,-2.1489,-2.1568,-2.1695,0.0,-2.2084,-2.2355,-2.2355,-2.2204,-2.2069,-2.1965,-2.0496,0.0,0.0,0.0,-1.9196,-1.934,-1.9446,0.0,0.0,0.0,-1.709,0.0,0.0,0.0,0.0,-1.6062,-1.6908,0.0,0.0,0.0,0.0,0.0,0.0,0.0,0.0,0.0,0.0,0.0,0.0,0.0,0.0,0.0,0.0,-2.3632,-2.4312,-2.4964,-2.4359,-2.3456,-2.2206,-2.0599,-1.925,-1.8483,-1.6839,-1.5743,-1.5873,-1.5891,-1.5791,-1.5589,0.0,0.0,0.0,0.0,-1.3655,-1.2906,-1.3982,-1.4317,-1.4093,-1.4712,-1.5031,-1.4853,-1.5068,-1.4713,-1.3914,-1.4339,-1.4168,-1.3556,-1.4099,-1.4401,-1.4713,-1.4928,-1.5041,-1.5148,-1.5441,-1.6387,0.0,0.0,0.0,0.0,-2.3674,-2.4226,-2.3988,-2.3394,-2.2705,-2.182,-2.0514,-1.9844,-1.9878,-2.1393,-2.1231,-2.0925,-2.1887,-2.2161,-2.2227,-2.2885,-2.2963,-2.295,-2.3039,-2.2005,-2.1552,-2.2799,-2.2243,-2.1306,-2.0361,-2.0218,0.0,-2.0218,-2.1044,-2.1624,-2.1624,0.0,0.0,-2.2061,-2.0694,-2.0035,-2.0424,-1.9169,-1.8619,-1.9118,-1.9036,-1.8576,-1.7797,-1.7142,-1.7233,-1.8078,-1.9026,-2.0282,-2.1845,-2.2616,-2.2961,0.0,0.0,0.0,0.0,0.0,0.0,0.0,0.0,0.0,0.0,0.0,0.0,0.0,0.0,0.0,-2.5565,-2.5669,-2.5758,-2.5492,-2.4761,-2.3598,-2.1719,-2.1599,-2.0592,-1.7729,-1.7311,-1.6785,-1.5992,-1.5891,-1.5891,-1.5791,-1.4523,0.0,-1.3614,-1.3302,-1.2961,-1.2601,-1.3851,-1.421,-1.375,0.0,0.0,-1.4267,-1.4537,-1.4489,-1.4361,-1.4746,-1.4702,-1.4426,-1.4696,-1.4934,-1.4928,-1.4934,-1.5154,-1.5452,-1.5946,-1.6736,-1.7884,-1.9849,-2.106,-2.2075,-2.3635,-2.4306,-2.4377,-2.3793,-2.3535,0.0,-2.2293,-2.2087,-2.2198,-2.2025,-2.2025,-2.2201,-2.232,-2.2199,-2.2281,-2.2828,-2.2975,-2.2967,-2.2974,-2.2799,-2.2696,-2.2966,-2.2847,-2.2641,-2.2434,-2.241,-2.241,-2.241,-2.2585,-2.2712,-2.2712,-2.214,-2.1926,-2.2347,-2.0829,-2.0138,-2.0782,-1.9781,-1.9477,-2.0053,-1.9313,-1.9007,-1.9397,-1.924,-1.972,-2.0753,-2.0934,-2.166,-2.2832,-2.2197,-2.2005,0.0,0.0,0.0,0.0,0.0,0.0,0.0,0.0,0.0,0.0,0.0,-2.6167,0.0,0.0,-2.5598,-2.5585,-2.5247,-2.5078,-2.5371,-2.5079,-2.4431,-2.3007,-2.2425,-2.145,-1.9753,-1.8805,-1.8192,-1.7555,-1.7562,-1.7516,-1.7556,-1.6019,-1.493,-1.4518,-1.4538,-1.4281,-1.3835,-1.5378,-1.616,-1.6023,-1.6337,-1.6377,-1.6258,-1.6513,-1.6501,-1.6371,-1.5851,-1.5558,-1.5435,-1.5137,-1.4928,-1.4928,-1.5773,-1.6199,-1.6399,-1.6781,-1.8157,-1.9897,-2.0947,-2.2004,-2.3207,-2.4465,-2.4819,-2.4783,-2.4393,-2.3894,-2.312,-2.2206,-2.1534,-2.1204,-2.1448,-2.1666,-2.1923,-2.234,-2.2441,-2.2652,-2.2925,-2.3038,-2.3014,-2.3014,-2.3014,-2.3014,-2.3014,-2.3014,-2.3014,-2.3014,-2.3014,-2.3014,-2.3014,-2.3014,-2.3014,-2.3014,-2.2545,-2.2299,-2.2474,-2.1362,-2.0734,-2.0909,-2.0265,-2.0061,-2.0524,-1.9926,-1.9805,-2.0451,-2.002,-2.0099,-2.0628,-2.0726,-2.1198,-2.2052,-2.2321,-2.2366,0.0,0.0,0.0,0.0,0.0,0.0,0.0,0.0,-2.8811,-2.8153,-2.7298,-2.6396,-2.5579,-2.5456,-2.5448,-2.5424,-2.4819,-2.4431,-2.4935,-2.5224,-2.5094,-2.4407,-2.3212,-2.2303,-2.1916,-2.0612,-1.9636,-1.9323,-1.9316,-1.9425,-1.9461,-1.8016,-1.6938,-1.6248,-1.6393,-1.624,-1.5856,-1.736,-1.8211,-1.8596,-1.8649,-1.8561,-1.8366,-1.8618,-1.8597,-1.8352,-1.7206,-1.6685,-1.6685,-1.5968,-1.5553,-1.5441,-1.6916,-1.7582,-1.7847,-1.8177,-1.9814,-2.186,-2.2217,-2.3195,-2.4377,-2.5201,-2.5326,-2.5154,-2.4853,-2.3968,-2.3017,-2.1996,-2.0872,-2.0163,-2.1113,-2.1431,-2.1634,-2.2352,-2.278,-2.3014,-2.3014,-2.3014,-2.3014,-2.3014,-2.3014,-2.3014,-2.3014,-2.3014,-2.3014,-2.3014,-2.3014,-2.3014,-2.3014,-2.3014,-2.3014,-2.3014,-2.3014,-2.2871,-2.2521,-2.1973,-2.1473,-2.1052,-2.0694,-2.0564,-2.0692,-2.0361,-2.0403,-2.0966,-2.0223,-1.9939,-2.0128,-2.018,-2.0533,-2.1095,-2.2472,-2.306,-2.9391,-2.7008,-2.5846,-2.7288,-2.9027,-3.0143,0.0,0.0,-3.3735,-3.0053,-3.0251,-3.0823,-3.0012,-2.9118,-2.8215,-2.7316,-2.6742,-2.5969,-2.4487,-2.4923,-2.4984,-2.4008,-2.4338,-2.3878,-2.2045,-2.1683,-2.1031,-1.9857,-1.9955,-2.0068,-2.0106,-1.9362,-1.8822,-1.8666,-1.8367,-1.8186,-1.8328,-1.8381,-1.8499,-1.8789,-1.8638,-1.8455,-1.8352,-1.8394,-1.8387,-1.8352,-1.8248,-1.815,-1.8144,-1.8046,-1.8046,-1.8046,-1.8478,-1.9381,-2.0588,-2.0588,-2.1055,-2.1723,-2.3335,-2.4244,-2.4672,-2.5156,-2.5371,-2.5436,-2.4706,-2.4301,-2.3998,-2.3039,-2.2727,-2.2577,-2.2696,-2.2727,-2.2759,-2.2869,-2.3014,-2.3014,-2.3014,-2.3014,-2.3014,-2.3014,-2.3014,-2.3014,-2.3014,-2.3014,-2.3014,-2.3014,-2.3014,-2.3014,-2.3014,-2.3014,-2.3014,-2.3014,-2.3014,-2.2871,-2.2521,-2.241,-2.2092,-2.1433,-2.106,-2.0718,-2.0508,-2.0149,-1.9981,-2.0021,-1.9941,-2.0289,-2.1249,-2.1207,-2.132,-2.1499,-2.2384,-2.2908,-2.9778,-2.9599,-2.9933,0.0,-3.1479,-3.2422,-3.2856,-3.284,-3.2354,-3.1074,-3.0432,-3.0086,-2.9852,-2.865,-2.7504,0.0,-2.5982,-2.4883,-2.3854,-2.4352,-2.4588,-2.3949,-2.3382,-2.2702,-2.1727,-2.2197,-2.2088,-2.1033,-2.149,-2.1917,-2.1916,-2.0809,-2.0218,-2.0216,-2.0007,-2.0005,-2.0104,-2.0742,-2.1053,-2.1163,-2.1038,-2.0898,-2.0861,-2.0861,-2.0444,-1.9605,-1.9605,-1.9191,-1.8464,-1.8575,-1.8568,-1.8464,-1.962,-2.0454,-2.0965,-2.1199,-2.2103,-2.3161,-2.3903,-2.4493,-2.4827,-2.5067,-2.5331,-2.5415,-2.5208,-2.487,-2.4497,-2.4003,-2.3537,-2.3247,-2.3014,-2.3014,-2.3014,-2.3014,-2.3014,-2.3014,-2.3014,-2.3014,-2.3014,-2.3014,-2.3014,-2.3014,-2.3014,-2.3014,-2.2972,-2.2941,-2.3035,-2.3014,-2.3014,-2.3014,-2.3014,-2.3014,-2.3014,-2.295,-2.2807,-2.2791,-2.2585,-2.2084,-2.1719,-2.137,-2.102,-2.0464,-2.017,-2.017,-1.9971,-2.016,-2.0757,-2.0757,-2.1009,-2.1417,-2.1718,-2.2262,-3.0315,-3.1133,0.0,-3.2764,-3.3063,-3.3539,-3.519,-3.3388,-3.1406,-3.1763,-3.0573,-2.9454,-2.9633,-2.8521,-2.7403,-2.6987,-2.5746,-2.4478,-2.3556,-2.3904,-2.4003,-2.3364,-2.2258,-2.1277,-2.0457,-2.1701,-2.2494,-2.2257,-2.286,-2.328,-2.3445,-2.2303,-2.1578,-2.1565,-2.1651,-2.1749,-2.1677,-2.2474,-2.2743,-2.2823,-2.2565,-2.2509,-2.2443,-2.2544,-2.2021,-2.1073,-2.1073,-2.0546,-1.9605,-1.9723,-1.9716,-1.9716,-2.0877,-2.1569,-2.1755,-2.199,-2.3028,-2.4247,-2.4359,-2.4581,-2.4821,-2.5017,-2.5119,-2.5119,-2.534,-2.4982,-2.4548,-2.4253,-2.377,-2.336,-2.3014,-2.3014,-2.3014,-2.3014,-2.3014,-2.3014,-2.3014,-2.3014,-2.3014,-2.3014,-2.3014,-2.3046,-2.3028,-2.3043,-2.3048,-2.3045,-2.3006,-2.3079,-2.3194,-2.3107,-2.3165,-2.3165,-2.307,-2.3014,-2.3014,-2.3014,-2.2863,-2.2506,-2.2243,-2.191,-2.1465,-2.0956,-2.0639,-2.0543,-2.0381,-2.0458,-2.0671,-2.0761,-2.1081,-2.1702,-2.1693,-2.1959,-3.0394,0.0,-2.821,-3.1482,-3.2046,-3.2265,-3.4259,-3.3919,-3.2961,-3.2263,-3.1389,-3.0763,-3.0628,-3.0171,-2.9359,-2.7695,-2.6993,-2.5895,-2.3728,-2.3701,-2.3391,-2.167,-2.1415,-2.0281,0.0,-1.9793,-2.1974,-2.3502,-2.3514,-2.3687,-2.407,-2.3754,-2.3389,-2.3056,-2.3335,-2.3381,-2.3258,-2.2702,-2.2634,-2.2798,-2.2249,-2.1993,-2.2131,-2.2443,-2.2544,-2.2544,-2.2544,-2.2544,-2.2443,-2.2443,-2.2443,-2.2443,-2.2544,-2.2997,-2.3648,-2.3648,-2.3896,-2.429,-2.4667,-2.4812,-2.4821,-2.4821,-2.4821,-2.4812,-2.4539,-2.4241,-2.3859,-2.3607,-2.3328,-2.3014,-2.3014,-2.3014,-2.3014,-2.3014,-2.3014,-2.3014,-2.3014,-2.3014,-2.3014,-2.3014,-2.3014,-2.3012,-2.2998,-2.2945,-2.3061,-2.3062,-2.31,-2.3219,-2.3574,-2.3512,-2.3522,-2.3522,-2.322,-2.3014,-2.3014,-2.3014,-2.2863,-2.2506,-2.2474,-2.2164,-2.1481,-2.1425,-2.1258,-2.0909,-2.1097,-2.1395,-2.1692,-2.1895,-2.2198,-2.2526,-2.2518,-2.2611,-2.8339,0.0,-3.0101,-3.1529,-3.2046,-3.2492,-3.3482,-3.2709,-3.167,-3.1014,-2.9321,-2.794,-2.7762,-2.638,-2.5156,-2.4794,-2.3742,-2.299,-2.2854,-2.1896,-2.1335,-2.1812,-2.0515,0.0,0.0,0.0,0.0,-2.0837,-2.2366,-2.3375,-2.3851,-2.3434,-2.3372,-2.3524,-2.346,-2.3263,-2.3023,-2.2702,-2.2413,-2.2249,-2.2097,-2.2155,-2.2443,-2.2544,-2.2644,-2.2644,-2.2644,-2.2644,-2.2644,-2.2644,-2.2644,-2.2644,-2.2644,-2.3006,-2.3665,-2.3665,-2.4068,-2.4641,-2.4778,-2.4821,-2.4821,-2.4821,-2.4821,-2.4821,-2.4949,-2.4556,-2.4181,-2.4116,-2.3754,-2.3223,-2.3014,-2.3014,-2.3014,-2.3014,-2.3014,-2.3014,-2.3014,-2.3014,-2.3014,-2.3014,-2.2977,-2.3051,-2.3053,-2.3037,-2.3181,-2.339,-2.3261,-2.3131,-2.325,-2.3386,-2.3552,-2.3552,-2.3462,-2.3363,-2.3363,-2.3149,-2.2966,-2.2847,-2.2617,-2.2386,-2.2148,-2.1695,-2.1498,-2.1595,-2.1345,-2.1522,-2.1928,-2.2021,-2.2232,-2.2644,-2.2644,-2.2576,-2.8726,-3.0167,-3.1648,-3.247,-3.294,-3.312,-3.3031,-3.2439,-3.1726,-3.0843,-2.9214,-2.7631,-2.6639,-2.4992,-2.3688,-2.368,-2.2788,-2.2283,-2.3063,-2.1978,-2.1198,-2.1278,-1.9927,-1.9434,0.0,0.0,0.0,-1.9967,-2.1425,-2.257,-2.2834,-2.2757,-2.3001,-2.3553,-2.3593,-2.3272,-2.2812,-2.2472,-2.2057,-2.157,-2.1747,-2.203,-2.2241,-2.2342,-2.2374,-2.2255,-2.2492,-2.2475,-2.2264,-2.2492,-2.2644,-2.2644,-2.2644,-2.3014,-2.3674,-2.3665,-2.4153,-2.4821,-2.4821,-2.4821,-2.4821,-2.4821,-2.4821,-2.483,-2.4966,-2.4701,-2.4342,-2.4303,-2.3916,-2.3368,-2.3135,-2.3014,-2.3014,-2.3014,-2.3014,-2.3014,-2.3014,-2.3014,-2.3054,-2.3067,-2.3043,-2.3038,-2.305,-2.3014,-2.318,-2.3382,-2.324,-2.3233,-2.3474,-2.3495,-2.3658,-2.3658,-2.3473,-2.3307,-2.3307,-2.3107,-2.3014,-2.3014,-2.2799,-2.2617,-2.249,-2.2161,-2.1916,-2.1885,-2.1849,-2.1857,-2.2123,-2.2232,-2.2434,-2.2644,-2.2644,-2.2644,-3.1255,-3.2169,-3.2623,-3.4002,-3.4385,-3.4016,-3.2946,-3.3118,-3.306,-3.1368,-3.0611,-2.9466,0.0,0.0,-2.4592,-2.41,-2.366,-2.3574,-2.3892,-2.3592,-2.2602,0.0,0.0,0.0,0.0,0.0,0.0,-2.0933,0.0,-2.1379,-2.1536,-2.2022,-2.2599,-2.3318,-2.3698,-2.3476,-2.2544,-2.2185,-2.1682,-2.0925,-2.1224,-2.142,-2.1725,-2.203,-2.1946,-2.1652,-2.2298,-2.2247,-2.166,-2.2298,-2.2644,-2.2644,-2.2644,-2.3014,-2.3699,-2.3674,-2.4153,-2.4821,-2.4821,-2.4821,-2.4821,-2.4821,-2.4821,-2.4821,-2.4821,-2.4565,-2.4334,-2.402,-2.3698,-2.3424,-2.3143,-2.3014,-2.3014,-2.3014,-2.3014,-2.3014,-2.3014,-2.303,-2.3028,-2.3021,-2.2999,-2.2989,-2.3058,-2.3039,-2.3106,-2.3106,-2.3106,-2.3362,-2.3984,-2.3825,-2.3627,-2.3627,-2.3284,-2.3115,-2.3099,-2.3016,-2.303,-2.3014,-2.3014,-2.2863,-2.2529,-2.282,-2.2597,-2.2022,-2.2407,-2.2509,-2.2131,-2.2434,-2.2644,-2.2644,-2.2644,-2.2644,-3.0066,-3.1558,-3.3404,-3.4167,-3.385,-3.3314,-3.3362,-3.2914,-3.1888,-2.9665,-2.7455,-2.5209,0.0,0.0,0.0,-2.0827,-1.9561,0.0,-2.1292,-2.062,0.0,-2.1681,0.0,-2.2734,-2.43,-2.466,0.0,0.0,-2.3797,-2.352,-2.2899,-2.3773,-2.4012,-2.3351,-2.3779,-2.3719,-2.2842,-2.2585,-2.2009,-2.1224,-2.1428,-2.1725,-2.203,-2.2333,-2.2391,-2.2315,-2.2501,-2.2492,-2.2315,-2.2509,-2.2644,-2.2644,-2.2644,-2.3014,-2.3699,-2.3674,-2.4153,-2.4821,-2.4821,-2.4821,-2.4821,-2.4821,-2.4821,-2.4821,-2.4821,-2.4565,-2.4317,-2.3937,-2.3754,-2.3424,-2.3143,-2.3014,-2.3014,-2.3014,-2.3014,-2.3014,-2.3014,-2.2993,-2.2967,-2.306,-2.3024,-2.3134,-2.3046,-2.3054,-2.3106,-2.3106,-2.3355,-2.3487,-2.3736,-2.3908,-2.4101,-2.4355,-2.4217,-2.4087,-2.3826,-2.3494,-2.33,-2.303,-2.3014,-2.3087,-2.3231,-2.3067,-2.2928,-2.292,-2.2741,-2.2621,-2.2443,-2.2544,-2.2644,-2.2644,-2.2644,-2.2644,-3.1845,-3.3112,-3.4317,-3.4307,-3.4196,-3.3592,-3.1687,-3.1429,-3.0797,-2.7867,-2.5921,0.0,-2.164,0.0,0.0,0.0,0.0,0.0,-2.2362,-2.1462,-2.1062,0.0,-2.3172,0.0,-2.6141,-2.6511,-2.6277,0.0,-2.4693,-2.4044,-2.4043,-2.4266,-2.4412,-2.4619,-2.4694,-2.4412,-2.3674,-2.3573,-2.3265,-2.2859,-2.3236,-2.3236,-2.2978,-2.3089,-2.2814,-2.2212,0.0,-2.2458,-2.2221,-2.2484,-2.2646,-2.28,-2.28,-2.3263,-2.3931,-2.3922,-2.4299,-2.4821,-2.4821,-2.4821,-2.4821,-2.4821,-2.4821,-2.4821,-2.4821,-2.4684,-2.4454,-2.4024,-2.3746,-2.3561,-2.3151,-2.3014,-2.3014,-2.3014,-2.2901,-2.2835,-2.2985,-2.2936,-2.282,-2.3001,-2.3119,-2.3155,-2.3084,-2.3106,-2.3106,-2.3106,-2.3238,-2.3487,-2.3736,-2.386,-2.386,-2.3984,-2.4047,-2.4131,-2.3935,-2.3707,-2.3459,-2.326,-2.3101,-2.3127,-2.348,-2.3381,-2.3434,-2.3501,-2.3398,-2.3131,-2.28,-2.28,-2.2715,-2.2644,-2.2644,-2.2644,-3.4254,-3.5157,-3.5334,-3.4381,-3.4792,-3.4195,-2.9843,-2.9707,-2.9624,-2.6438,0.0,-2.4126,-2.1843,-1.9913,-1.9515,-2.2049,0.0,-2.0624,-2.4078,-2.3741,-2.3159,-2.3336,-2.3852,-2.4802,-2.6555,-2.693,-2.7127,-2.7304,-2.5216,-2.4315,-2.5125,-2.4398,-2.4665,-2.6132,-2.5834,-2.5386,-2.4804,-2.5061,-2.4988,-2.4886,-2.519,-2.4854,-2.4017,-2.3963,-2.3169,-2.1793,0.0,0.0,-2.1877,-2.2391,-2.2843,-2.3194,-2.3186,-2.3614,-2.423,-2.423,-2.4479,-2.4821,-2.4821,-2.4821,-2.4821,-2.4821,-2.4821,-2.4821,-2.4821,-2.4821,-2.471,-2.4041,-2.3875,-2.3811,-2.3151,-2.3014,-2.3014,-2.3014,-2.2828,-2.2718,-2.2898,-2.2805,-2.2704,-2.3088,-2.3054,-2.3106,-2.3106,-2.3106,-2.3106,-2.3106,-2.3106,-2.3362,-2.386,-2.3736,-2.3604,-2.3362,-2.3595,-2.3771,-2.3725,-2.363,-2.3594,-2.3546,-2.3213,-2.3127,-2.3585,-2.3809,-2.3859,-2.3804,-2.4122,-2.3888,-2.3186,-2.3186,-2.2997,-2.2621,-2.2621,-2.2595,-3.2246,-3.3884,-3.5841,-3.4497,-3.3779,-3.3301,-3.2551,-3.0017,0.0,0.0,-2.3841,-2.1704,-2.1589,-2.0017,-1.9351,-2.0964,-2.0852,-2.0475,-2.0223,-2.1844,-2.3513,0.0,0.0,0.0,0.0,0.0,0.0,0.0,0.0,0.0,-2.6028,-2.6538,-2.65,-2.58,-2.6064,-2.6216,-2.6139,-2.6478,-2.6235,-2.5413,-2.4642,-2.419,-2.4008,-2.4063,-2.3447,-2.2449,0.0,0.0,-2.2826,-2.2989,-2.3246,-2.3605,-2.358,-2.3836,-2.423,-2.423,-2.4479,-2.4821,-2.4821,-2.4821,-2.4821,-2.4821,-2.4821,-2.4821,-2.4821,-2.4821,-2.471,-2.4058,-2.385,-2.3738,-2.3143,-2.3014,-2.3014,-2.3014,-2.3008,-2.289,-2.2945,-2.3055,-2.3081,-2.3083,-2.3076,-2.3106,-2.3106,-2.3106,-2.3106,-2.3106,-2.3362,-2.3487,-2.323,-2.3736,-2.4232,-2.4734,-2.4802,-2.4775,-2.4482,-2.4198,-2.384,-2.3562,-2.3213,-2.3239,-2.3809,-2.3921,-2.3961,-2.413,-2.423,-2.4016,-2.3571,-2.3571,-2.3374,-2.3014,-2.3014,-2.2852,-3.1724,-3.3429,-3.5545,-3.3674,-3.3617,-3.313,-2.9675,0.0,0.0,0.0,-2.1022,-1.9629,-1.9731,-1.8769,0.0,-2.1364,-2.082,-2.0768,-2.2703,-2.3397,0.0,-2.5892,-2.6721,0.0,0.0,0.0,0.0,0.0,0.0,0.0,-2.7994,-2.8096,-2.7683,-2.6913,-2.7351,-2.7582,-2.7582,-2.8026,-2.7931,-2.7511,-2.7221,-2.6679,-2.5933,-2.532,-2.44,-2.3429,0.0,0.0,-2.2578,-2.3771,-2.3913,-2.3434,-2.3811,-2.4196,-2.4538,-2.4538,-2.4658,-2.4821,-2.4821,-2.4821,-2.4821,-2.4821,-2.4821,-2.4821,-2.4821,-2.4727,-2.453,-2.4066,-2.3746,-2.3633,-2.3135,-2.2901,-2.2835,-2.3016,-2.2998,-2.302,-2.2885,-2.2914,-2.3061,-2.3084,-2.3106,-2.3106,-2.3106,-2.3106,-2.3106,-2.3106,-2.3238,-2.3355,-2.3362,-2.3604,-2.3984,-2.4239,-2.461,-2.4794,-2.4621,-2.4237,-2.4101,-2.4049,-2.3536,-2.3585,-2.4153,-2.4153,-2.4283,-2.4547,-2.4538,-2.435,-2.3956,-2.3956,-2.3665,-2.3117,-2.3117,-2.2912,-3.1543,-3.3212,-3.4988,-3.2969,-3.3281,-3.259,-2.6788,-2.4747,0.0,-2.0254,-1.8826,-1.8219,-1.8585,0.0,-1.874,0.0,-2.0958,-2.1184,-2.5273,-2.4971,-2.5099,0.0,-2.7381,0.0,0.0,0.0,0.0,0.0,0.0,0.0,0.0,-2.8904,-2.8442,-2.8079,-2.8524,-2.8763,-2.8763,-2.9228,-2.9456,-2.9456,-2.9507,-2.8879,-2.7673,-2.6662,-2.5541,-2.4542,0.0,0.0,0.0,-2.4687,-2.4602,-2.3306,-2.4068,-2.4547,-2.4821,-2.4821,-2.4821,-2.4821,-2.4821,-2.4821,-2.4821,-2.4821,-2.4821,-2.4821,-2.4821,-2.4633,-2.4435,-2.4066,-2.3738,-2.3408,-2.3143,-2.2851,-2.2673,-2.2968,-2.2999,-2.3041,-2.2718,-2.2923,-2.3106,-2.3106,-2.3106,-2.3106,-2.3106,-2.3106,-2.3106,-2.3106,-2.3106,-2.323,-2.3487,-2.3611,-2.3611,-2.3736,-2.4232,-2.461,-2.4734,-2.4403,-2.4252,-2.4517,-2.3934,-2.3899,-2.4384,-2.4376,-2.4487,-2.4821,-2.4821,-2.4667,-2.4359,-2.4359,-2.3973,-2.3246,-2.3237,-2.2989,-3.1276,-3.3057,-3.464,-3.2819,-3.1888,-3.0723,-2.7997,0.0,-2.2036,-2.0772,-1.8861,-1.8002,-1.9978,0.0,0.0,0.0,0.0,-2.1649,-2.3039,-2.4175,-2.5378,-2.6799,0.0,0.0,-3.0226,0.0,0.0,0.0,0.0,0.0,0.0,-2.8638,-2.8597,-2.8556,-2.9001,-2.9239,-2.9239,-2.9704,-2.9932,-2.9932,-2.8813,-2.7968,-2.7481,-2.7152,-2.6527,-2.5871,0.0,0.0,0.0,-2.5518,-2.5004,-2.3691,-2.4461,-2.4787,-2.4821,-2.4821,-2.4821,-2.4821,-2.4821,-2.4821,-2.4821,-2.4821,-2.4821,-2.4821,-2.4821,-2.4821,-2.4718,-2.4376,-2.3929,-2.3368,-2.3135,-2.2796,-2.2734,-2.3022,-2.3103,-2.31,-2.3003,-2.3091,-2.3106,-2.3106,-2.3106,-2.3106,-2.3106,-2.3106,-2.3106,-2.3106,-2.3106,-2.3113,-2.3106,-2.3362,-2.3736,-2.3984,-2.4363,-2.4734,-2.4988,-2.4754,-2.4516,-2.4533,-2.4169,-2.4048,-2.4393,-2.4376,-2.4487,-2.4821,-2.4821,-2.4804,-2.477,-2.477,-2.4384,-2.3648,-2.3622,-2.3228,-2.8699,-3.1259,-3.4069,-3.2064,-3.1553,-3.0441,-2.637,0.0,-2.1947,-1.9301,-1.7945,-1.7566,-1.8473,-1.8353,0.0,0.0,0.0,0.0,-2.4025,-2.4701,-2.5672,-2.7815,-2.8112,0.0,0.0,0.0,0.0,0.0,0.0,0.0,0.0,-2.9032,-2.9032,-2.9032,-2.9477,-2.9715,-2.9715,-2.9901,-2.9994,-2.9994,-2.9495,-2.8921,-2.8317,-2.7874,-2.7412,-2.7061,0.0,0.0,0.0,-2.7182,-2.6219,-2.3212,-2.5074,-2.5348,-2.4821,-2.4821,-2.4821,-2.4821,-2.4821,-2.4821,-2.4821,-2.4821,-2.4821,-2.4821,-2.4821,-2.4684,-2.4565,-2.4479,-2.3973,-2.3446,-2.3332,-2.3052,-2.2932,-2.2822,-2.2907,-2.3091,-2.3084,-2.3106,-2.3106,-2.3106,-2.3106,-2.3106,-2.3106,-2.3106,-2.3106,-2.3106,-2.3106,-2.3106,-2.3106,-2.323,-2.3487,-2.3984,-2.4355,-2.4734,-2.5111,-2.4785,-2.4643,-2.4849,-2.4431,-2.44,-2.4695,-2.4709,-2.471,-2.4821,-2.4821,-2.4821,-2.4821,-2.4821,-2.4427,-2.3682,-2.3665,-2.3263,-2.7245,-2.978,-3.2754,-3.1258,-3.0575,-2.912,0.0,0.0,-2.1118,-1.8065,-1.7379,-1.7278,-1.7278,-1.7278,-1.7805,-1.9437,0.0,-2.0819,-2.3995,-2.4293,-2.504,-2.7382,0.0,0.0,0.0,0.0,0.0,0.0,0.0,0.0,0.0,0.0,-2.9508,-2.9508,-2.9829,-2.9994,-2.9994,-2.9994,-2.9994,-2.9994,-3.0099,-2.9651,-2.8749,-2.8696,-2.8471,0.0,0.0,0.0,0.0,-2.8635,-2.7353,-2.3613,-2.5675,-2.578,-2.4821,-2.4821,-2.4821,-2.4821,-2.4821,-2.4821,-2.4821,-2.4821,-2.4821,-2.4821,-2.4821,-2.4684,-2.4556,-2.4479,-2.429,-2.3924,-2.3442,-2.3095,-2.2951,-2.3215,-2.3563,-2.3991,-2.4216,-2.4209,-2.4209,-2.4209,-2.3969,-2.3845,-2.4209,-2.3969,-2.3845,-2.4209,-2.4209,-2.4209,-2.4209,-2.4209,-2.4456,-2.5194,-2.5087,-2.5095,-2.5111,-2.4881,-2.4811,-2.494,-2.461,-2.4573,-2.4686,-2.4561,-2.4599,-2.471,-2.471,-2.471,-2.4821,-2.4821,-2.4479,-2.3828,-2.3828,-2.3434,-2.7873,-2.938,-3.0291,-3.0539,-2.8588,-2.615,0.0,-2.1632,-1.9282,-1.7641,-1.7278,-1.7278,-1.7278,-1.7278,-1.7805,-1.9437,-2.0131,-2.0808,-2.1829,-2.2506,-2.3394,0.0,0.0,0.0,0.0,0.0,0.0,0.0,0.0,0.0,0.0,0.0,-2.9984,-2.9984,-2.9994,-2.9994,-2.9994,-2.9994,-2.9994,-2.9994,-3.0297,-2.9667,-2.8376,-2.95,0.0,0.0,0.0,0.0,0.0,-2.9549,-2.8133,-2.5399,-2.6206,-2.578,-2.4821,-2.4821,-2.4821,-2.4821,-2.4821,-2.4821,-2.4821,-2.4821,-2.4821,-2.4821,-2.4821,-2.4821,-2.4821,-2.4821,-2.5069,-2.4926,-2.3037,-2.2576,-2.2916,-2.4684,-2.5365,-2.5888,-2.6788,-2.7013,-2.7013,-2.7013,-2.592,-2.5439,-2.6771,-2.592,-2.5562,-2.6771,-2.7013,-2.7013,-2.7013,-2.7013,-2.7254,-2.7864,-2.6788,-2.5831,-2.5111,-2.5103,-2.5074,-2.4956,-2.4711,-2.4472,-2.4367,-2.4111,-2.4033,-2.4376,-2.4376,-2.4487,-2.4821,-2.4821,-2.4616,-2.423,-2.423,-2.3828,-2.5359,-2.6456,-2.7483,-2.652,-2.5562,-2.4333,-2.2059,-2.0852,-1.9758,-1.8134,-1.7508,-1.7376,-1.7715,-1.7508,-1.7805,-1.9437,-1.9865,-2.0886,0.0,0.0,0.0,-2.6993,0.0,0.0,0.0,0.0,0.0,0.0,0.0,0.0,0.0,0.0,-2.9994,-2.9994,-2.9994,-2.9994,-2.9994,-2.9994,-2.9994,-2.9994,-3.0099,-2.9474,-2.8376,-2.9929,0.0,0.0,0.0,0.0,0.0,-3.0013,-2.8817,-2.6218,-2.8088,-2.7688,-2.61,-2.6844,-2.6626,-2.599,-2.599,-2.6418,-2.6952,-2.6209,-2.599,-2.599,-2.599,-2.5467,-2.4924,-2.542,-2.5634,-2.5775,-2.5679,-2.5569,-2.5682,-2.6236,-2.6545,-2.6675,-2.69,-2.7013,-2.7013,-2.7013,-2.665,-2.6529,-2.6892,-2.665,-2.6529,-2.6892,-2.7013,-2.7013,-2.7013,-2.7013,-2.7254,-2.7984,-2.7624,-2.7142,-2.6424,-2.5586,-2.5056,-2.5067,-2.4964,-2.4728,-2.4488,-2.4367,-2.429,-2.4384,-2.4376,-2.4487,-2.4821,-2.4821,-2.4616,-2.4222,-2.3708,-2.334,-2.4025,-2.4584,-2.517,-2.4599,-2.3598,0.0,-2.0861,-1.9887,-1.8989,-1.7969,-1.798,-1.8126,-1.777,-1.7991,-1.8383,-1.8736,0.0,0.0,0.0,0.0,0.0,0.0,0.0,0.0,0.0,0.0,0.0,0.0,0.0,0.0,0.0,0.0,0.0,-2.9994,-2.9994,-2.9994,-2.9994,-2.9818,-2.9735,-2.9735,-2.9766,-2.9342,-2.8463,0.0,0.0,0.0,0.0,0.0,0.0,-3.0372,-2.9521,-2.7583,-2.9208,-2.8754,-2.7267,-2.7902,-2.7795,-2.7159,-2.7159,-2.759,-2.8116,-2.7375,-2.7159,-2.706,-2.6952,-2.5999,-2.5292,-2.625,-2.669,-2.7,-2.6944,-2.7375,-2.7727,-2.7727,-2.7727,-2.7855,-2.8343,-2.8462,-2.8462,-2.8462,-2.8095,-2.7855,-2.8343,-2.8095,-2.7855,-2.8352,-2.8582,-2.8582,-2.8462,-2.8582,-2.8811,-2.9412,-2.9048,-2.8692,-2.8444,-2.6779,-2.5586,-2.5103,-2.4899,-2.4715,-2.4491,-2.4382,-2.4252,-2.4361,-2.4452,-2.4487,-2.4821,-2.4821,-2.4616,-2.4222,-2.3614,-2.3254,0.0,-2.3502,-2.3163,-2.4061,-2.2239,-2.0253,-2.0253,-1.8736,0.0,-1.7509,-1.8692,-1.926,-1.7783,-1.8884,-1.9432,0.0,0.0,0.0,0.0,0.0,0.0,0.0,0.0,0.0,0.0,0.0,0.0,0.0,0.0,0.0,0.0,0.0,0.0,0.0,-3.0047,-2.9963,-2.9994,-2.9539,-2.9259,-2.9156,-2.9295,-2.9093,-2.854,0.0,0.0,0.0,0.0,0.0,0.0,-3.0614,-3.0199,-2.9341,-2.9798,-2.9262,-2.8329,-2.8436,-2.8436,-2.8329,-2.8329,-2.8329,-2.8436,-2.8329,-2.8329,-2.8223,-2.7707,-2.6754,-2.605,-2.7359,-2.8173,-2.8511,-2.7542,-2.8215,-2.9048,-2.9048,-2.9048,-2.9412,-3.0645,-3.0889,-3.0889,-3.0889,-2.9903,-2.9412,-3.0645,-2.9903,-2.9412,-3.0762,-3.1112,-3.1218,-3.1005,-3.1218,-3.1441,-3.1787,-3.084,-3.0236,-3.0704,-2.8444,-2.6545,-2.5349,-2.4923,-2.4603,-2.4579,-2.4295,-2.4154,-2.4351,-2.4449,-2.4599,-2.4821,-2.4821,-2.4633,-2.4264,-2.3879,-2.3502,-2.1047,0.0,-2.0144,-1.9997,-1.8992,-1.806,0.0,-1.7652,-1.775,0.0,0.0,-1.9743,-1.9765,-2.0794,-2.1117,0.0,0.0,0.0,0.0,0.0,0.0,0.0,0.0,0.0,0.0,0.0,0.0,0.0,0.0,0.0,0.0,0.0,0.0,0.0,-3.0253,-2.9642,-2.9994,-2.9539,-2.8783,-2.7748,-2.8645,-2.8232,-2.6636,0.0,0.0,0.0,0.0,0.0,0.0,-2.9773,-2.9829,-3.0012,-3.0475,-3.0137,-2.9608,-3.0453,-3.0245,-2.9503,-2.9503,-3.0026,-3.066,-2.9817,-2.9503,-2.9503,-2.9398,-2.8232,-2.7247,-2.8192,-2.855,-2.8861,-2.9704,-3.0157,-3.0401,-3.0401,-3.0401,-3.0518,-3.0889,-3.0889,-3.0889,-3.0889,-3.0645,-3.0518,-3.0889,-3.0645,-3.0518,-3.0889,-3.1112,-3.1334,-3.1218,-3.1441,-3.1787,-3.2133,-3.1893,-3.1536,-3.082,-2.8444,-2.69,-2.6537,-2.5627,-2.4865,-2.4595,-2.4512,-2.439,-2.4359,-2.4561,-2.471,-2.4821,-2.4821,-2.477,-2.4667,-2.399,-2.3622,-2.0551,-1.9851,-1.9291,-1.9756,-1.8744,-1.7838,-1.8614,-1.7716,-1.738,0.0,0.0,-1.941,-2.0012,-2.0872,0.0,0.0,0.0,0.0,0.0,0.0,0.0,0.0,0.0,0.0,0.0,0.0,0.0,0.0,0.0,0.0,0.0,0.0,0.0,0.0,0.0,-2.9812,-3.0066,-2.9099,-2.7986,-2.6837,-2.7946,-2.7787,-2.6494,0.0,0.0,0.0,0.0,0.0,-2.9139,-2.9003,-2.9463,-3.0264,-3.0723,-3.0777,-3.0774,-3.1403,-3.1197,-3.0671,-3.0671,-3.1094,-3.1516,-3.0877,-3.0671,-3.0671,-3.0349,-2.9867,-2.9407,-2.9739,-2.9666,-2.9653,-3.0664,-3.0889,-3.0889,-3.0889,-3.0889,-3.0889,-3.1112,-3.1112,-3.1112,-3.1112,-3.1112,-3.0995,-3.0889,-3.0889,-3.0889,-3.1112,-3.1334,-3.1556,-3.1556,-3.1787,-3.2133,-3.2248,-3.2248,-3.2133,-3.1662,-2.9874,-2.8206,-2.7013,-2.5823,-2.5024,-2.4833,-2.4801,-2.463,-2.4566,-2.4701,-2.4821,-2.4821,-2.4821,-2.4727,-2.4538,-2.3939,-2.3571,-2.0864,-2.0093,-1.9643,-2.0964,-1.9717,-1.848,-1.977,-1.8091,-1.7002,0.0,0.0,-1.9296,-2.0048,-2.0952,0.0,0.0,0.0,0.0,0.0,0.0,0.0,0.0,0.0,0.0,0.0,0.0,0.0,0.0,0.0,0.0,0.0,0.0,0.0,0.0,0.0,-3.0218,-3.0152,-2.8655,-2.7336,-2.6198,-2.7469,-2.7569,-2.6928,-2.8631,0.0,0.0,0.0,0.0,-2.8817,-2.8503,-2.9058,-3.0253,-3.0646,-3.1127,-3.1618,-3.1618,-3.1618,-3.1618,-3.1618,-3.1618,-3.1618,-3.1618,-3.1684,-3.1636,-3.1213,-3.1336,-3.1742,-3.1581,-3.1075,-3.062,-3.1041,-3.1025,-3.1015,-3.1005,-3.1005,-3.1112,-3.1218,-3.1325,-3.1325,-3.1325,-3.1325,-3.1218,-3.1112,-3.0995,-3.1112,-3.1325,-3.1672,-3.1903,-3.1903,-3.2143,-3.2373,-3.2373,-3.2373,-3.2487,-3.2727,-3.1536,-2.9865,-2.7727,-2.6415,-2.5538,-2.531,-2.5087,-2.4886,-2.4727,-2.471,-2.471,-2.4821,-2.4821,-2.465,-2.4307,-2.3931,-2.358,-2.0432,-2.0018,-1.986,-2.0352,-1.9532,-1.8507,-1.834,-1.7704,-1.7945,0.0,0.0,0.0,0.0,-2.4523,-2.5094,0.0,0.0,0.0,0.0,0.0,0.0,0.0,0.0,0.0,0.0,0.0,0.0,0.0,0.0,0.0,0.0,0.0,0.0,0.0,0.0,-3.0546,-3.0228,-2.87,-2.7336,-2.6277,-2.7458,-2.7479,-2.6487,-2.8109,-2.8866,0.0,0.0,0.0,-2.8839,-2.8773,-2.927,-3.022,-3.0286,-3.0854,-3.1618,-3.1618,-3.1618,-3.1618,-3.1618,-3.1618,-3.1618,-3.1618,-3.1913,-3.2263,-3.2158,-3.2485,-3.2781,-3.2652,-3.208,-3.1523,-3.1893,-3.1792,-3.1626,-3.1692,-3.1672,-3.1566,-3.1325,-3.1556,-3.1672,-3.1334,-3.1325,-3.1334,-3.1566,-3.145,-3.1334,-3.1672,-3.2018,-3.2248,-3.2248,-3.2487,-3.2612,-3.2612,-3.2612,-3.2612,-3.2727,-3.1536,-3.0587,-3.0227,-2.9039,-2.7674,-2.6313,-2.5152,-2.454,-2.4504,-2.4487,-2.4599,-2.4821,-2.4821,-2.4795,-2.4727,-2.4324,-2.4119,-2.0859,-2.0204,-1.9806,-2.0908,-1.9726,-1.8763,-2.0353,-1.8586,-1.7687,0.0,0.0,0.0,0.0,0.0,0.0,0.0,0.0,0.0,0.0,0.0,0.0,0.0,0.0,0.0,0.0,0.0,0.0,0.0,0.0,0.0,0.0,0.0,0.0,0.0,0.0,0.0,-3.0991,-2.9387,-2.7697,-2.6077,-2.7434,-2.7436,-2.6541,-2.8091,-2.8757,0.0,0.0,-2.8368,-2.8806,-2.8371,-2.8948,-3.0209,-3.0209,-3.0788,-3.1618,-3.1618,-3.1618,-3.1618,-3.1618,-3.1618,-3.1618,-3.1618,-3.1782,-3.2022,-3.2295,-3.27,-3.3126,-3.3106,-3.2632,-3.2075,-3.2125,-3.2038,-3.1702,-3.1566,-3.1556,-3.1441,-3.1325,-3.1441,-3.1441,-3.1325,-3.1441,-3.1566,-3.1334,-3.145,-3.1672,-3.1787,-3.2133,-3.2363,-3.2487,-3.2612,-3.2727,-3.2727,-3.2727,-3.2727,-3.2727,-3.2133,-3.1179,-2.9865,-2.8564,-2.7502,-2.6725,-2.5444,-2.4771,-2.4616,-2.4599,-2.471,-2.4821,-2.4821,-2.4821,-2.4812,-2.4419,-2.423,-2.1112,-2.015,-1.9377,-2.0878,-1.957,-1.8682,-2.1807,-1.916,-1.7359,0.0,0.0,0.0,0.0,0.0,0.0,0.0,0.0,0.0,0.0,0.0,0.0,0.0,0.0,0.0,0.0,0.0,0.0,0.0,0.0,0.0,0.0,0.0,0.0,0.0,0.0,0.0,-3.1625,-3.0351,-2.8711,-2.6767,-2.7672,-2.771,-2.713,-2.8244,-2.8757,-2.8806,-2.8151,-2.825,-2.8795,-2.814,-2.8751,-3.0209,-3.0209,-3.0788,-3.1618,-3.1618,-3.1618,-3.1618,-3.1618,-3.1618,-3.1618,-3.1618,-3.1668,-3.193,-3.2216,-3.2737,-3.3247,-3.32,-3.2908,-3.2588,-3.2323,-3.2092,-3.1797,-3.145,-3.1441,-3.1441,-3.1325,-3.1441,-3.1556,-3.1441,-3.1672,-3.1682,-3.1344,-3.1682,-3.1903,-3.2028,-3.2258,-3.2487,-3.2727,-3.2727,-3.2727,-3.2727,-3.2727,-3.2727,-3.2727,-3.2727,-3.1893,-2.9874,-2.8473,-2.7523,-2.7185,-2.593,-2.5023,-2.4727,-2.471,-2.471,-2.4821,-2.4821,-2.4821,-2.4812,-2.4513,-2.4367,-2.0534,-1.9431,-1.8242,-1.9223,-1.8469,-1.7981,-1.9954,-1.8343,-1.7348,-2.041,0.0,0.0,0.0,0.0,0.0,0.0,0.0,0.0,0.0,0.0,0.0,0.0,0.0,0.0,0.0,0.0,0.0,0.0,0.0,0.0,0.0,0.0,0.0,0.0,0.0,0.0,0.0,-3.1448,-3.0676,-2.9237,-2.862,-2.8423,-2.8696,-2.8702,-2.8757,-2.8839,-2.8773,-2.8784,-2.8839,-2.8773,-2.927,-3.0209,-3.0209,-3.0788,-3.1618,-3.1618,-3.1618,-3.1618,-3.1618,-3.1618,-3.1618,-3.1618,-3.201,-3.2523,-3.2254,-3.2795,-3.3406,-3.2851,-3.2995,-3.3048,-3.2705,-3.2455,-3.2174,-3.1797,-3.2018,-3.2018,-3.1441,-3.1787,-3.2133,-3.1787,-3.1787,-3.1903,-3.2498,-3.2373,-3.2373,-3.2612,-3.2612,-3.2727,-3.2727,-3.2727,-3.2727,-3.2727,-3.2727,-3.2727,-3.2727,-3.2727,-3.2612,-3.2487,-3.0794,-2.9317,-2.8305,-2.6554,-2.5293,-2.4384,-2.4376,-2.4599,-2.4821,-2.4821,-2.4821,-2.4821,-2.4795,-2.4778,-2.0778,-1.941,-1.818,-2.0159,-1.8285,0.0,0.0,-1.8371,-1.7859,-2.1438,-2.0079,0.0,0.0,0.0,0.0,0.0,0.0,0.0,0.0,0.0,0.0,0.0,0.0,0.0,0.0,0.0,0.0,0.0,0.0,0.0,0.0,0.0,0.0,0.0,0.0,0.0,0.0,-3.1536,-3.0633,-2.9646,-2.9301,-2.929,-2.9635,-2.9117,-2.8757,-2.8757,-2.8757,-2.8757,-2.8757,-2.8757,-2.9325,-3.0275,-3.0854,-3.1313,-3.1618,-3.1618,-3.1618,-3.1618,-3.1618,-3.1618,-3.1618,-3.1618,-3.1973,-3.2477,-3.2437,-3.2876,-3.3343,-3.283,-3.2934,-3.3079,-3.2747,-3.2633,-3.2508,-3.2143,-3.2258,-3.2133,-3.1672,-3.1787,-3.1903,-3.1787,-3.2018,-3.2133,-3.2143,-3.2373,-3.2498,-3.2487,-3.2612,-3.2727,-3.2727,-3.2727,-3.2727,-3.2727,-3.2727,-3.2727,-3.2727,-3.2727,-3.2602,-3.2538,-3.0957,-2.964,-2.8653,-2.6997,-2.5613,-2.4718,-2.4599,-2.471,-2.4821,-2.4821,-2.4821,-2.4821,-2.4821,-2.4821,-2.0529,-1.9318,-1.838,-2.0574,0.0,0.0,-1.9957,-1.8837,-1.8045,-2.1142,-2.0503,-1.9749,-2.0771,0.0,0.0,0.0,0.0,0.0,0.0,0.0,0.0,0.0,0.0,0.0,0.0,0.0,0.0,0.0,0.0,0.0,0.0,0.0,0.0,0.0,0.0,0.0,0.0,-3.1347,-3.0609,-3.0339,-2.9386,-2.9032,-2.9257,-2.8735,-2.8466,-2.8279,-2.8653,-2.8653,-2.856,-2.8746,-2.9325,-3.0308,-3.1258,-3.1618,-3.1618,-3.1618,-3.1618,-3.1618,-3.1618,-3.1618,-3.1651,-3.1815,-3.1984,-3.2165,-3.235,-3.2614,-3.2844,-3.2323,-3.2623,-3.2996,-3.2706,-3.2592,-3.2487,-3.2258,-3.2248,-3.2258,-3.1903,-3.1903,-3.1903,-3.1903,-3.2133,-3.2248,-3.2143,-3.2383,-3.2612,-3.2487,-3.2612,-3.2727,-3.2727,-3.2727,-3.2727,-3.2727,-3.2727,-3.2727,-3.2727,-3.2727,-3.2643,-3.2378,-3.1299,-3.0234,-2.9244,-2.7595,-2.626,-2.5357,-2.5034,-2.471,-2.471,-2.471,-2.471,-2.471,-2.471,-2.471,-1.9649,-1.9071,-1.8822,-2.0268,0.0,0.0,-2.1787,-1.9787,-1.7629,-1.9116,-2.1916,-2.3994,-2.3683,0.0,0.0,0.0,0.0,0.0,0.0,0.0,0.0,0.0,0.0,0.0,0.0,0.0,0.0,0.0,0.0,0.0,0.0,0.0,0.0,0.0,0.0,0.0,0.0,0.0,-3.0843,-3.1565,-2.8914,-2.7508,-2.7231,-2.7704,-2.7704,-2.7231,-2.8373,-2.8466,-2.8081,-2.8571,-2.9325,-3.0297,-3.1236,-3.1607,-3.1618,-3.1618,-3.1618,-3.1618,-3.1618,-3.1618,-3.1706,-3.2208,-3.1941,-3.1572,-3.1864,-3.2062,-3.187,-3.1407,-3.1973,-3.2611,-3.2393,-3.2248,-3.2248,-3.1903,-3.2018,-3.2248,-3.1903,-3.2018,-3.2248,-3.2248,-3.2248,-3.2373,-3.2612,-3.2727,-3.2727,-3.2727,-3.2727,-3.2727,-3.2727,-3.2727,-3.2727,-3.2727,-3.2727,-3.2727,-3.2727,-3.2727,-3.2633,-3.2378,-3.2028,-3.135,-3.0227,-2.8701,-2.7394,-2.6527,-2.5348,-2.471,-2.4376,-2.4376,-2.4376,-2.4376,-2.4376,-2.4487,-2.1085,-2.0015,0.0,-2.0144,0.0,0.0,0.0,-1.9971,0.0,0.0,-2.2751,-2.3463,-2.2541,0.0,0.0,0.0,0.0,0.0,0.0,0.0,0.0,0.0,0.0,0.0,0.0,0.0,0.0,0.0,0.0,0.0,0.0,0.0,0.0,0.0,0.0,0.0,0.0,0.0,-2.8019,-2.8065,-2.6624,-2.6731,-2.8215,-2.7357,-2.7129,-2.7231,-2.7904,-2.8186,-2.8113,-2.8939,-2.9434,-2.9762,-3.0384,-3.0832,-3.1116,-3.1116,-3.1323,-3.1618,-3.1618,-3.1618,-3.1651,-3.1804,-3.1973,-3.2165,-3.2134,-3.2406,-3.2521,-3.2115,-3.2393,-3.2653,-3.2373,-3.2487,-3.2612,-3.2498,-3.2498,-3.2498,-3.2498,-3.2498,-3.2612,-3.2612,-3.2612,-3.2612,-3.2737,-3.2727,-3.2727,-3.2727,-3.2727,-3.2727,-3.2727,-3.2727,-3.2727,-3.2727,-3.2727,-3.2727,-3.2727,-3.2529,-3.2479,-3.2226,-3.1987,-3.0995,-2.9095,-2.8261,-2.6961,-2.5357,-2.4812,-2.4599,-2.471,-2.4264,-2.4256,-2.471,-2.4487,-2.4376,-2.1655,-2.0928,0.0,-2.2137,-2.1673,-2.0808,-2.0894,0.0,0.0,0.0,0.0,-2.4369,0.0,0.0,0.0,0.0,0.0,0.0,0.0,0.0,0.0,0.0,0.0,0.0,0.0,0.0,0.0,0.0,0.0,0.0,0.0,0.0,0.0,0.0,0.0,0.0,0.0,0.0,0.0,-2.6511,-2.526,-2.5513,-2.7012,-2.63,-2.6166,-2.6405,-2.7063,-2.762,-2.803,-2.889,-2.9287,-2.9532,-3.0024,-3.0493,-3.0898,-3.0898,-3.1203,-3.1618,-3.1618,-3.1618,-3.1662,-3.1859,-3.1793,-3.1685,-3.1911,-3.2018,-3.2142,-3.2097,-3.2354,-3.2612,-3.2487,-3.2612,-3.2727,-3.2727,-3.2727,-3.2727,-3.2727,-3.2727,-3.2727,-3.2727,-3.2727,-3.2727,-3.2727,-3.2727,-3.2727,-3.2727,-3.2727,-3.2727,-3.2727,-3.2727,-3.2727,-3.2727,-3.2727,-3.2727,-3.2727,-3.2517,-3.238,-3.2242,-3.1987,-3.1095,-2.9152,-2.8369,-2.7178,-2.5459,-2.4923,-2.4599,-2.4599,-2.4256,-2.4264,-2.4599,-2.4264,-2.4033,-2.1864,-2.1904,0.0,-2.5033,-2.4057,0.0,-2.4104,-2.2613,-2.1702,-2.46,0.0,0.0,0.0,0.0,0.0,0.0,0.0,0.0,0.0,0.0,0.0,0.0,0.0,0.0,0.0,0.0,0.0,0.0,0.0,0.0,0.0,0.0,0.0,0.0,0.0,0.0,0.0,0.0,0.0,0.0,0.0,-2.3955,-2.4355,-2.4804,-2.5053,-2.5124,-2.6004,-2.6958,-2.7966,-2.8307,-2.8892,-2.9456,-2.9807,-3.0362,-3.0777,-3.081,-3.1138,-3.1564,-3.1607,-3.1516,-3.1603,-3.206,-3.1377,-3.0559,-3.1461,-3.1271,-3.0994,-3.1472,-3.2107,-3.2685,-3.2716,-3.2727,-3.2727,-3.2727,-3.2727,-3.2727,-3.2727,-3.2727,-3.2727,-3.2727,-3.2727,-3.2727,-3.2727,-3.2727,-3.2727,-3.2727,-3.2727,-3.2727,-3.2727,-3.2727,-3.2727,-3.2727,-3.2727,-3.2727,-3.2727,-3.2517,-3.238,-3.2242,-3.1987,-3.1295,-2.9942,-2.886,-2.7697,-2.6527,-2.5357,-2.471,-2.4487,-2.4376,-2.4376,-2.4376,-2.3817,-2.3585,-2.2982,-2.2685,0.0,0.0,-2.2342,-2.237,-2.5381,-2.4798,-2.4209,0.0,0.0,0.0,0.0,0.0,0.0,0.0,0.0,0.0,0.0,0.0,0.0,0.0,0.0,0.0,0.0,0.0,0.0,0.0,0.0,0.0,0.0,0.0,0.0,0.0,0.0,0.0,0.0,0.0,-2.3841,0.0,-2.3565,-2.3506,-2.3926,-2.4016,-2.4514,-2.5197,-2.539,-2.628,-2.7466,-2.719,-2.7817,-2.8921,-2.8642,-2.8977,-2.9838,-3.022,-3.0657,-3.1105,-3.1487,-3.1311,-3.1013,-3.112,-3.0683,-3.0203,-3.0764,-3.0853,-3.0931,-3.1705,-3.2004,-3.2271,-3.2633,-3.2727,-3.2727,-3.2727,-3.2727,-3.2727,-3.2727,-3.2727,-3.2727,-3.2727,-3.2727,-3.2727,-3.2727,-3.2727,-3.2727,-3.2727,-3.2727,-3.2727,-3.2727,-3.2727,-3.2727,-3.2727,-3.2727,-3.2727,-3.2727,-3.2517,-3.238,-3.2242,-3.1987,-3.1295,-2.9942,-2.886,-2.7697,-2.6527,-2.5128,-2.4599,-2.471,-2.4256,-2.4033,-2.4033,-2.3697,-2.3135,-2.2472,0.0,0.0,-2.3765,0.0,-2.4374,-2.5656,-2.5732,0.0,0.0,0.0,0.0,0.0,0.0,0.0,0.0,0.0,0.0,0.0,0.0,0.0,0.0,0.0,0.0,0.0,0.0,0.0,0.0,0.0,0.0,0.0,0.0,0.0,0.0,0.0,0.0,-2.5616,-2.3931,-2.3252,-2.3477,-2.3242,-2.3262,-2.3486,-2.3691,-2.4087,-2.4575,-2.4693,-2.5492,-2.6568,-2.629,-2.6921,-2.7998,-2.7704,-2.8328,-2.9462,-2.972,-3.0448,-3.128,-3.1224,-3.0991,-3.0785,-3.0484,-3.0078,-2.971,-3.0178,-3.0442,-3.0775,-3.1478,-3.2033,-3.2426,-3.2664,-3.2727,-3.2727,-3.2727,-3.2727,-3.2727,-3.2727,-3.2727,-3.2727,-3.2727,-3.2727,-3.2727,-3.2727,-3.2727,-3.2727,-3.2727,-3.2727,-3.2727,-3.2727,-3.2727,-3.2727,-3.2727,-3.2643,-3.2591,-3.2706,-3.2431,-3.2247,-3.2221,-3.1987,-3.1505,-3.0795,-2.9071,-2.7697,-2.6527,-2.5247,-2.471,-2.4821,-2.4144,-2.3921,-2.3921,-2.3135,-2.257,-2.1342,0.0,-2.4381,-2.5218,-2.5904,0.0,-2.5732,-2.5972,0.0,0.0,0.0,0.0,0.0,0.0,0.0,0.0,0.0,0.0,0.0,0.0,0.0,0.0,0.0,0.0,0.0,0.0,0.0,0.0,0.0,0.0,0.0,0.0,0.0,0.0,0.0,0.0,-2.4584,-2.356,-2.3135,-2.3135,-2.3135,-2.3135,-2.3154,-2.3516,-2.3682,-2.3691,-2.4043,-2.4759,-2.5712,-2.5618,-2.6192,-2.7231,-2.7136,-2.79,-2.8993,-2.9151,-3.0002,-3.0992,-3.0742,-3.0578,-3.0474,-2.9984,-2.9459,-2.9026,-2.9669,-3.0048,-3.0499,-3.1251,-3.1971,-3.2633,-3.2716,-3.2727,-3.2727,-3.2727,-3.2727,-3.2727,-3.2727,-3.2727,-3.2727,-3.2727,-3.2727,-3.2727,-3.2727,-3.2727,-3.2727,-3.2727,-3.2727,-3.2727,-3.2727,-3.2727,-3.2727,-3.2727,-3.2527,-3.2514,-3.2685,-3.238,-3.2178,-3.2093,-3.1944,-3.183,-3.164,-2.9398,-2.7805,-2.6844,-2.5459,-2.471,-2.4599,-2.4144,-2.3809,-2.3585,-2.2562,-2.1995,0.0,0.0,-2.4168,0.0,-2.4658,-2.4625,0.0,0.0,0.0,0.0,0.0,0.0,0.0,0.0,0.0,0.0,0.0,0.0,0.0,0.0,0.0,0.0,0.0,0.0,0.0,0.0,0.0,0.0,0.0,0.0,0.0,0.0,0.0,0.0,0.0,0.0,-2.4713,-2.3637,-2.3135,-2.3135,-2.3135,-2.3135,-2.3135,-2.3193,-2.3223,-2.3232,-2.3281,-2.4029,-2.5229,-2.4779,-2.5628,-2.7136,-2.6774,-2.6941,-2.7606,-2.8416,-2.879,-2.9109,-2.9818,-2.9764,-2.9343,-2.9237,-2.8814,-2.8504,-2.9026,-2.9524,-3.0146,-3.1168,-3.1743,-3.2219,-3.2623,-3.2727,-3.2727,-3.2727,-3.2727,-3.2727,-3.2727,-3.2727,-3.2727,-3.2727,-3.2727,-3.2727,-3.2727,-3.2727,-3.2727,-3.2727,-3.2727,-3.2727,-3.2727,-3.2727,-3.2727,-3.2727,-3.2527,-3.2378,-3.2441,-3.2289,-3.2148,-3.1954,-3.1868,-3.183,-3.164,-2.9398,-2.8116,-2.8009,-2.5881,-2.459,-2.4033,-2.3921,-2.3352,-2.2335,-2.223,-2.1774,-2.1681,-2.2143,-2.2872,0.0,-2.4892,-2.4287,0.0,0.0,0.0,0.0,0.0,0.0,0.0,0.0,0.0,0.0,0.0,0.0,0.0,0.0,0.0,0.0,0.0,0.0,0.0,0.0,0.0,0.0,0.0,0.0,0.0,-2.9854,-2.8455,-2.685,-2.5142,0.0,-2.3887,-2.3387,-2.3135,-2.3135,-2.3135,-2.3135,-2.3135,-2.3135,-2.3135,-2.3135,-2.3135,-2.3712,-2.468,-2.4506,-2.5362,-2.6771,-2.6487,-2.7071,-2.7944,-2.835,-2.886,-2.9446,-2.9421,-2.9343,-2.9026,-2.8708,-2.8504,-2.8398,-2.892,-2.9635,-3.0368,-3.121,-3.1888,-3.2478,-3.2685,-3.2727,-3.2727,-3.2727,-3.2727,-3.2727,-3.2727,-3.2727,-3.2727,-3.2727,-3.2727,-3.2727,-3.2727,-3.2727,-3.2727,-3.2727,-3.2727,-3.2727,-3.2727,-3.2727,-3.2633,-3.258,-3.2364,-3.23,-3.23,-3.2093,-3.1955,-3.1963,-3.1952,-3.183,-3.164,-2.9398,-2.7999,-2.7659,-2.5432,-2.4144,-2.3921,-2.3239,-2.2562,-2.2108,-2.1774,-2.1432,0.0,0.0,-2.1594,-2.5192,-2.4558,-2.3632,0.0,0.0,0.0,0.0,0.0,0.0,0.0,0.0,0.0,0.0,0.0,0.0,0.0,0.0,0.0,0.0,0.0,0.0,0.0,0.0,0.0,0.0,0.0,0.0,0.0,-2.9808,-2.8244,-2.554,-2.5013,-2.4185,-2.3144,-2.3135,-2.3135,-2.3135,-2.3135,-2.3135,-2.3135,-2.3135,-2.3135,-2.3135,-2.3135,-2.3623,-2.4414,-2.4414,-2.5127,-2.623,-2.6348,-2.708,-2.7971,-2.8201,-2.8803,-2.9421,-2.8996,-2.892,-2.8814,-2.8398,-2.8291,-2.8398,-2.892,-2.9685,-3.0459,-3.123,-3.195,-3.2582,-3.2696,-3.2727,-3.2727,-3.2727,-3.2727,-3.2727,-3.2727,-3.2727,-3.2727,-3.2727,-3.2727,-3.2727,-3.2727,-3.2727,-3.2727,-3.2727,-3.2727,-3.2727,-3.2727,-3.2727,-3.2664,-3.2399,-3.2268,-3.221,-3.221,-3.1998,-3.1952,-3.1952,-3.1952,-3.1726,-3.1219,-2.9061,-2.7669,-2.6896,-2.465,-2.3464,-2.3464,-2.2562,-2.2002,-2.1888,-2.1439,-2.1211,0.0,-2.0409,0.0,-2.3096,0.0,0.0,0.0,0.0,0.0,0.0,0.0,0.0,0.0,0.0,0.0,0.0,0.0,0.0,0.0,0.0,0.0,0.0,0.0,0.0,0.0,0.0,0.0,0.0,0.0,0.0,-3.0545,-2.8601,-2.6737,-2.5254,-2.4138,-2.3396,-2.3144,-2.3135,-2.3135,-2.3135,-2.3135,-2.3135,-2.3135,-2.3135,-2.3135,-2.3135,-2.3135,-2.3623,-2.4414,-2.4414,-2.4951,-2.581,-2.623,-2.6416,-2.6653,-2.7467,-2.778,-2.7859,-2.8261,-2.8291,-2.8291,-2.8291,-2.8291,-2.8398,-2.892,-2.9397,-2.9997,-3.1148,-3.1712,-3.2178,-3.2613,-3.2727,-3.2727,-3.2727,-3.2727,-3.2727,-3.2727,-3.2727,-3.2727,-3.2727,-3.2727,-3.2727,-3.2727,-3.2727,-3.2727,-3.2727,-3.2727,-3.2727,-3.2727,-3.2727,-3.2664,-3.2399,-3.2268,-3.221,-3.221,-3.1998,-3.1952,-3.1952,-3.1952,-3.1295,-3.0047,-2.83,-2.6788,-2.5735,-2.3432,-2.223,-2.223,-2.2116,-2.1774,-2.1211,-2.1211,-2.1211,0.0,0.0,0.0,-2.1729,0.0,0.0,0.0,0.0,0.0,0.0,0.0,0.0,0.0,0.0,0.0,0.0,0.0,0.0,0.0,0.0,0.0,0.0,0.0,0.0,0.0,0.0,0.0,0.0,0.0,0.0,-3.0012,-2.738,-2.5705,-2.5249,-2.4466,-2.3797,-2.3144,-2.3135,-2.3135,-2.3135,-2.3135,-2.3135,-2.3135,-2.3135,-2.3135,-2.3135,-2.3135,-2.3623,-2.4414,-2.4414,-2.5107,-2.6201,-2.6621,-2.6963,-2.7275,-2.7851,-2.8066,-2.8086,-2.8242,-2.8291,-2.8291,-2.8291,-2.8291,-2.8398,-2.892,-2.9464,-3.0035,-3.1137,-3.1702,-3.2147,-3.2613,-3.2727,-3.2727,-3.2727,-3.2727,-3.2727,-3.2727,-3.2727,-3.2727,-3.2727,-3.2727,-3.2633,-3.2559,-3.2496,-3.2496,-3.2496,-3.2496,-3.2498,-3.2685,-3.2727,-3.2664,-3.2399,-3.2322,-3.2194,-3.203,-3.1932,-3.1812,-3.1706,-3.1363,-3.0632,-2.9357,-2.8426,-2.7239,-2.5599,-2.4735,-2.3656,-2.2116,-2.166,-2.1439,-2.1211,-2.1211,-2.1211,-1.8289,0.0,0.0,0.0,0.0,0.0,0.0,0.0,0.0,0.0,0.0,0.0,0.0,0.0,0.0,0.0,0.0,0.0,0.0,0.0,0.0,0.0,0.0,0.0,0.0,0.0,0.0,0.0,0.0,0.0,-2.9129,-2.6737,-2.5153,-2.4759,-2.4232,-2.3734,-2.3144,-2.3135,-2.3135,-2.3135,-2.3135,-2.3135,-2.3135,-2.3135,-2.3135,-2.3135,-2.3135,-2.3623,-2.4414,-2.4414,-2.5107,-2.6211,-2.6641,-2.6982,-2.7305,-2.7871,-2.8086,-2.8105,-2.8242,-2.8291,-2.8291,-2.8291,-2.8398,-2.8514,-2.892,-2.9449,-2.9921,-3.1096,-3.1588,-3.1961,-3.2571,-3.2727,-3.2727,-3.2727,-3.2727,-3.2727,-3.2727,-3.2727,-3.2727,-3.2727,-3.2727,-3.2695,-3.2431,-3.2358,-3.2358,-3.2358,-3.2358,-3.2413,-3.2664,-3.2727,-3.2664,-3.2399,-3.2322,-3.2205,-3.2019,-3.1932,-3.1801,-3.1685,-3.1238,-3.0308,-2.9051,-2.8319,-2.7248,-2.5599,-2.5388,-2.43,-2.2441,-2.1987,-2.1653,-2.1211,-2.1211,-2.1211,0.0,0.0,0.0,0.0,0.0,0.0,0.0,0.0,0.0,0.0,0.0,0.0,0.0,0.0,0.0,0.0,0.0,0.0,0.0,0.0,0.0,0.0,0.0,0.0,0.0,0.0,0.0,0.0,0.0,0.0,-2.8052,-2.6626,-2.5246,-2.3851,-2.3406,-2.3135,-2.3135,-2.3135,-2.3135,-2.3135,-2.3135,-2.3135,-2.3135,-2.3135,-2.3135,-2.3135,-2.3135,-2.3613,-2.4394,-2.4414,-2.4941,-2.5781,-2.6221,-2.6387,-2.6494,-2.7353,-2.7666,-2.7725,-2.8144,-2.8291,-2.8291,-2.8291,-2.8514,-2.8727,-2.9026,-2.9343,-2.9853,-3.0983,-3.136,-3.1588,-3.2499,-3.2727,-3.2727,-3.2727,-3.2727,-3.2727,-3.2727,-3.2727,-3.2727,-3.2727,-3.2727,-3.2685,-3.242,-3.2448,-3.2437,-3.2427,-3.2437,-3.2504,-3.2633,-3.2706,-3.2643,-3.2389,-3.2268,-3.2221,-3.2189,-3.2009,-3.1847,-3.1825,-3.1392,-3.0429,-2.9112,-2.7999,-2.6806,-2.5626,-2.5058,-2.4181,-2.2974,-2.2974,-2.2425,-2.1211,-2.1203,-2.1203,-1.7555,0.0,0.0,0.0,0.0,0.0,0.0,0.0,0.0,0.0,0.0,0.0,0.0,0.0,0.0,0.0,0.0,0.0,0.0,0.0,0.0,0.0,0.0,0.0,0.0,0.0,0.0,0.0,0.0,-2.6741,-2.7405,-2.6132,-2.5072,-2.4337,-2.3831,-2.3396,-2.3135,-2.3135,-2.3135,-2.3135,-2.3135,-2.3135,-2.3135,-2.3135,-2.3135,-2.3135,-2.3135,-2.3447,-2.3984,-2.4287,-2.4941,-2.5781,-2.6221,-2.6387,-2.6494,-2.7353,-2.7666,-2.7725,-2.8144,-2.8291,-2.8291,-2.8514,-2.8621,-2.8844,-2.9353,-2.9554,-2.9782,-3.0601,-3.1122,-3.1588,-3.2499,-3.2727,-3.2727,-3.2727,-3.2727,-3.2727,-3.2727,-3.2727,-3.2727,-3.2727,-3.2727,-3.2591,-3.2332,-3.2293,-3.2176,-3.2062,-3.2189,-3.2237,-3.2363,-3.2458,-3.2368,-3.2237,-3.2253,-3.2226,-3.1987,-3.1687,-3.1401,-3.1134,-3.016,-2.9126,-2.7892,-2.8028,-2.7051,-2.4948,-2.5626,-2.4965,-2.2974,-2.2974,-2.2425,-2.1203,-2.0969,-2.0984,-1.7949,-1.7659,-1.7429,0.0,0.0,0.0,0.0,-2.1108,0.0,0.0,0.0,0.0,0.0,0.0,0.0,0.0,0.0,0.0,0.0,0.0,0.0,0.0,0.0,0.0,0.0,0.0,0.0,0.0,-2.7184,-2.6165,-2.6648,-2.5695,-2.502,-2.4498,-2.4251,-2.3831,-2.3406,-2.3396,-2.3396,-2.3396,-2.3232,-2.3135,-2.3135,-2.3135,-2.3135,-2.3135,-2.3135,-2.3486,-2.4072,-2.4316,-2.4824,-2.5508,-2.5947,-2.6113,-2.6221,-2.708,-2.7393,-2.748,-2.8086,-2.8291,-2.8291,-2.8621,-2.8727,-2.893,-2.9448,-2.9659,-2.9867,-3.0553,-3.1019,-3.1505,-3.2033,-3.2292,-3.2303,-3.2303,-3.2468,-3.2727,-3.2727,-3.2727,-3.2727,-3.2727,-3.2727,-3.2612,-3.2296,-3.212,-3.2017,-3.2062,-3.1977,-3.1987,-3.1972,-3.2237,-3.2289,-3.2025,-3.1959,-3.179,-3.1572,-3.1061,-3.066,-3.0527,-2.9649,-2.8794,-2.8126,-2.8271,-2.7403,-2.5507,-2.6182,-2.5305,-2.2974,-2.2974,-2.2356,-2.1006,-2.0947,-2.0955,-1.8124,-1.8126,-1.8374,-1.9256,0.0,0.0,-1.9739,-2.2226,0.0,0.0,0.0,0.0,0.0,0.0,0.0,0.0,0.0,0.0,0.0,0.0,0.0,0.0,0.0,0.0,0.0,0.0,0.0,-2.7897,-2.7367,-2.6704,-2.5895,-2.5464,-2.502,-2.4498,-2.4498,-2.4251,-2.3841,-2.3754,-2.3754,-2.3754,-2.3309,-2.3135,-2.3135,-2.3135,-2.3135,-2.3135,-2.3135,-2.3564,-2.4277,-2.4375,-2.4707,-2.5176,-2.5586,-2.5742,-2.584,-2.6699,-2.7012,-2.7139,-2.7998,-2.8291,-2.8398,-2.8621,-2.893,-2.9237,-2.9554,-2.9774,-3.0087,-3.0618,-3.0957,-3.1309,-3.136,-3.154,-3.1808,-3.1818,-3.2179,-3.2633,-3.2716,-3.2623,-3.2633,-3.2592,-3.2613,-3.2602,-3.2406,-3.1976,-3.1801,-3.2061,-3.1732,-3.1529,-3.1803,-3.1996,-3.2007,-3.1748,-3.1304,-3.0967,-3.1021,-3.0379,-2.9941,-2.9889,-2.9353,-2.9026,-2.9026,-2.8504,-2.7736,-2.6527,-2.6191,-2.4974,-2.2757,-2.2757,-2.2053,-2.0786,-2.1035,-2.102,0.0,0.0,0.0,0.0,0.0,0.0,-1.7376,-1.8339,0.0,0.0,0.0,0.0,0.0,0.0,0.0,0.0,0.0,0.0,0.0,0.0,0.0,0.0,0.0,0.0,0.0,0.0,0.0,-2.6863,-2.6422,-2.6063,-2.5895,-2.5812,-2.538,-2.4498,-2.4498,-2.4251,-2.3841,-2.3396,-2.3396,-2.3754,-2.3309,-2.3135,-2.3135,-2.3135,-2.3135,-2.3135,-2.3135,-2.3232,-2.3437,-2.4131,-2.4893,-2.5615,-2.5703,-2.5742,-2.584,-2.6699,-2.7012,-2.7139,-2.7998,-2.8408,-2.8621,-2.893,-2.9237,-2.9554,-2.9879,-2.9994,-3.014,-3.0548,-3.0766,-3.0905,-3.1278,-3.1433,-3.1505,-3.1788,-3.1868,-3.2064,-3.2369,-3.2416,-3.2277,-3.1692,-3.202,-3.2343,-3.2052,-3.171,-3.1614,-3.1646,-3.1632,-3.1497,-3.1635,-3.1412,-3.1179,-3.0999,-3.0577,-3.0288,-3.0265,-2.9835,-2.9407,-2.9268,-2.8717,-2.8504,-2.8504,-2.8398,-2.7736,-2.6527,-2.4642,-2.2982,-2.1539,-2.1539,-2.1395,-2.1108,-2.0911,-2.0925,0.0,0.0,0.0,-1.8933,0.0,0.0,0.0,-1.8264,0.0,0.0,0.0,0.0,0.0,0.0,0.0,0.0,0.0,0.0,0.0,0.0,0.0,0.0,0.0,0.0,0.0,0.0,-2.6529,-2.6289,-2.6037,-2.5895,-2.5895,-2.5895,-2.5549,-2.485,-2.485,-2.4594,-2.4166,-2.3657,-2.358,-2.3754,-2.3309,-2.3135,-2.3135,-2.3135,-2.3135,-2.3135,-2.3135,-2.3262,-2.3516,-2.415,-2.4805,-2.543,-2.5644,-2.5869,-2.6143,-2.6777,-2.7148,-2.7432,-2.8182,-2.8621,-2.8727,-2.9248,-2.9448,-2.9659,-2.9889,-2.9994,-3.0005,-3.0287,-3.0317,-3.0398,-3.0626,-3.0704,-3.072,-3.0818,-3.0888,-3.1144,-3.173,-3.1485,-3.1134,-3.1395,-3.1293,-3.1158,-3.1148,-3.0919,-3.067,-3.0853,-3.0727,-3.0538,-3.062,-3.0601,-3.0443,-3.0193,-2.9853,-2.9576,-2.9584,-2.913,-2.8838,-2.8727,-2.8398,-2.8291,-2.8291,-2.7736,-2.6527,-2.4753,-2.2982,-2.1759,-2.1211,-2.1211,-2.1123,-2.0969,-2.0969,-2.0969,0.0,0.0,0.0,0.0,0.0,-1.8717,0.0,0.0,0.0,0.0,0.0,0.0,0.0,0.0,0.0,0.0,0.0,0.0,0.0,0.0,0.0,0.0,0.0,0.0,0.0,0.0,0.0,-2.5906,-2.5895,-2.5895,-2.5895,-2.5895,-2.5717,-2.52,-2.5105,-2.485,-2.4498,-2.3907,-2.3754,-2.3754,-2.3309,-2.3135,-2.3135,-2.3135,-2.3135,-2.3135,-2.3135,-2.334,-2.3701,-2.4209,-2.4619,-2.499,-2.5527,-2.5947,-2.6318,-2.6738,-2.7168,-2.7702,-2.8344,-2.8658,-2.894,-2.9459,-2.9659,-2.9774,-2.9889,-2.9994,-2.9994,-2.9994,-2.9994,-2.9994,-2.9994,-2.998,-2.9952,-2.9987,-2.9951,-3.0156,-3.0869,-3.0346,-2.9938,-3.0787,-3.0191,-2.9786,-3.0476,-3.0133,-2.988,-3.0084,-2.9884,-2.9659,-2.9659,-2.9774,-2.9774,-2.9554,-2.9132,-2.892,-2.892,-2.8504,-2.8291,-2.8291,-2.8291,-2.8291,-2.8291,-2.7187,-2.5415,-2.3095,-2.2093,-2.1432,-2.1211,-2.1145,-2.1013,-2.0823,-2.102,-2.0976,0.0,0.0,0.0,0.0,-1.9761,0.0,0.0,0.0,0.0,0.0,0.0,0.0,0.0,0.0,0.0,0.0,0.0,0.0,0.0,0.0,0.0,0.0,0.0,0.0,0.0,0.0,0.0,0.0,-2.5895,-2.5895,-2.5895,-2.5895,-2.5717,-2.52,-2.4765,-2.4584,-2.4498,-2.3647,-2.3406,-2.3754,-2.3309,-2.3135,-2.3135,-2.3135,-2.3135,-2.3135,-2.3135,-2.3164,-2.3271,-2.4082,-2.4443,-2.457,-2.541,-2.5762,-2.5859,-2.6299,-2.692,-2.7528,-2.7984,-2.8695,-2.9554,-2.9554,-2.9774,-2.9994,-2.9994,-2.9994,-2.9994,-2.9994,-2.9994,-2.9994,-2.9994,-3.0025,-3.0046,-3.0036,-2.9976,-2.9926,-2.9717,-2.955,-2.9339,-2.903,-2.8864,-2.9202,-3.0517,-3.0182,-2.9741,-2.9962,-2.9805,-2.9669,-2.9889,-2.9564,-2.9237,-2.9132,-2.8708,-2.8398,-2.8398,-2.8291,-2.8291,-2.8291,-2.8291,-2.8291,-2.8291,-2.7187,-2.5415,-2.3095,-2.2869,-2.232,-2.1211,-2.0918,-2.0911,-2.1152,-2.0896,-2.0757,0.0,0.0,0.0,0.0,0.0,0.0,-1.9798,0.0,-1.7085,0.0,0.0,0.0,0.0,0.0,0.0,0.0,0.0,0.0,0.0,0.0,0.0,0.0,0.0,0.0,0.0,0.0,0.0,0.0,0.0,-2.4491,-2.4639,-2.5437,-2.5812,-2.5633,-2.485,-2.4498,-2.4498,-2.356,-2.3222,-2.3396,-2.3232,-2.3135,-2.3135,-2.3135,-2.3135,-2.3135,-2.3135,-2.3135,-2.3203,-2.4062,-2.4506,-2.4697,-2.5572,-2.6064,-2.63,-2.6596,-2.7042,-2.7672,-2.8327,-2.8816,-2.9227,-2.9692,-2.9889,-2.9994,-2.9994,-2.9994,-2.9994,-2.9994,-2.9994,-2.9994,-2.9994,-2.9994,-2.9984,-3.0037,-2.9741,-2.9379,-2.9137,-2.8737,-2.8632,-2.8834,-2.8591,-2.8591,-2.9649,-2.9237,-2.893,-2.9036,-2.893,-2.893,-2.9036,-2.8824,-2.8611,-2.8611,-2.8398,-2.8291,-2.8291,-2.8291,-2.8291,-2.8291,-2.7628,-2.6636,-2.5305,-2.4538,-2.3427,-2.1979,-2.16,-2.1376,-2.1211,-2.0881,-2.0794,-2.0918,-2.0596,-2.0442,-2.133,0.0,0.0,0.0,0.0,0.0,0.0,0.0,0.0,0.0,0.0,0.0,0.0,0.0,0.0,-1.9297,0.0,0.0,0.0,0.0,0.0,0.0,0.0,0.0,0.0,0.0,0.0,0.0,-2.3199,0.0,-2.3656,-2.5109,-2.5895,-2.5728,-2.4935,-2.4413,-2.4337,-2.3474,-2.3135,-2.3135,-2.3135,-2.3135,-2.3135,-2.3135,-2.3135,-2.3135,-2.3222,-2.3135,-2.3203,-2.4163,-2.47,-2.4881,-2.5849,-2.6386,-2.6763,-2.6773,-2.7192,-2.7975,-2.8452,-2.8778,-2.9147,-2.9735,-2.9994,-2.9994,-2.9994,-2.9994,-2.9994,-2.9994,-2.9994,-2.9994,-2.9994,-2.9879,-2.9858,-2.9797,-2.9398,-2.8986,-2.8569,-2.8319,-2.8174,-2.8708,-2.8281,-2.8067,-2.8814,-2.8611,-2.8291,-2.8291,-2.8291,-2.8291,-2.8291,-2.8291,-2.8291,-2.8291,-2.8291,-2.8291,-2.8291,-2.8291,-2.8184,-2.7853,-2.7295,-2.5963,-2.3528,-2.3497,-2.3045,-2.1759,-2.1494,-2.1382,-2.1211,-2.1115,-2.0914,-2.0589,-2.0347,-2.0186,0.0,0.0,0.0,-2.1725,0.0,0.0,0.0,0.0,-1.8807,0.0,0.0,0.0,0.0,-1.9672,-1.9441,-1.9748,-1.9414,0.0,0.0,0.0,0.0,0.0,0.0,0.0,0.0,0.0,0.0,0.0,-2.2702,0.0,-2.3733,-2.5271,-2.5884,-2.5285,-2.4765,-2.4251,-2.3841,-2.3309,-2.3135,-2.3135,-2.3135,-2.3135,-2.3135,-2.3135,-2.3135,-2.3135,-2.3377,-2.3387,-2.3203,-2.4626,-2.4995,-2.4881,-2.6059,-2.6613,-2.6825,-2.6613,-2.7242,-2.8099,-2.7764,-2.8384,-2.933,-2.9808,-2.9994,-2.9994,-2.9994,-2.9994,-2.9994,-2.9994,-2.9994,-2.9994,-2.9994,-2.9754,-2.9408,-2.9227,-2.8996,-2.8764,-2.8048,-2.8067,-2.8184,-2.796,-2.796,-2.796,-2.8291,-2.8291,-2.8291,-2.8291,-2.8291,-2.8291,-2.8291,-2.8291,-2.8291,-2.8291,-2.8291,-2.8291,-2.8291,-2.8291,-2.7853,-2.6636,-2.7628,-2.7178,-2.4727,-2.5726,-2.5296,-2.2982,-2.4044,-2.3495,-2.1211,-2.1744,-2.131,-2.0252,-2.0237,-2.0069,0.0,0.0,-2.7607,-2.5548,0.0,0.0,0.0,0.0,0.0,0.0,0.0,0.0,0.0,-1.9695,-1.9488,-1.9056,-1.8951,-1.8619,0.0,0.0,0.0,0.0,0.0,0.0,0.0,0.0,0.0,-1.9879,-2.0331,0.0,0.0,-2.34,-2.4634,-2.4216,-2.4545,-2.4594,-2.4251,-2.3484,-2.3232,-2.3319,-2.3319,-2.3406,-2.358,-2.3406,-2.3406,-2.358,-2.3493,-2.3484,-2.365,-2.4726,-2.527,-2.5462,-2.6354,-2.689,-2.7167,-2.689,-2.7129,-2.7696,-2.8105,-2.8543,-2.894,-2.9415,-2.958,-2.9516,-2.9497,-2.9746,-2.9994,-2.9994,-2.9669,-2.9448,-2.9448,-2.9122,-2.889,-2.8804,-2.8698,-2.8485,-2.8174,-2.8067,-2.796,-2.796,-2.8067,-2.8184,-2.8291,-2.8291,-2.8291,-2.8291,-2.8291,-2.8291,-2.8291,-2.8291,-2.8291,-2.8291,-2.8291,-2.8291,-2.8291,-2.8291,-2.7745,-2.6527,-2.6853,-2.629,-2.4367,-2.4451,-2.3784,-2.2283,-2.2368,-2.1954,-2.0889,-2.0876,-2.0662,-2.0545,-2.012,-1.9747,-2.7745,-2.8976,0.0,0.0,-2.6879,0.0,-2.3904,0.0,0.0,0.0,0.0,0.0,0.0,0.0,-1.9883,-1.8937,-1.855,-1.8109,0.0,-1.706,0.0,0.0,0.0,0.0,0.0,0.0,-1.7852,-1.844,-1.8876,-1.9167,0.0,0.0,-2.405,-2.3579,-2.4548,-2.485,-2.4498,-2.3734,-2.3406,-2.359,-2.359,-2.3667,-2.3841,-2.3647,-2.3657,-2.3841,-2.3734,-2.3744,-2.3911,-2.4976,-2.5543,-2.5655,-2.6638,-2.7177,-2.7262,-2.7081,-2.727,-2.7603,-2.851,-2.8786,-2.8645,-2.9116,-2.9281,-2.9219,-2.9044,-2.9311,-2.9669,-2.9459,-2.9142,-2.8814,-2.891,-2.8804,-2.8591,-2.8591,-2.8398,-2.8291,-2.8184,-2.8067,-2.8067,-2.8067,-2.8184,-2.8291,-2.8291,-2.8291,-2.8291,-2.8291,-2.8291,-2.8291,-2.8291,-2.8291,-2.8291,-2.8291,-2.8164,-2.8066,-2.8066,-2.8203,-2.7745,-2.6527,-2.6527,-2.5793,-2.4187,-2.3939,-2.3344,-2.2299,-2.2265,-2.1905,-2.1072,-2.0935,-2.0831,-2.0706,-2.0271,-1.9963]},{"header":{"parameterUnit":"m.s-1","parameterCategory":1,"la1":30.6,"la2":29.2853,"lo1":-89.7004,"lo2":-87.6739,"dy":0.0162,"dx":0.0183,"nx":112,"ny":82,"refTime":"2023-07-13T12:00:00:Z","depth":0,"parameterNumber":3,"parameterNumberName":"V-component_of_WINDS"},"data":[0.0,0.0,0.0,0.0,0.0,0.0,0.0,0.0,0.0,0.0,0.0,0.0,0.0,0.0,0.0,0.0,0.0,0.0,0.0,0.0,0.0,0.0,0.0,0.0,0.0,0.0,0.0,0.0,0.0,0.0,0.0,0.0,0.0,0.0,0.0,0.0,0.0,0.0,0.0,0.0,0.0,0.0,0.0,0.0,0.0,0.0,0.0,0.0,0.0,0.0,0.0,0.0,0.0,0.0,0.0,0.0,0.0,0.0,0.0,0.0,0.0,0.0,0.0,0.0,0.0,0.0,0.0,0.0,0.0,0.0,0.0,0.0,0.0,0.0,0.0,0.0,0.0,0.0,0.0,0.0,0.0,0.0,0.0,0.0,0.0,0.0,0.0,0.0,0.0,0.0,0.0,-3.5624,-3.7341,-3.8112,-3.7574,-3.7867,-3.5683,-3.0122,0.0,0.0,0.0,0.0,0.0,0.0,0.0,0.0,0.0,0.0,0.0,0.0,0.0,0.0,0.0,0.0,0.0,0.0,0.0,0.0,0.0,0.0,0.0,0.0,0.0,0.0,0.0,0.0,0.0,0.0,0.0,0.0,0.0,0.0,0.0,0.0,0.0,0.0,0.0,0.0,0.0,0.0,0.0,0.0,0.0,0.0,0.0,0.0,0.0,0.0,0.0,0.0,0.0,0.0,0.0,0.0,0.0,0.0,0.0,0.0,0.0,0.0,0.0,0.0,0.0,0.0,0.0,0.0,0.0,0.0,0.0,0.0,0.0,0.0,0.0,0.0,0.0,0.0,0.0,0.0,0.0,0.0,0.0,0.0,0.0,0.0,0.0,0.0,0.0,0.0,0.0,0.0,0.0,0.0,0.0,0.0,0.0,0.0,0.0,0.0,0.0,0.0,0.0,0.0,-3.5263,-3.9833,-4.1234,-4.1392,-4.0397,-3.9788,-3.691,-3.097,0.0,0.0,0.0,0.0,0.0,0.0,0.0,0.0,0.0,0.0,0.0,0.0,0.0,0.0,0.0,0.0,0.0,0.0,0.0,0.0,0.0,0.0,0.0,0.0,0.0,0.0,0.0,0.0,0.0,0.0,0.0,0.0,0.0,0.0,0.0,0.0,0.0,0.0,0.0,0.0,0.0,0.0,0.0,0.0,0.0,0.0,0.0,0.0,0.0,0.0,0.0,0.0,0.0,0.0,0.0,0.0,0.0,0.0,0.0,0.0,0.0,0.0,0.0,0.0,0.0,0.0,0.0,0.0,0.0,0.0,0.0,0.0,0.0,0.0,0.0,0.0,0.0,0.0,0.0,0.0,0.0,0.0,0.0,0.0,0.0,0.0,0.0,0.0,0.0,0.0,0.0,0.0,0.0,0.0,0.0,0.0,0.0,0.0,0.0,0.0,0.0,0.0,0.0,-3.5601,-3.8968,-4.1784,-4.2438,-4.2267,-4.1261,-4.084,-3.7883,-3.1477,-3.1127,0.0,0.0,0.0,0.0,0.0,0.0,0.0,0.0,0.0,0.0,0.0,0.0,0.0,0.0,0.0,0.0,0.0,0.0,0.0,0.0,0.0,0.0,0.0,0.0,0.0,0.0,0.0,0.0,0.0,0.0,0.0,0.0,0.0,0.0,0.0,0.0,0.0,0.0,0.0,0.0,0.0,0.0,0.0,0.0,0.0,0.0,0.0,0.0,0.0,0.0,0.0,0.0,0.0,0.0,0.0,0.0,0.0,0.0,0.0,0.0,0.0,0.0,0.0,0.0,0.0,0.0,0.0,0.0,0.0,0.0,0.0,0.0,0.0,0.0,0.0,0.0,0.0,0.0,0.0,0.0,0.0,0.0,0.0,0.0,0.0,0.0,0.0,0.0,0.0,0.0,0.0,0.0,0.0,0.0,0.0,0.0,0.0,0.0,0.0,0.0,0.0,0.0,-3.8885,-4.1652,-4.2751,-4.2974,-4.2724,-4.172,-4.1519,-3.8606,-3.2003,-3.183,0.0,0.0,0.0,0.0,0.0,0.0,0.0,0.0,0.0,0.0,0.0,0.0,0.0,0.0,0.0,0.0,0.0,0.0,0.0,0.0,0.0,0.0,0.0,0.0,0.0,0.0,0.0,0.0,0.0,0.0,0.0,0.0,0.0,0.0,0.0,0.0,0.0,0.0,0.0,0.0,0.0,0.0,0.0,0.0,0.0,0.0,0.0,0.0,0.0,0.0,0.0,0.0,0.0,0.0,0.0,0.0,0.0,0.0,0.0,0.0,0.0,0.0,0.0,0.0,0.0,0.0,0.0,0.0,0.0,0.0,0.0,0.0,0.0,0.0,0.0,0.0,0.0,0.0,0.0,0.0,0.0,0.0,0.0,0.0,0.0,0.0,0.0,0.0,0.0,0.0,0.0,0.0,0.0,0.0,0.0,0.0,0.0,0.0,0.0,0.0,0.0,0.0,-3.8865,-4.1865,-4.3229,-4.3848,-4.3671,-4.2433,-4.1736,-3.8805,-3.2825,-3.2035,0.0,0.0,0.0,0.0,0.0,0.0,0.0,0.0,0.0,0.0,0.0,0.0,0.0,0.0,0.0,0.0,0.0,0.0,0.0,0.0,0.0,0.0,0.0,0.0,0.0,0.0,0.0,0.0,0.0,0.0,0.0,0.0,0.0,0.0,0.0,0.0,0.0,0.0,0.0,0.0,0.0,0.0,0.0,0.0,0.0,0.0,0.0,0.0,0.0,0.0,0.0,0.0,0.0,0.0,0.0,0.0,0.0,0.0,0.0,0.0,0.0,0.0,0.0,0.0,0.0,0.0,0.0,0.0,0.0,0.0,0.0,0.0,0.0,0.0,0.0,0.0,0.0,0.0,0.0,0.0,0.0,0.0,0.0,0.0,0.0,0.0,0.0,0.0,0.0,0.0,0.0,0.0,0.0,0.0,0.0,0.0,0.0,0.0,0.0,0.0,0.0,0.0,-3.9702,-4.3074,0.0,-4.4105,-4.4054,-4.2848,-4.2494,-3.9697,-3.3458,0.0,0.0,0.0,0.0,0.0,0.0,0.0,0.0,0.0,0.0,0.0,0.0,0.0,0.0,0.0,0.0,0.0,0.0,0.0,0.0,0.0,0.0,0.0,0.0,0.0,0.0,0.0,0.0,0.0,0.0,0.0,0.0,0.0,0.0,0.0,0.0,0.0,0.0,0.0,0.0,0.0,0.0,0.0,0.0,0.0,0.0,0.0,0.0,0.0,0.0,0.0,0.0,0.0,0.0,0.0,0.0,0.0,0.0,0.0,0.0,0.0,0.0,0.0,0.0,0.0,0.0,0.0,0.0,0.0,0.0,0.0,0.0,0.0,0.0,0.0,0.0,0.0,0.0,0.0,0.0,0.0,0.0,0.0,0.0,0.0,0.0,0.0,0.0,0.0,0.0,0.0,0.0,0.0,0.0,0.0,0.0,0.0,0.0,0.0,0.0,0.0,0.0,-3.5191,-4.0608,-4.4219,0.0,-4.429,-4.4228,-4.3039,-4.2537,-3.9761,-3.3966,0.0,0.0,0.0,0.0,0.0,0.0,0.0,0.0,0.0,0.0,0.0,0.0,0.0,0.0,0.0,0.0,0.0,0.0,0.0,0.0,0.0,0.0,0.0,0.0,0.0,0.0,0.0,0.0,0.0,0.0,0.0,0.0,0.0,0.0,0.0,0.0,0.0,0.0,0.0,0.0,0.0,0.0,0.0,0.0,0.0,0.0,0.0,0.0,0.0,0.0,0.0,0.0,0.0,0.0,0.0,0.0,0.0,0.0,0.0,0.0,0.0,0.0,0.0,0.0,0.0,0.0,0.0,0.0,0.0,0.0,0.0,0.0,0.0,0.0,0.0,0.0,0.0,0.0,0.0,0.0,0.0,0.0,0.0,0.0,0.0,0.0,0.0,0.0,0.0,0.0,0.0,0.0,0.0,0.0,0.0,0.0,0.0,0.0,0.0,0.0,0.0,0.0,-3.5857,-4.1526,-4.5285,-4.4678,-4.4623,-4.4192,-4.3202,-4.1684,-3.8869,0.0,0.0,0.0,0.0,0.0,0.0,0.0,0.0,0.0,0.0,0.0,0.0,0.0,0.0,0.0,0.0,0.0,0.0,0.0,0.0,0.0,0.0,0.0,0.0,0.0,0.0,0.0,0.0,0.0,0.0,0.0,0.0,0.0,0.0,0.0,0.0,0.0,0.0,0.0,0.0,0.0,0.0,0.0,0.0,0.0,0.0,0.0,0.0,0.0,0.0,0.0,0.0,0.0,0.0,0.0,0.0,0.0,0.0,0.0,0.0,0.0,0.0,0.0,0.0,0.0,0.0,0.0,0.0,0.0,0.0,0.0,0.0,0.0,0.0,0.0,0.0,0.0,0.0,0.0,0.0,0.0,0.0,0.0,0.0,0.0,0.0,0.0,0.0,0.0,0.0,0.0,0.0,0.0,0.0,0.0,0.0,0.0,0.0,0.0,0.0,0.0,0.0,0.0,-3.5744,-4.1478,-4.52,-4.4336,-4.4853,-4.4744,-4.3597,-4.3086,-4.0771,-3.5844,0.0,0.0,0.0,0.0,0.0,0.0,0.0,0.0,0.0,0.0,0.0,0.0,0.0,0.0,0.0,0.0,0.0,0.0,0.0,0.0,0.0,0.0,0.0,0.0,0.0,0.0,0.0,0.0,0.0,0.0,0.0,0.0,0.0,0.0,0.0,0.0,0.0,0.0,0.0,0.0,0.0,0.0,0.0,0.0,0.0,0.0,0.0,0.0,0.0,0.0,0.0,0.0,0.0,0.0,0.0,0.0,0.0,0.0,0.0,0.0,0.0,0.0,0.0,0.0,0.0,0.0,0.0,0.0,0.0,0.0,0.0,0.0,0.0,0.0,0.0,0.0,0.0,0.0,0.0,0.0,0.0,0.0,0.0,0.0,0.0,0.0,0.0,0.0,0.0,0.0,0.0,0.0,0.0,0.0,0.0,0.0,0.0,0.0,0.0,0.0,0.0,0.0,-3.6534,-4.2451,-4.6347,-4.5525,-4.5941,-4.5702,-4.4241,-4.3883,-4.1886,-3.75,0.0,0.0,0.0,0.0,0.0,0.0,0.0,0.0,0.0,0.0,0.0,0.0,0.0,0.0,0.0,0.0,0.0,0.0,0.0,0.0,0.0,0.0,0.0,0.0,0.0,0.0,0.0,0.0,0.0,0.0,0.0,0.0,0.0,0.0,0.0,0.0,0.0,0.0,0.0,0.0,0.0,0.0,0.0,0.0,0.0,0.0,0.0,0.0,0.0,0.0,0.0,0.0,0.0,0.0,0.0,0.0,0.0,0.0,0.0,0.0,0.0,0.0,0.0,0.0,0.0,0.0,0.0,0.0,0.0,0.0,0.0,0.0,0.0,0.0,0.0,0.0,0.0,0.0,0.0,0.0,0.0,0.0,0.0,0.0,0.0,0.0,0.0,0.0,0.0,0.0,0.0,0.0,0.0,0.0,0.0,0.0,0.0,0.0,0.0,0.0,0.0,0.0,-3.7831,-4.3952,-4.7979,-4.7533,-4.7466,-4.6702,-4.4912,-4.4228,-4.2535,-3.9209,0.0,0.0,0.0,0.0,0.0,0.0,0.0,0.0,0.0,0.0,0.0,0.0,0.0,0.0,0.0,0.0,0.0,0.0,0.0,0.0,0.0,0.0,0.0,0.0,0.0,0.0,0.0,0.0,0.0,0.0,0.0,0.0,0.0,0.0,0.0,0.0,0.0,0.0,0.0,0.0,0.0,0.0,0.0,0.0,0.0,0.0,0.0,0.0,0.0,0.0,0.0,0.0,0.0,0.0,0.0,0.0,0.0,0.0,0.0,0.0,-3.7841,0.0,0.0,0.0,0.0,0.0,0.0,0.0,0.0,0.0,0.0,0.0,0.0,0.0,0.0,0.0,0.0,0.0,0.0,0.0,0.0,0.0,0.0,0.0,0.0,0.0,0.0,0.0,0.0,0.0,0.0,0.0,0.0,0.0,0.0,0.0,0.0,0.0,0.0,0.0,0.0,0.0,-3.8104,-4.3525,-4.7229,-4.7119,-4.7119,-4.6548,-4.5229,-4.5036,-4.3593,-4.0397,0.0,0.0,0.0,0.0,0.0,0.0,0.0,0.0,0.0,0.0,0.0,0.0,0.0,0.0,0.0,0.0,0.0,0.0,0.0,0.0,0.0,0.0,0.0,0.0,0.0,0.0,0.0,0.0,0.0,0.0,0.0,0.0,0.0,0.0,0.0,0.0,0.0,0.0,0.0,0.0,0.0,0.0,0.0,0.0,0.0,0.0,0.0,0.0,0.0,0.0,0.0,0.0,0.0,0.0,0.0,0.0,0.0,0.0,0.0,0.0,0.0,-3.9504,0.0,0.0,0.0,0.0,0.0,0.0,0.0,0.0,0.0,0.0,0.0,0.0,0.0,0.0,0.0,0.0,0.0,0.0,0.0,0.0,0.0,0.0,0.0,0.0,0.0,0.0,0.0,0.0,0.0,0.0,0.0,0.0,0.0,0.0,0.0,0.0,0.0,0.0,0.0,0.0,-3.869,-4.4272,-4.8122,-4.8122,-4.7783,-4.7137,-4.5947,-4.5511,-4.4506,-4.2691,-4.0306,0.0,0.0,0.0,0.0,0.0,0.0,0.0,0.0,0.0,0.0,0.0,0.0,0.0,0.0,0.0,0.0,0.0,0.0,0.0,0.0,0.0,0.0,0.0,0.0,0.0,0.0,0.0,0.0,0.0,0.0,0.0,0.0,0.0,0.0,0.0,0.0,0.0,0.0,0.0,0.0,0.0,0.0,0.0,0.0,0.0,0.0,0.0,0.0,0.0,0.0,0.0,0.0,0.0,0.0,0.0,-4.2612,-4.2953,-4.31,-4.3185,-4.4306,-4.4391,-4.356,0.0,0.0,0.0,0.0,0.0,0.0,0.0,0.0,0.0,0.0,0.0,0.0,0.0,0.0,0.0,0.0,0.0,0.0,0.0,0.0,0.0,0.0,0.0,0.0,0.0,-4.2226,-4.2139,0.0,0.0,0.0,0.0,0.0,0.0,0.0,0.0,0.0,0.0,0.0,0.0,-3.9353,-4.5107,-4.9174,-4.9299,-4.8514,-4.76,-4.669,-4.5959,-4.5299,-4.4771,-4.2033,-4.0126,0.0,0.0,0.0,0.0,0.0,0.0,0.0,0.0,0.0,0.0,0.0,0.0,0.0,0.0,0.0,0.0,0.0,0.0,0.0,0.0,0.0,0.0,0.0,0.0,0.0,0.0,0.0,0.0,0.0,0.0,0.0,0.0,-2.9139,-3.1603,0.0,0.0,0.0,0.0,0.0,0.0,0.0,0.0,0.0,0.0,0.0,0.0,0.0,0.0,-3.8732,-4.2427,-4.4075,-4.3652,-4.7991,-4.938,-4.8161,-4.9083,-4.9402,-4.916,-4.7454,0.0,-4.4665,-4.3775,0.0,0.0,0.0,0.0,0.0,0.0,0.0,0.0,0.0,0.0,0.0,0.0,0.0,0.0,0.0,0.0,0.0,0.0,0.0,0.0,0.0,0.0,-4.6536,-4.5874,-4.5764,-4.5982,0.0,-4.1807,-3.7953,-3.9843,0.0,0.0,0.0,0.0,0.0,0.0,0.0,0.0,-3.9651,-4.4839,-4.8586,-4.9246,-4.8015,-4.7013,-4.6637,-4.6484,-4.6053,-4.5098,-4.4387,-4.2749,-3.9859,-4.0468,0.0,0.0,0.0,0.0,0.0,0.0,0.0,0.0,0.0,0.0,0.0,0.0,0.0,0.0,0.0,0.0,0.0,0.0,0.0,0.0,0.0,0.0,0.0,0.0,0.0,0.0,0.0,0.0,0.0,-2.7734,-3.1113,-3.4143,-3.4252,-3.3463,0.0,0.0,0.0,0.0,0.0,0.0,0.0,0.0,0.0,-4.0021,-4.1491,-4.2614,-4.3346,-4.6415,-4.799,-4.8089,-5.0486,-5.1292,-5.0745,-5.1134,-5.1303,-5.1195,-5.0222,-4.9184,-4.797,-4.5847,-4.4339,-4.318,0.0,0.0,0.0,0.0,0.0,0.0,-4.0247,0.0,0.0,0.0,0.0,0.0,0.0,0.0,0.0,0.0,0.0,0.0,0.0,0.0,0.0,-4.6967,-4.795,-4.8838,-4.8728,-4.564,-4.2881,0.0,-3.9946,-3.6415,-3.346,0.0,0.0,0.0,0.0,0.0,-4.2365,-4.6605,-4.9442,-4.9335,-4.8318,-4.7415,-4.6877,-4.6294,-4.5988,-4.5935,-4.4869,-4.3738,-4.2623,-4.267,-4.0991,0.0,0.0,0.0,0.0,0.0,0.0,0.0,0.0,0.0,0.0,0.0,0.0,0.0,0.0,0.0,0.0,0.0,0.0,0.0,0.0,0.0,0.0,0.0,0.0,0.0,0.0,0.0,0.0,-3.025,-3.2967,-3.6592,-3.6329,-3.5384,0.0,0.0,0.0,0.0,0.0,0.0,-3.9421,-4.057,-4.1894,-4.3464,-4.5648,-4.6896,-4.7171,-4.9381,-5.0539,-5.0675,-5.1739,-5.2132,-5.1912,-5.2071,-5.2184,-5.2212,-5.178,-5.1367,-5.0804,-4.8101,-4.6258,-4.5018,-4.3915,-4.2239,0.0,-4.0555,-4.1165,-4.2063,-4.2878,-4.3759,-4.448,-4.4581,0.0,-4.1104,-4.0833,0.0,0.0,0.0,0.0,-4.1973,-4.4512,0.0,-4.7122,-4.8092,-4.9733,-5.0844,-4.999,-4.8547,-4.7097,0.0,-4.3469,-4.0104,-3.6291,0.0,0.0,0.0,0.0,-4.3669,-4.4777,-4.8193,-5.0191,-4.9406,-4.8639,-4.7854,-4.7051,-4.6308,-4.6127,-4.6649,-4.5205,-4.4478,-4.4931,-4.402,-4.2225,-3.952,0.0,0.0,0.0,0.0,0.0,0.0,0.0,0.0,0.0,0.0,0.0,0.0,0.0,0.0,0.0,0.0,0.0,0.0,0.0,0.0,0.0,0.0,0.0,0.0,0.0,0.0,0.0,0.0,0.0,-3.9046,-4.1166,0.0,0.0,0.0,0.0,-3.6515,-3.753,-3.9537,-4.2598,-4.4322,-4.6282,-4.8658,-4.9717,-4.9745,-4.8713,-5.038,-5.0753,-4.9797,-5.2256,-5.2874,-5.1931,-5.2738,-5.3113,-5.3038,-5.1442,-5.1161,-5.178,-5.0823,-4.9877,-4.8814,-4.6857,-4.5971,-4.5542,-4.4044,-4.4402,-4.5714,-4.6186,-4.6801,-4.7409,-4.7409,-4.5203,-4.2286,-4.0647,-4.0097,0.0,0.0,-4.2723,-4.5287,-4.6758,-4.8783,-5.0456,-5.051,-5.1287,-5.1766,-5.0844,-4.9493,-4.8765,0.0,-4.7658,-4.4876,-4.2838,0.0,0.0,-3.8488,-4.1435,-4.4448,-4.5579,-4.8532,-5.0191,-4.9406,-4.8639,-4.7854,-4.7051,-4.6944,-4.6944,-4.698,-4.5968,-4.5368,-4.5559,-4.3559,-4.2562,-4.266,-3.9434,0.0,0.0,0.0,0.0,0.0,0.0,0.0,0.0,0.0,0.0,0.0,0.0,0.0,0.0,0.0,0.0,0.0,0.0,0.0,0.0,0.0,0.0,0.0,0.0,0.0,0.0,0.0,0.0,-3.88,-3.9783,0.0,0.0,-4.1159,-4.1329,-4.1548,-4.2796,-4.4296,-4.5932,-4.7164,-4.822,-4.9137,-5.0412,-5.1046,-5.0988,-5.218,-5.2513,-5.2027,-5.2925,-5.3176,-5.2803,-5.3137,-5.3536,-5.3939,-5.3339,-5.2625,-5.1874,-5.1593,-5.0641,-4.9352,-4.8552,-4.8166,-4.801,-4.74,-4.7448,-4.7826,-4.7737,-4.7659,-4.7416,-4.6337,-4.5458,-4.4743,-4.4384,-4.4208,-4.4554,-4.6482,-4.7137,-4.7593,-4.9103,-5.0079,-5.0574,-5.0061,-5.0932,-5.1625,-5.0771,-5.0557,-5.07,-5.1155,-4.8758,-4.6096,-4.4333,-4.533,-4.5294,-4.2121,-4.4947,-4.7767,-4.8728,-5.0263,-5.0959,-5.0174,-4.9834,-4.9156,-4.7854,-4.7283,-4.6766,-4.6266,-4.5374,-4.4751,-4.4541,-4.3937,-4.3272,-4.2579,-4.135,-3.8622,0.0,0.0,0.0,0.0,0.0,0.0,0.0,0.0,0.0,0.0,0.0,0.0,0.0,0.0,0.0,0.0,0.0,0.0,0.0,0.0,0.0,0.0,0.0,0.0,0.0,0.0,-3.5105,-3.9329,-4.0178,-4.1121,-4.2996,-4.3314,-4.3881,-4.5009,-4.6114,-4.711,-4.7999,-4.8869,-4.9637,-5.0221,-5.1459,-5.2132,-5.2137,-5.3293,-5.3546,-5.2887,-5.3419,-5.3682,-5.3682,-5.3682,-5.3649,-5.3579,-5.3564,-5.2625,-5.1118,-5.1086,-5.0466,-4.949,-4.9409,-4.9308,-4.9211,-4.9164,-4.9064,-4.8874,-4.8269,-4.7856,-4.7331,-4.5847,-4.5621,-4.6023,-4.635,-4.6575,-4.7152,-4.9185,-4.9448,-4.937,-5.041,-5.0887,-5.0937,-5.041,-5.1048,-5.1547,-5.103,-5.049,-5.0449,-5.1476,-5.0044,-4.7982,-4.5766,-4.673,-4.6801,-4.3946,-4.5695,-4.764,-4.8425,-4.9692,-5.0209,-4.9406,-5.0031,-4.987,-4.83,-4.673,-4.5927,-4.6195,-4.4464,-4.3782,-4.4516,-4.3332,-4.2264,-4.1443,-4.0008,-3.7464,-3.3731,0.0,0.0,0.0,0.0,0.0,0.0,0.0,0.0,0.0,0.0,0.0,0.0,0.0,0.0,0.0,0.0,0.0,0.0,0.0,0.0,0.0,0.0,0.0,-2.9041,-3.4395,-3.9008,-4.0949,-4.2948,-4.4673,-4.5972,-4.5714,-4.5847,-4.6712,-4.7052,-4.7666,-4.865,-4.9442,-5.057,-5.2096,-5.2968,-5.2927,-5.1908,-5.3522,-5.356,-5.197,-5.3541,-5.4296,-5.4315,-5.4334,-5.3485,-5.2027,-5.1963,-5.1061,-4.9619,-4.9577,-4.9527,-4.949,-4.9509,-4.9409,-4.9308,-4.9308,-4.9197,-4.8927,-4.7901,-4.7572,-4.736,-4.6186,-4.5821,-4.5871,-4.6207,-4.6783,-4.7548,-4.8087,-4.9329,-5.0521,-5.0664,-5.1169,-5.169,-5.1883,-5.1812,-5.169,-5.1708,-4.9299,-4.8066,-5.1115,-5.169,-5.0709,-4.764,-4.7122,-4.6373,-4.4071,-4.375,0.0,-4.4749,-4.6855,-4.7997,-4.7212,-4.9121,-4.9834,-4.8336,-4.532,-4.4482,-4.6766,-4.3304,-4.2537,-4.557,-4.1782,-3.9594,-3.9594,-3.5503,-3.4497,-3.6808,0.0,0.0,0.0,0.0,0.0,0.0,0.0,0.0,0.0,0.0,0.0,0.0,0.0,0.0,0.0,0.0,0.0,0.0,0.0,0.0,0.0,0.0,-3.3973,-3.4027,-3.6236,-3.9101,-4.2453,-4.4122,-4.535,-4.6184,-4.6739,-4.7396,-4.823,-4.807,-4.8306,-4.9155,-4.9045,-4.8884,-4.8764,-5.0601,-5.09,-4.9408,-5.2145,-5.2747,-5.1198,-5.1607,-5.2153,-5.2818,-5.2685,-5.2747,-5.2865,-5.2746,-5.1776,-5.0327,-5.0193,-4.9805,-4.9313,-4.9459,-4.9377,-4.9211,-4.9211,-4.8925,-4.8384,-4.7204,-4.6916,-4.6999,-4.6301,-4.6073,-4.6332,-4.7773,-4.7978,-4.7975,-4.9452,-4.974,-4.9818,-5.048,-5.0825,-5.1182,-5.1871,-5.1925,-5.184,-5.1847,-5.1079,-5.0651,-5.1512,-5.169,-5.1226,-4.9799,-5.0013,-4.9995,-4.8764,0.0,0.0,-4.9727,-5.0316,-5.0637,-5.0423,-4.9442,-4.8871,-4.8996,-4.5624,-4.4018,0.0,-4.3665,-4.2797,-4.2959,-4.2516,-4.2164,-4.1974,-3.8783,-3.7218,0.0,0.0,0.0,0.0,0.0,0.0,0.0,0.0,0.0,0.0,0.0,0.0,0.0,0.0,0.0,0.0,0.0,0.0,0.0,0.0,0.0,0.0,-3.1766,-3.6656,-3.77,-3.9316,-4.1446,-4.4352,-4.5312,-4.62,-4.7408,-4.7622,-4.8036,-4.8834,-4.8642,-4.8709,-4.9246,-4.901,-4.8513,-4.7756,-4.9757,-5.0067,-4.8419,-5.1256,-5.2083,-5.0877,-5.1513,-5.1895,-5.2059,-5.2384,-5.2221,0.0,-5.1935,-5.1115,-4.9665,-4.9907,-4.9725,0.0,0.0,0.0,0.0,0.0,-4.8785,-4.8139,-4.7193,-4.6834,-4.6778,-4.654,-4.6479,-4.6807,-4.8423,-4.7837,-4.6931,-4.8264,-4.7821,-4.7366,-4.89,-4.9502,-5.008,-5.17,-5.1933,-5.1831,-5.1794,-5.072,-5.0122,-5.1426,0.0,0.0,-5.0852,-5.0566,-4.9727,-4.8264,-4.8443,-4.8728,0.0,-4.9603,-5.0209,-5.0209,-4.987,-4.9567,-4.9335,-4.6034,0.0,0.0,0.0,-4.2121,-4.1474,-4.1941,0.0,0.0,0.0,-3.7285,0.0,0.0,0.0,0.0,-3.4641,-3.3363,0.0,0.0,0.0,0.0,0.0,0.0,0.0,0.0,0.0,0.0,0.0,0.0,0.0,0.0,0.0,0.0,-3.3284,-3.7797,-4.0342,-4.2836,-4.4819,-4.6038,-4.6266,-4.7054,-4.8784,-4.8218,-4.8094,-4.8853,-4.8909,-4.8962,-4.9068,0.0,0.0,0.0,0.0,-5.0086,-4.8589,-5.0847,-5.1626,-5.0816,-5.2164,-5.2419,-5.1799,-5.255,-5.1737,-4.9751,-5.0422,-4.9821,-4.8472,-4.9171,-4.9409,-4.9276,-4.9211,-4.9197,-4.9164,-4.8971,-4.8621,0.0,0.0,0.0,0.0,-4.6968,-4.7038,-4.7335,-4.85,-4.7336,-4.5746,-4.6347,-4.5638,-4.5176,-4.7215,-4.825,-4.9297,-5.1563,-5.1892,-5.1736,-5.1705,-4.9525,-4.8388,-5.1144,-4.9424,-4.8407,-5.1208,-4.9959,-4.7854,-4.5731,-4.541,0.0,-4.541,-4.7265,-4.8568,-4.8568,0.0,0.0,-4.9549,-4.648,-4.4999,-4.5873,-4.3054,-4.1332,-4.1233,-4.1055,-3.961,-3.6693,-3.6141,-3.6746,-3.8549,-3.7544,-3.8346,-4.0655,-3.5844,-3.4691,0.0,0.0,0.0,0.0,0.0,0.0,0.0,0.0,0.0,0.0,0.0,0.0,0.0,0.0,0.0,-3.3017,-3.7175,-4.0628,-4.2217,-4.467,-4.6065,-4.5535,-4.6584,-4.7357,-4.7419,-4.7885,-4.8403,-4.8855,-4.8909,-4.8909,-4.8962,-4.864,0.0,-4.8273,-5.008,-5.0572,-4.9616,-5.1247,-5.1676,-5.087,0.0,0.0,-5.1011,-5.1118,-5.0948,-5.0498,-5.059,-5.0033,-4.9096,-4.922,-4.923,-4.9211,-4.923,-4.9183,-4.9008,-4.8007,-4.7923,-4.8153,-4.7335,-4.7301,-4.7612,-4.7927,-4.7962,-4.8101,-4.9327,-4.9342,0.0,-4.9488,-4.9901,-5.0151,-5.0056,-5.0653,-5.1364,-5.1951,-5.1982,-5.1861,-5.1879,-5.1301,-5.0984,-5.1601,-5.1208,-5.0976,-5.1583,-5.1315,-5.0852,-5.0388,-5.0334,-5.0334,-5.0334,-5.0727,-5.1012,-5.1012,-4.9727,-4.9246,-5.0191,-4.6783,-4.5231,-4.6676,-4.4428,-4.3237,-4.3748,-4.2625,-4.1949,-4.1835,-4.1735,-4.1576,-4.1398,-4.1307,-4.0953,-4.0356,-3.9234,-3.8894,0.0,0.0,0.0,0.0,0.0,0.0,0.0,0.0,0.0,0.0,0.0,-2.6396,0.0,0.0,-3.2471,-3.4107,-3.8144,-4.1531,-4.2858,-4.5477,-4.6932,-4.6145,-4.7015,-4.7618,-4.7396,-4.7738,-4.8017,-4.8233,-4.8251,-4.8454,-4.8897,-4.8579,-4.8455,-4.8621,-4.9877,-5.0216,-4.9469,-5.0299,-5.0484,-5.0056,-4.9544,-4.9304,-4.9303,-4.9712,-4.9675,-4.9286,-4.9517,-4.9344,-4.8952,-4.9127,-4.9211,-4.9211,-4.8906,-4.8767,-4.8658,-4.8053,-4.7926,-4.8034,-4.7607,-4.7731,-4.8113,-4.8538,-4.8709,-4.8903,-5.0013,-4.9538,-4.9021,-5.0766,-4.9823,-4.8476,-4.9328,-4.9829,-5.042,-5.1687,-5.192,-5.1786,-5.1794,-5.1744,-5.169,-5.169,-5.169,-5.169,-5.169,-5.169,-5.169,-5.169,-5.169,-5.169,-5.169,-5.169,-5.169,-5.169,-5.0637,-5.0084,-5.0477,-4.7979,-4.6569,-4.6962,-4.5517,-4.4795,-4.5036,-4.3978,-4.3711,-4.4361,-4.3677,-4.3103,-4.2765,-4.2261,-4.183,-4.1474,-4.0686,-4.0349,0.0,0.0,0.0,0.0,0.0,0.0,0.0,0.0,-2.5942,-2.5911,-2.7061,-2.8182,-2.8533,-3.1157,-3.377,-3.5316,-3.8772,-4.1893,-4.3406,-4.5977,-4.7444,-4.6636,-4.7329,-4.7829,-4.7814,-4.7689,-4.7698,-4.7826,-4.7808,-4.8079,-4.8781,-4.8833,-4.8846,-4.8915,-5.008,-5.0356,-4.9536,-4.9712,-4.9698,-4.9409,-4.9222,-4.8671,-4.7846,-4.8502,-4.8448,-4.7809,-4.8254,-4.8458,-4.8458,-4.8781,-4.8956,-4.8971,-4.844,-4.8306,-4.8375,-4.8294,-4.8132,-4.7968,-4.8192,-4.8358,-4.8626,-4.9194,-4.9437,-4.9635,-5.0396,-4.9416,-4.8529,-5.1197,-4.9171,-4.6649,-4.8557,-4.8994,-4.946,-5.1405,-5.1772,-5.169,-5.169,-5.169,-5.169,-5.169,-5.169,-5.169,-5.169,-5.169,-5.169,-5.169,-5.169,-5.169,-5.169,-5.169,-5.169,-5.169,-5.169,-5.1369,-5.0584,-4.9353,-4.8229,-4.7283,-4.648,-4.5918,-4.5668,-4.4938,-4.4769,-4.522,-4.4121,-4.35,-4.3412,-4.2547,-4.2334,-4.2777,-4.1604,-4.0967,-2.1748,-1.9713,-1.9477,-2.1224,-2.2678,-2.3976,0.0,0.0,-2.9068,-2.9663,-3.0516,-3.2058,-3.483,-3.548,-3.677,-4.0307,-4.1575,-4.2796,-4.4866,-4.6628,-4.7237,-4.5875,-4.7002,-4.7893,-4.7819,-4.7856,-4.8082,-4.8537,-4.8475,-4.8449,-4.854,-4.9471,-4.9679,-4.8944,-5.1511,-5.2444,-5.14,-5.1547,-5.1173,-5.0255,-4.9519,-4.8711,-4.7809,-4.7919,-4.7901,-4.7809,-4.7849,-4.7907,-4.7889,-4.7947,-4.7947,-4.7947,-4.7824,-4.7971,-4.821,-4.821,-4.8136,-4.8224,-4.9199,-4.9433,-4.9483,-5.018,-5.0335,-5.0192,-5.0099,-5.0101,-5.0312,-5.1444,-5.1347,-5.1008,-5.1276,-5.1347,-5.1419,-5.1669,-5.169,-5.169,-5.169,-5.169,-5.169,-5.169,-5.169,-5.169,-5.169,-5.169,-5.169,-5.169,-5.169,-5.169,-5.169,-5.169,-5.169,-5.169,-5.169,-5.1369,-5.0584,-5.0334,-4.962,-4.8139,-4.7301,-4.6534,-4.5793,-4.4991,-4.4617,-4.4706,-4.4528,-4.4263,-4.381,-4.3722,-4.3471,-4.3121,-4.2999,-4.2412,-2.2953,-2.2609,-2.3072,0.0,-2.5834,-2.7326,-2.757,-2.9054,-3.0569,-3.1074,-3.235,-3.3857,-3.5734,-3.6506,-3.803,0.0,-4.2192,-4.3098,-4.5338,-4.6532,-4.6982,-4.65,-4.589,-4.5533,-4.5552,-4.68,-4.7369,-4.6692,-4.7429,-4.8093,-4.8651,-4.8434,-4.881,-5.0035,-5.0791,-5.1442,-5.2032,-5.1339,-5.0515,-4.9557,-4.8675,-4.7778,-4.6855,-4.6855,-4.7017,-4.7331,-4.7331,-4.75,-4.7787,-4.7765,-4.7747,-4.7787,-4.7367,-4.7608,-4.8217,-4.8179,-4.8502,-4.9109,-4.9556,-4.9942,-5.0344,-5.0552,-5.053,-5.0422,-5.0285,-5.0431,-5.0787,-5.1475,-5.1647,-5.1607,-5.169,-5.169,-5.169,-5.169,-5.169,-5.169,-5.169,-5.169,-5.169,-5.169,-5.169,-5.169,-5.169,-5.169,-5.1901,-5.2448,-5.2044,-5.169,-5.169,-5.169,-5.169,-5.169,-5.169,-5.1547,-5.1226,-5.1191,-5.0727,-4.9603,-4.8782,-4.7997,-4.7212,-4.5963,-4.5302,-4.5302,-4.4856,-4.4493,-4.4261,-4.4261,-4.4294,-4.4402,-4.3798,-4.3458,-2.3472,-2.4106,0.0,-2.6296,-2.799,-2.9413,-2.9528,-3.0461,-3.1543,-3.2041,-3.3365,-3.4793,-3.5789,-3.7002,-3.8774,-4.1557,-4.2428,-4.3486,-4.5493,-4.6413,-4.6604,-4.5855,-4.4642,-4.3384,-4.2176,-4.4741,-4.6376,-4.6143,-4.6871,-4.7731,-4.8606,-4.7829,-4.8182,-4.9894,-5.0091,-5.0623,-5.1694,-5.0776,-4.9906,-4.8944,-4.8116,-4.7192,-4.627,-4.6221,-4.6429,-4.6781,-4.6781,-4.6972,-4.7331,-4.7324,-4.7306,-4.7306,-4.689,-4.7329,-4.8295,-4.8253,-4.8826,-4.9714,-4.9943,-5.0399,-5.0891,-5.0729,-5.0657,-5.0657,-5.0547,-5.0659,-5.0893,-5.1423,-5.1562,-5.1556,-5.169,-5.169,-5.169,-5.169,-5.169,-5.169,-5.169,-5.169,-5.169,-5.169,-5.169,-5.1762,-5.2026,-5.2062,-5.238,-5.3319,-5.291,-5.2452,-5.2401,-5.2205,-5.2029,-5.2029,-5.1815,-5.169,-5.169,-5.169,-5.1351,-5.0548,-4.9959,-4.921,-4.8211,-4.7069,-4.6355,-4.6141,-4.5508,-4.5152,-4.5098,-4.5035,-4.5209,-4.5499,-4.4724,-4.4528,-2.2593,0.0,-2.2641,-2.6533,-2.7857,-2.8672,-3.031,-3.1355,-3.2249,-3.2975,-3.3808,-3.4771,-3.6179,-3.7593,-3.9138,-4.1253,-4.2782,-4.4181,-4.558,-4.6517,-4.5908,-4.2992,-4.3425,-4.2282,0.0,-4.1498,-4.5304,-4.8187,-4.7681,-4.7508,-4.8277,-4.8434,-4.8221,-4.7535,-5.0042,-5.101,-5.0163,-5.0396,-4.9955,-4.8891,-4.8263,-4.7434,-4.6398,-4.627,-4.6221,-4.6221,-4.6221,-4.6221,-4.627,-4.627,-4.627,-4.627,-4.6221,-4.7151,-4.8486,-4.8486,-4.8995,-4.9802,-5.0575,-5.0873,-5.0891,-5.0891,-5.0891,-5.0873,-5.0875,-5.0823,-5.0875,-5.1207,-5.1485,-5.169,-5.169,-5.169,-5.169,-5.169,-5.169,-5.169,-5.169,-5.169,-5.169,-5.169,-5.169,-5.199,-5.2892,-5.3086,-5.3354,-5.4331,-5.4421,-5.4371,-5.4217,-5.3435,-5.2832,-5.2832,-5.2154,-5.169,-5.169,-5.169,-5.1351,-5.0548,-5.0477,-4.9781,-4.8247,-4.8122,-4.7747,-4.6962,-4.6835,-4.6678,-4.6519,-4.6424,-4.628,-4.6186,-4.6168,-4.56,-2.2542,0.0,-2.5595,-2.7528,-2.8477,-2.9385,-3.1223,-3.2003,-3.2652,-3.3994,-3.3878,-3.3894,-3.5216,-3.5488,-3.6603,-3.9873,-4.0712,-4.2123,-4.5588,-4.4646,-4.3986,-4.497,-4.3253,0.0,0.0,0.0,0.0,-4.418,-4.6112,-4.7662,-4.8364,-4.8047,-4.8186,-4.9044,-5.0026,-5.0462,-5.0229,-5.0396,-4.9755,-4.8263,-4.7386,-4.6711,-4.627,-4.6221,-4.6172,-4.6172,-4.6172,-4.6172,-4.6172,-4.6172,-4.6172,-4.6172,-4.6172,-4.7169,-4.8521,-4.8521,-4.9346,-5.0522,-5.0803,-5.0891,-5.0891,-5.0891,-5.0891,-5.0891,-5.0871,-5.091,-5.0982,-5.1423,-5.1526,-5.1554,-5.169,-5.169,-5.169,-5.169,-5.169,-5.169,-5.169,-5.169,-5.169,-5.169,-5.2219,-5.2699,-5.3017,-5.362,-5.4281,-5.5104,-5.4799,-5.4493,-5.4442,-5.4107,-5.3844,-5.3844,-5.3008,-5.2475,-5.2475,-5.1993,-5.1583,-5.1315,-5.0798,-5.0281,-4.9745,-4.8728,-4.8003,-4.766,-4.7109,-4.6684,-4.6495,-4.6429,-4.635,-4.6172,-4.6172,-4.6032,-2.3891,-2.5426,-2.7511,-2.8853,-2.9529,-3.0349,-3.1897,-3.2581,-3.3141,-3.4254,-3.4356,-3.4121,-3.364,-3.4085,-3.5451,-3.8081,-3.9075,-4.104,-4.5264,-4.4323,-4.3704,-4.5117,-4.3225,-4.2399,0.0,0.0,0.0,-4.2819,-4.4918,-4.6534,-4.7339,-4.7181,-4.7953,-4.9939,-5.0309,-5.048,-5.0346,-5.0178,-4.9251,-4.7607,-4.6903,-4.6447,-4.6368,-4.6319,-4.613,-4.5884,-4.6116,-4.6081,-4.5901,-4.6116,-4.6172,-4.6172,-4.6172,-4.7187,-4.8538,-4.8521,-4.9521,-5.0891,-5.0891,-5.0891,-5.0891,-5.0891,-5.0891,-5.0908,-5.0906,-5.0927,-5.1035,-5.1529,-5.1581,-5.1574,-5.1658,-5.169,-5.169,-5.169,-5.169,-5.169,-5.169,-5.169,-5.1779,-5.2115,-5.2681,-5.3301,-5.3975,-5.4882,-5.5617,-5.6104,-5.5761,-5.5404,-5.5302,-5.5017,-5.4735,-5.4735,-5.3665,-5.297,-5.297,-5.2205,-5.169,-5.169,-5.1208,-5.0798,-5.0513,-4.9483,-4.8651,-4.8022,-4.7394,-4.6873,-4.6381,-4.635,-4.6253,-4.6172,-4.6172,-4.6172,-2.6226,-2.7475,-2.8234,-3.0481,-3.096,-3.1307,-3.2376,-3.3118,-3.3642,-3.3934,-3.506,-3.4961,0.0,0.0,-3.5449,-3.6068,-3.8048,-4.0832,-4.4699,-4.5321,-4.4841,0.0,0.0,0.0,0.0,0.0,0.0,-4.4135,0.0,-4.4571,-4.5405,-4.6169,-4.7647,-5.0006,-5.082,-5.0923,-5.0339,-4.9536,-4.8413,-4.6998,-4.6842,-4.6731,-4.659,-4.6447,-4.6011,-4.5394,-4.5971,-4.5866,-4.5411,-4.5971,-4.6172,-4.6172,-4.6172,-4.7187,-4.8591,-4.8538,-4.9521,-5.0891,-5.0891,-5.0891,-5.0891,-5.0891,-5.0891,-5.0891,-5.0891,-5.0928,-5.1017,-5.1511,-5.1702,-5.1699,-5.1675,-5.169,-5.169,-5.169,-5.169,-5.169,-5.169,-5.1726,-5.2026,-5.2946,-5.3211,-5.3832,-5.5667,-5.6667,-5.7188,-5.7188,-5.7188,-5.7105,-5.6847,-5.6129,-5.5662,-5.5662,-5.4194,-5.3161,-5.3125,-5.2308,-5.1726,-5.169,-5.169,-5.1351,-5.0602,-5.0364,-4.9586,-4.8045,-4.778,-4.7192,-4.6398,-4.6253,-4.6172,-4.6172,-4.6172,-4.6172,-2.5906,-2.7554,-2.9684,-3.0764,-3.0882,-3.1202,-3.2928,-3.3348,-3.331,-3.3237,-3.2288,-3.0855,0.0,0.0,0.0,-3.5357,-3.718,0.0,-4.3898,-4.3721,0.0,-4.4208,0.0,-4.4379,-4.4989,-4.4949,0.0,0.0,-4.4993,-4.6411,-4.7741,-4.8207,-4.896,-5.0077,-5.0135,-4.9449,-4.8158,-4.735,-4.6931,-4.6842,-4.6749,-4.659,-4.6447,-4.6301,-4.6165,-4.6007,-4.6133,-4.6116,-4.6007,-4.6151,-4.6172,-4.6172,-4.6172,-4.7187,-4.8591,-4.8538,-4.9521,-5.0891,-5.0891,-5.0891,-5.0891,-5.0891,-5.0891,-5.0891,-5.0891,-5.0928,-5.0982,-5.1334,-5.1526,-5.1699,-5.1675,-5.169,-5.169,-5.169,-5.169,-5.169,-5.169,-5.2255,-5.282,-5.3035,-5.4241,-5.5509,-5.6685,-5.7062,-5.7188,-5.7188,-5.7087,-5.7054,-5.6951,-5.6667,-5.6436,-5.6348,-5.5365,-5.4419,-5.383,-5.308,-5.2332,-5.1726,-5.169,-5.1551,-5.1272,-5.0616,-4.9735,-4.8597,-4.7947,-4.716,-4.627,-4.6221,-4.6172,-4.6172,-4.6172,-4.6172,-2.8174,-2.9424,-3.1035,-3.1713,-3.1889,-3.2017,-3.2527,-3.2831,-3.2596,-3.136,-3.0619,0.0,-2.7084,0.0,0.0,0.0,0.0,0.0,-4.2504,-4.2812,-4.2945,0.0,-4.4042,0.0,-4.6204,-4.615,-4.5744,0.0,-4.5243,-4.5944,-4.6934,-4.7369,-4.8171,-4.9379,-4.8992,-4.8171,-4.6968,-4.6516,-4.6409,-4.661,-4.686,-4.686,-4.6595,-4.6562,-4.6262,-4.5796,0.0,-4.6046,-4.5813,-4.6098,-4.6432,-4.6748,-4.6748,-4.7696,-4.9065,-4.9047,-4.982,-5.0891,-5.0891,-5.0891,-5.0891,-5.0891,-5.0891,-5.0891,-5.0891,-5.0892,-5.0982,-5.1228,-5.1509,-5.1701,-5.1693,-5.169,-5.169,-5.169,-5.174,-5.1897,-5.2237,-5.2749,-5.3437,-5.4187,-5.5473,-5.6599,-5.7134,-5.7188,-5.7188,-5.7188,-5.7156,-5.7054,-5.6951,-5.6899,-5.6899,-5.6847,-5.5971,-5.5168,-5.4721,-5.3562,-5.2689,-5.2243,-5.1886,-5.164,-5.1523,-5.101,-5.0254,-4.9272,-4.878,-4.7955,-4.6748,-4.6748,-4.6572,-4.6172,-4.6172,-4.6172,-3.125,-3.1795,-3.2095,-3.3057,-3.3306,-3.3166,-3.2284,-3.2277,-3.1768,-2.9363,0.0,-2.9267,-2.6264,-2.8307,-3.108,-3.2999,0.0,-3.8584,-4.0877,-4.2176,-4.2876,-4.2757,-4.3477,-4.4514,-4.5764,-4.6178,-4.6515,-4.6819,-4.549,-4.4782,-4.5094,-4.5646,-4.6633,-4.8129,-4.758,-4.7,-4.6404,-4.6399,-4.6505,-4.6559,-4.7128,-4.724,-4.6882,-4.6778,-4.6217,-4.5434,0.0,0.0,-4.561,-4.6165,-4.6835,-4.7555,-4.7538,-4.8415,-4.9679,-4.9679,-5.0188,-5.0891,-5.0891,-5.0891,-5.0891,-5.0891,-5.0891,-5.0891,-5.0891,-5.0891,-5.0945,-5.1264,-5.1492,-5.1651,-5.1693,-5.169,-5.169,-5.169,-5.1879,-5.2247,-5.2978,-5.3401,-5.4143,-5.5739,-5.6704,-5.7188,-5.7188,-5.7188,-5.7188,-5.7188,-5.7188,-5.7105,-5.6899,-5.6951,-5.6984,-5.7105,-5.6269,-5.5664,-5.5556,-5.4023,-5.2993,-5.2886,-5.2136,-5.164,-5.1454,-5.135,-5.0875,-4.9907,-4.9732,-4.8977,-4.7538,-4.7538,-4.7151,-4.6379,-4.6379,-4.6326,-3.1276,-3.1736,-3.2843,-3.4197,-3.4224,-3.4036,-3.4754,-3.3631,0.0,0.0,-2.8793,-2.778,-2.69,-2.8854,-3.1733,-3.5412,-3.7234,-3.8508,-3.9477,-4.1518,-4.2638,0.0,0.0,0.0,0.0,0.0,0.0,0.0,0.0,0.0,-4.6715,-4.7146,-4.7077,-4.6305,-4.6068,-4.5869,-4.5733,-4.6326,-4.6845,-4.7296,-4.7086,-4.6968,-4.6865,-4.5979,-4.577,-4.6028,0.0,0.0,-4.7061,-4.7134,-4.7661,-4.8398,-4.8345,-4.8872,-4.9679,-4.9679,-5.0188,-5.0891,-5.0891,-5.0891,-5.0891,-5.0891,-5.0891,-5.0891,-5.0891,-5.0891,-5.0945,-5.1299,-5.1439,-5.1491,-5.1675,-5.169,-5.169,-5.169,-5.2291,-5.296,-5.3086,-5.4313,-5.5721,-5.6776,-5.7116,-5.7188,-5.7188,-5.7188,-5.7188,-5.7188,-5.7105,-5.7054,-5.7138,-5.6951,-5.6742,-5.6546,-5.6367,-5.5973,-5.5312,-5.4349,-5.3546,-5.2921,-5.2136,-5.1589,-5.135,-5.1298,-5.0805,-4.975,-4.9679,-4.924,-4.8328,-4.8328,-4.7924,-4.7187,-4.7187,-4.6853,-3.2709,-3.3138,-3.4326,-3.6111,-3.5736,-3.4608,-3.3542,0.0,0.0,0.0,-2.6428,-2.6049,-2.5948,-2.7437,0.0,-3.4024,-3.6062,-3.7661,-3.9125,-4.0731,0.0,-4.1236,-4.2146,0.0,0.0,0.0,0.0,0.0,0.0,0.0,-4.682,-4.6759,-4.6301,-4.5236,-4.552,-4.5678,-4.5678,-4.6413,-4.6948,-4.7173,-4.7386,-4.7155,-4.6544,-4.6392,-4.6132,-4.5735,0.0,0.0,-4.6291,-4.716,-4.7701,-4.8047,-4.8819,-4.9609,-5.0311,-5.0311,-5.0557,-5.0891,-5.0891,-5.0891,-5.0891,-5.0891,-5.0891,-5.0891,-5.0891,-5.098,-5.114,-5.1317,-5.1509,-5.156,-5.1658,-5.174,-5.1897,-5.2308,-5.353,-5.4561,-5.4575,-5.5663,-5.6722,-5.7134,-5.7188,-5.7188,-5.7188,-5.7188,-5.7188,-5.7188,-5.7156,-5.7087,-5.7105,-5.6984,-5.6847,-5.676,-5.66,-5.6349,-5.5955,-5.4759,-5.3814,-5.3388,-5.2248,-5.1454,-5.1211,-5.1211,-5.0911,-5.0329,-5.0311,-4.9925,-4.9118,-4.9118,-4.8521,-4.7397,-4.7397,-4.6976,-3.4727,-3.5151,-3.6073,-3.7927,-3.7288,-3.541,-3.2641,-3.1674,0.0,-2.5691,-2.4869,-2.5076,-2.5462,0.0,-2.8584,0.0,-3.4368,-3.6144,-3.8547,-3.9577,-4.0166,0.0,-4.1368,0.0,0.0,0.0,0.0,0.0,0.0,0.0,0.0,-4.6033,-4.5516,-4.4937,-4.5649,-4.603,-4.603,-4.6775,-4.7139,-4.7139,-4.7683,-4.7358,-4.6284,-4.6649,-4.6315,-4.5436,0.0,0.0,0.0,-4.7173,-4.7767,-4.7783,-4.9346,-5.0329,-5.0891,-5.0891,-5.0891,-5.0891,-5.0891,-5.0891,-5.0891,-5.0891,-5.0891,-5.0891,-5.0891,-5.1069,-5.1229,-5.1317,-5.1491,-5.1663,-5.1675,-5.1933,-5.2458,-5.3458,-5.4846,-5.597,-5.6228,-5.6736,-5.7188,-5.7188,-5.7188,-5.7188,-5.7188,-5.7188,-5.7188,-5.7188,-5.7188,-5.7138,-5.7054,-5.7003,-5.7003,-5.6951,-5.6742,-5.66,-5.6546,-5.5134,-5.4153,-5.3798,-5.2518,-5.1545,-5.1123,-5.1105,-5.1052,-5.0891,-5.0891,-5.0575,-4.9943,-4.9943,-4.9153,-4.7661,-4.7643,-4.7134,-3.6782,-3.72,-3.7638,-3.9286,-3.8512,-3.694,-3.5355,0.0,-3.0752,-2.8072,-2.6443,-2.5949,-2.7371,0.0,0.0,0.0,0.0,-3.3658,-3.687,-3.7584,-3.8525,-4.0489,0.0,0.0,-4.4186,0.0,0.0,0.0,0.0,0.0,0.0,-4.5831,-4.5765,-4.5698,-4.6411,-4.6792,-4.6792,-4.7537,-4.7901,-4.7901,-4.7718,-4.7244,-4.6421,-4.5639,-4.5486,-4.5728,0.0,0.0,0.0,-4.7993,-4.8549,-4.8573,-5.0153,-5.082,-5.0891,-5.0891,-5.0891,-5.0891,-5.0891,-5.0891,-5.0891,-5.0891,-5.0891,-5.0891,-5.0891,-5.0891,-5.0962,-5.1105,-5.1316,-5.1574,-5.1658,-5.2426,-5.3558,-5.5238,-5.5775,-5.6115,-5.6935,-5.7152,-5.7188,-5.7188,-5.7188,-5.7188,-5.7188,-5.7188,-5.7188,-5.7188,-5.7188,-5.7206,-5.7188,-5.7105,-5.6951,-5.6847,-5.6707,-5.6546,-5.6455,-5.5598,-5.4741,-5.3833,-5.3034,-5.2165,-5.1141,-5.1105,-5.1052,-5.0891,-5.0891,-5.0855,-5.0785,-5.0785,-4.9995,-4.8486,-4.8433,-4.7625,-3.5919,-3.6924,-3.8339,-4.013,-3.9314,-3.7425,-3.4836,0.0,-3.1055,-2.7185,-2.5988,-2.5799,-2.6382,-2.6704,0.0,0.0,0.0,0.0,-3.647,-3.6794,-3.7882,-4.1432,-4.1678,0.0,0.0,0.0,0.0,0.0,0.0,0.0,0.0,-4.646,-4.646,-4.646,-4.7173,-4.7554,-4.7554,-4.7852,-4.8001,-4.8001,-4.7897,-4.7195,-4.5984,-4.6391,-4.6075,-4.5261,0.0,0.0,0.0,-4.7319,-4.7792,-4.7329,-4.9478,-5.0564,-5.0891,-5.0891,-5.0891,-5.0891,-5.0891,-5.0891,-5.0891,-5.0891,-5.0891,-5.0891,-5.0891,-5.0892,-5.0928,-5.1034,-5.1705,-5.2353,-5.2404,-5.3656,-5.5022,-5.5785,-5.6342,-5.6794,-5.7134,-5.7188,-5.7188,-5.7188,-5.7188,-5.7188,-5.7188,-5.7188,-5.7188,-5.7188,-5.7188,-5.7188,-5.7188,-5.7138,-5.7054,-5.6847,-5.6689,-5.6546,-5.6401,-5.5669,-5.5027,-5.4526,-5.33,-5.2325,-5.1775,-5.1227,-5.0945,-5.0891,-5.0891,-5.0891,-5.0891,-5.0891,-5.0083,-4.8556,-4.8521,-4.7696,-3.5347,-3.7105,-3.9035,-4.0737,-3.9488,-3.7105,0.0,0.0,-3.03,-2.6285,-2.5524,-2.5616,-2.5616,-2.5616,-2.6273,-2.8281,0.0,-3.0577,-3.4913,-3.5513,-3.6777,-4.0215,0.0,0.0,0.0,0.0,0.0,0.0,0.0,0.0,0.0,0.0,-4.7222,-4.7222,-4.7736,-4.8001,-4.8001,-4.8001,-4.8001,-4.8001,-4.7935,-4.6994,-4.5346,-4.6599,-4.6234,0.0,0.0,0.0,0.0,-4.6958,-4.7378,-4.6846,-4.9059,-5.0324,-5.0891,-5.0891,-5.0891,-5.0891,-5.0891,-5.0891,-5.0891,-5.0891,-5.0891,-5.0891,-5.0891,-5.0892,-5.091,-5.1034,-5.1794,-5.2802,-5.3593,-5.4741,-5.5754,-5.6046,-5.6536,-5.6865,-5.6706,-5.6688,-5.6688,-5.6688,-5.6811,-5.6863,-5.6688,-5.6811,-5.6863,-5.6688,-5.6688,-5.6688,-5.6688,-5.6688,-5.6582,-5.6257,-5.6347,-5.6365,-5.6401,-5.5883,-5.5401,-5.5043,-5.3691,-5.2697,-5.2342,-5.1493,-5.0998,-5.0945,-5.0945,-5.0945,-5.0891,-5.0891,-5.0188,-4.8854,-4.8854,-4.8047,-3.5676,-3.8116,-4.0197,-4.1084,-3.8811,-3.5827,0.0,-3.1037,-2.8056,-2.6031,-2.5616,-2.5616,-2.5616,-2.5616,-2.6273,-2.8281,-2.9155,-3.0135,-3.1614,-3.321,-3.4683,0.0,0.0,0.0,0.0,0.0,0.0,0.0,0.0,0.0,0.0,0.0,-4.7984,-4.7984,-4.8001,-4.8001,-4.8001,-4.8001,-4.8001,-4.8001,-4.7787,-4.6568,-4.4542,-4.5863,0.0,0.0,0.0,0.0,0.0,-4.7289,-4.776,-4.7769,-4.9286,-5.0324,-5.0891,-5.0891,-5.0891,-5.0891,-5.0891,-5.0891,-5.0891,-5.0891,-5.0891,-5.0891,-5.0891,-5.0891,-5.0891,-5.0891,-5.14,-5.2552,-5.5274,-5.5527,-5.5324,-5.6098,-5.6308,-5.6156,-5.5537,-5.5385,-5.5385,-5.5385,-5.5904,-5.6146,-5.5502,-5.5904,-5.609,-5.5502,-5.5385,-5.5385,-5.5385,-5.5385,-5.5266,-5.4983,-5.5537,-5.6032,-5.6401,-5.6383,-5.5989,-5.5079,-5.4224,-5.3389,-5.2555,-5.1705,-5.1246,-5.1105,-5.1105,-5.1052,-5.0891,-5.0891,-5.0469,-4.9679,-4.9679,-4.8854,-3.1738,-3.371,-3.5336,-3.5676,-3.5023,-3.3646,-3.1358,-3.0057,-2.8748,-2.6758,-2.5956,-2.5762,-2.6264,-2.5956,-2.6273,-2.8281,-2.8769,-3.0248,0.0,0.0,0.0,-3.9275,0.0,0.0,0.0,0.0,0.0,0.0,0.0,0.0,0.0,0.0,-4.8001,-4.8001,-4.8001,-4.8001,-4.8001,-4.8001,-4.8001,-4.8001,-4.7935,-4.6713,-4.4542,-4.6307,0.0,0.0,0.0,0.0,0.0,-4.5996,-4.6341,-4.634,-4.7922,-4.9188,-5.0137,-4.9698,-4.9815,-5.0194,-5.0194,-4.9948,-4.9639,-5.008,-5.0194,-5.0194,-5.0194,-5.0526,-5.1101,-5.2119,-5.2558,-5.3141,-5.5069,-5.5464,-5.539,-5.5627,-5.5653,-5.5613,-5.5461,-5.5385,-5.5385,-5.5385,-5.556,-5.5618,-5.5443,-5.556,-5.5618,-5.5443,-5.5385,-5.5385,-5.5385,-5.5385,-5.5266,-5.4922,-5.5104,-5.5343,-5.5711,-5.6144,-5.6276,-5.5971,-5.5096,-5.426,-5.3425,-5.2555,-5.1794,-5.1123,-5.1105,-5.1052,-5.0891,-5.0891,-5.0469,-4.9662,-4.8608,-4.7854,-3.0204,-3.1751,-3.2951,-3.3549,-3.278,0.0,-2.9932,-2.8801,-2.7759,-2.6516,-2.6532,-2.6622,-2.6345,-2.6548,-2.6872,-2.7388,0.0,0.0,0.0,0.0,0.0,0.0,0.0,0.0,0.0,0.0,0.0,0.0,0.0,0.0,0.0,0.0,0.0,-4.8001,-4.8001,-4.8001,-4.8001,-4.7719,-4.7587,-4.7587,-4.7176,-4.6057,-4.4463,0.0,0.0,0.0,0.0,0.0,0.0,-4.5455,-4.5896,-4.6133,-4.7431,-4.8572,-4.9445,-4.9067,-4.9127,-4.9504,-4.9504,-4.9265,-4.8944,-4.9385,-4.9504,-4.958,-4.9639,-5.0211,-5.1007,-5.2363,-5.2666,-5.299,-5.494,-5.5207,-5.5009,-5.5009,-5.5009,-5.4966,-5.4738,-5.4676,-5.4676,-5.4676,-5.4844,-5.4966,-5.4738,-5.4844,-5.4966,-5.4755,-5.4614,-5.4614,-5.4676,-5.4614,-5.4471,-5.4171,-5.4345,-5.4534,-5.4641,-5.5519,-5.6144,-5.6383,-5.5597,-5.4866,-5.4367,-5.3194,-5.2307,-5.1653,-5.1264,-5.1052,-5.0891,-5.0891,-5.0469,-4.9662,-4.8415,-4.7678,0.0,-3.1616,-3.2323,-3.3577,-3.1614,-2.9331,-2.9331,-2.7388,0.0,-2.5837,-2.7324,-2.8023,-2.6241,-2.7476,-2.8142,0.0,0.0,0.0,0.0,0.0,0.0,0.0,0.0,0.0,0.0,0.0,0.0,0.0,0.0,0.0,0.0,0.0,0.0,0.0,-4.7852,-4.7951,-4.8001,-4.7272,-4.6825,-4.6659,-4.5763,-4.48,-4.3948,0.0,0.0,0.0,0.0,0.0,0.0,-4.5386,-4.6061,-4.6728,-4.7455,-4.8222,-4.8821,-4.8759,-4.8759,-4.8821,-4.8821,-4.8821,-4.8759,-4.8821,-4.8821,-4.8883,-4.9222,-4.9791,-5.058,-5.1726,-5.1888,-5.2238,-5.4643,-5.4782,-5.4345,-5.4345,-5.4345,-5.4171,-5.3618,-5.3501,-5.3501,-5.3501,-5.3946,-5.4171,-5.3618,-5.3946,-5.4171,-5.3551,-5.3348,-5.3264,-5.3433,-5.3264,-5.311,-5.2903,-5.3416,-5.3715,-5.3449,-5.4641,-5.5653,-5.6273,-5.565,-5.5259,-5.5205,-5.362,-5.2697,-5.252,-5.1547,-5.0998,-5.0891,-5.0891,-5.0504,-4.975,-4.896,-4.8187,-2.8573,0.0,-2.8503,-2.8295,-2.7377,-2.6525,0.0,-2.6047,-2.6193,0.0,0.0,-2.8592,-2.8624,-2.9836,-3.0158,0.0,0.0,0.0,0.0,0.0,0.0,0.0,0.0,0.0,0.0,0.0,0.0,0.0,0.0,0.0,0.0,0.0,0.0,0.0,-4.6585,-4.7438,-4.8001,-4.7272,-4.6063,-4.4406,-4.5181,-4.3892,-4.1016,0.0,0.0,0.0,0.0,0.0,0.0,-4.414,-4.4643,-4.5342,-4.6043,-4.7079,-4.808,-4.7572,-4.7704,-4.8144,-4.8144,-4.7819,-4.7439,-4.795,-4.8144,-4.8144,-4.8208,-4.89,-4.9923,-5.1388,-5.1771,-5.2067,-5.3587,-5.3849,-5.3734,-5.3734,-5.3734,-5.3668,-5.3501,-5.3501,-5.3501,-5.3501,-5.3618,-5.3668,-5.3501,-5.3618,-5.3668,-5.3501,-5.3348,-5.3195,-5.3264,-5.311,-5.2903,-5.2694,-5.2817,-5.3008,-5.3382,-5.4641,-5.5461,-5.5636,-5.591,-5.5847,-5.5241,-5.41,-5.3212,-5.2538,-5.1493,-5.0945,-5.0891,-5.0891,-5.0785,-5.0575,-4.9188,-4.8433,-2.8548,-2.8088,-2.755,-2.8083,-2.7146,-2.6322,-2.7211,-2.6639,-2.651,0.0,0.0,-2.8913,-2.9118,-2.9948,0.0,0.0,0.0,0.0,0.0,0.0,0.0,0.0,0.0,0.0,0.0,0.0,0.0,0.0,0.0,0.0,0.0,0.0,0.0,0.0,0.0,-4.6126,-4.652,-4.6118,-4.4787,-4.2534,-4.3866,-4.2993,-4.041,0.0,0.0,0.0,0.0,0.0,-4.3201,-4.2797,-4.3476,-4.4868,-4.5548,-4.6499,-4.7388,-4.6997,-4.7134,-4.7455,-4.7455,-4.7202,-4.6945,-4.7321,-4.7455,-4.7455,-4.7638,-4.8264,-4.9184,-5.0236,-5.0868,-5.162,-5.3112,-5.3501,-5.3501,-5.3501,-5.3501,-5.3501,-5.3348,-5.3348,-5.3348,-5.3348,-5.3348,-5.3416,-5.3501,-5.3501,-5.3501,-5.3348,-5.3195,-5.3041,-5.3041,-5.2903,-5.2694,-5.2624,-5.2624,-5.2694,-5.2956,-5.3895,-5.4765,-5.5385,-5.6014,-5.6204,-5.5776,-5.442,-5.3122,-5.1794,-5.1209,-5.0891,-5.0891,-5.0891,-5.0697,-5.0311,-4.9082,-4.8328,-2.9116,-2.8562,-2.8447,-3.036,-2.8823,-2.7397,-2.9589,-2.826,-2.7077,0.0,0.0,-2.9714,-2.9307,-3.0202,0.0,0.0,0.0,0.0,0.0,0.0,0.0,0.0,0.0,0.0,0.0,0.0,0.0,0.0,0.0,0.0,0.0,0.0,0.0,0.0,0.0,-4.4381,-4.4284,-4.4549,-4.3535,-4.1321,-4.2501,-4.225,-4.0684,-4.2648,0.0,0.0,0.0,0.0,-4.2522,-4.1862,-4.2878,-4.4852,-4.5435,-4.6147,-4.6876,-4.6876,-4.6876,-4.6876,-4.6876,-4.6876,-4.6876,-4.6876,-4.6973,-4.7123,-4.7381,-4.8024,-4.8646,-4.9099,-4.9973,-5.1212,-5.296,-5.3467,-5.345,-5.3433,-5.3433,-5.3348,-5.3264,-5.3179,-5.3179,-5.3179,-5.3179,-5.3264,-5.3348,-5.3416,-5.3348,-5.3179,-5.2972,-5.2834,-5.2834,-5.2711,-5.257,-5.257,-5.257,-5.2499,-5.2373,-5.3008,-5.3878,-5.5009,-5.5694,-5.6037,-5.5861,-5.4418,-5.2766,-5.098,-5.0945,-5.0945,-5.0891,-5.0891,-5.0539,-4.9837,-4.9065,-4.8345,-2.8513,-2.9539,-3.1024,-3.21,-2.9933,-2.8363,-3.1449,-3.0056,-2.8998,0.0,0.0,0.0,0.0,-3.5022,-3.6005,0.0,0.0,0.0,0.0,0.0,0.0,0.0,0.0,0.0,0.0,0.0,0.0,0.0,0.0,0.0,0.0,0.0,0.0,0.0,0.0,-4.2627,-4.1989,-4.3774,-4.3535,-4.1247,-4.2485,-4.1912,-3.9829,-4.1869,-4.2796,0.0,0.0,0.0,-4.2555,-4.2458,-4.3395,-4.4804,-4.4901,-4.5743,-4.6876,-4.6876,-4.6876,-4.6876,-4.6876,-4.6876,-4.6876,-4.6876,-4.7313,-4.7831,-4.7902,-4.8388,-4.906,-4.9567,-5.0356,-5.1441,-5.2817,-5.3174,-5.3159,-5.3006,-5.2972,-5.3058,-5.3179,-5.3041,-5.2972,-5.3195,-5.3179,-5.3195,-5.3058,-5.3127,-5.3195,-5.2972,-5.2764,-5.2624,-5.2624,-5.2499,-5.2445,-5.2445,-5.2445,-5.2445,-5.2373,-5.3008,-5.3516,-5.3698,-5.4328,-5.4313,-5.3357,-5.3633,-5.2927,-5.1087,-5.1052,-5.0998,-5.0891,-5.0891,-5.0838,-5.0697,-4.9872,-4.9451,-2.8711,-2.9673,-3.1543,-3.4626,-3.283,-3.1381,-3.561,-3.3019,-3.0946,0.0,0.0,0.0,0.0,0.0,0.0,0.0,0.0,0.0,0.0,0.0,0.0,0.0,0.0,0.0,0.0,0.0,0.0,0.0,0.0,0.0,0.0,0.0,0.0,0.0,0.0,0.0,-4.094,-4.2559,-4.2446,-4.0541,-4.2245,-4.1847,-3.9534,-4.1646,-4.2634,0.0,0.0,-4.186,-4.2506,-4.1668,-4.2716,-4.4787,-4.4787,-4.5646,-4.6876,-4.6876,-4.6876,-4.6876,-4.6876,-4.6876,-4.6876,-4.6876,-4.7119,-4.7475,-4.788,-4.8479,-4.9111,-4.9782,-5.049,-5.133,-5.2424,-5.2797,-5.3023,-5.3058,-5.3041,-5.311,-5.3179,-5.311,-5.311,-5.3179,-5.311,-5.3058,-5.3195,-5.3127,-5.2972,-5.2903,-5.2694,-5.2553,-5.2499,-5.2445,-5.2373,-5.2373,-5.2373,-5.2373,-5.2373,-5.2694,-5.3196,-5.3878,-5.4579,-5.4269,-5.2736,-5.3344,-5.282,-5.1034,-5.0998,-5.0945,-5.0891,-5.0891,-5.0891,-5.0873,-5.0066,-4.9679,-2.9058,-2.9733,-3.1465,-3.5621,-3.4415,-3.3704,-3.9341,-3.5845,-3.2821,0.0,0.0,0.0,0.0,0.0,0.0,0.0,0.0,0.0,0.0,0.0,0.0,0.0,0.0,0.0,0.0,0.0,0.0,0.0,0.0,0.0,0.0,0.0,0.0,0.0,0.0,0.0,-4.0478,-4.1393,-4.1387,-4.044,-4.2206,-4.2064,-4.0221,-4.1873,-4.2634,-4.2506,-4.1346,-4.1491,-4.249,-4.1329,-4.2425,-4.4787,-4.4787,-4.5646,-4.6876,-4.6876,-4.6876,-4.6876,-4.6876,-4.6876,-4.6876,-4.6876,-4.7172,-4.7561,-4.8215,-4.8995,-4.9758,-5.0399,-5.0916,-5.1399,-5.2233,-5.2627,-5.292,-5.3127,-5.311,-5.311,-5.3179,-5.311,-5.3041,-5.311,-5.2972,-5.2989,-5.3212,-5.2989,-5.2834,-5.2781,-5.264,-5.2499,-5.2373,-5.2373,-5.2373,-5.2373,-5.2373,-5.2373,-5.2373,-5.2373,-5.2817,-5.3895,-5.4406,-5.4017,-5.25,-5.287,-5.2463,-5.098,-5.0945,-5.0945,-5.0891,-5.0891,-5.0891,-5.0873,-5.0259,-4.996,-2.9326,-3.0208,-3.1438,-3.3128,-3.2479,-3.3463,-4.1139,-3.7817,-3.4606,-3.9842,0.0,0.0,0.0,0.0,0.0,0.0,0.0,0.0,0.0,0.0,0.0,0.0,0.0,0.0,0.0,0.0,0.0,0.0,0.0,0.0,0.0,0.0,0.0,0.0,0.0,0.0,0.0,-4.0615,-4.108,-4.1949,-4.2632,-4.274,-4.2345,-4.2553,-4.2634,-4.2555,-4.2458,-4.2474,-4.2555,-4.2458,-4.3395,-4.4787,-4.4787,-4.5646,-4.6876,-4.6876,-4.6876,-4.6876,-4.6876,-4.6876,-4.6876,-4.6876,-4.7907,-4.9137,-4.9431,-5.05,-5.1687,-5.2065,-5.2043,-5.2125,-5.2594,-5.2703,-5.2761,-5.292,-5.2764,-5.2764,-5.311,-5.2903,-5.2694,-5.2903,-5.2903,-5.2834,-5.2516,-5.257,-5.257,-5.2445,-5.2445,-5.2373,-5.2373,-5.2373,-5.2373,-5.2373,-5.2373,-5.2373,-5.2373,-5.2373,-5.2445,-5.2499,-5.2539,-5.235,-5.1861,-5.1836,-5.1573,-5.1123,-5.1105,-5.0998,-5.0891,-5.0891,-5.0891,-5.0891,-5.0838,-5.0803,-2.913,-3.0175,-3.197,-3.527,-3.3676,0.0,0.0,-3.8952,-3.7443,-4.2999,-4.0272,0.0,0.0,0.0,0.0,0.0,0.0,0.0,0.0,0.0,0.0,0.0,0.0,0.0,0.0,0.0,0.0,0.0,0.0,0.0,0.0,0.0,0.0,0.0,0.0,0.0,0.0,-4.0547,-4.1209,-4.1948,-4.2238,-4.2222,-4.1933,-4.2365,-4.2634,-4.2634,-4.2634,-4.2634,-4.2634,-4.2634,-4.3476,-4.4885,-4.5743,-4.6423,-4.6876,-4.6876,-4.6876,-4.6876,-4.6876,-4.6876,-4.6876,-4.6876,-4.7626,-4.8605,-4.9241,-5.0144,-5.1099,-5.2032,-5.2197,-5.2175,-5.2407,-5.2478,-5.2532,-5.2711,-5.264,-5.2694,-5.2972,-5.2903,-5.2834,-5.2903,-5.2764,-5.2694,-5.2711,-5.257,-5.2516,-5.2499,-5.2445,-5.2373,-5.2373,-5.2373,-5.2373,-5.2373,-5.2373,-5.2373,-5.2373,-5.2373,-5.2175,-5.1569,-5.2034,-5.2123,-5.1691,-5.1585,-5.1371,-5.0962,-5.0998,-5.0945,-5.0891,-5.0891,-5.0891,-5.0891,-5.0891,-5.0891,-2.878,-2.9747,-3.1516,-3.5279,0.0,0.0,-3.9809,-3.9054,-3.8479,-4.4078,-4.1805,-3.814,-3.5977,0.0,0.0,0.0,0.0,0.0,0.0,0.0,0.0,0.0,0.0,0.0,0.0,0.0,0.0,0.0,0.0,0.0,0.0,0.0,0.0,0.0,0.0,0.0,0.0,-4.0668,-4.1178,-4.1377,-4.1773,-4.2044,-4.2173,-4.2601,-4.2805,-4.2929,-4.268,-4.268,-4.2743,-4.2618,-4.3476,-4.4933,-4.6342,-4.6876,-4.6876,-4.6876,-4.6876,-4.6876,-4.6876,-4.6876,-4.6925,-4.7168,-4.7642,-4.8367,-4.9578,-5.0222,-5.0818,-5.2233,-5.2461,-5.2296,-5.234,-5.2412,-5.2499,-5.264,-5.2624,-5.264,-5.2834,-5.2834,-5.2834,-5.2834,-5.2694,-5.2624,-5.2711,-5.2587,-5.2445,-5.2499,-5.2445,-5.2373,-5.2373,-5.2373,-5.2373,-5.2373,-5.2373,-5.2373,-5.2373,-5.2373,-5.1988,-5.1069,-5.1327,-5.1327,-5.0909,-5.0824,-5.0714,-5.0582,-5.0764,-5.0945,-5.0945,-5.0945,-5.0945,-5.0945,-5.0945,-5.0945,-2.8324,-2.8951,-2.9832,-3.1968,0.0,0.0,-3.8904,-3.801,-3.7379,-4.2436,-4.4441,-4.4422,-4.1647,0.0,0.0,0.0,0.0,0.0,0.0,0.0,0.0,0.0,0.0,0.0,0.0,0.0,0.0,0.0,0.0,0.0,0.0,0.0,0.0,0.0,0.0,0.0,0.0,0.0,-4.093,-4.0401,-4.1293,-4.2359,-4.3578,-4.3279,-4.3279,-4.3578,-4.2867,-4.2805,-4.3035,-4.2759,-4.3476,-4.4917,-4.6309,-4.686,-4.6876,-4.6876,-4.6876,-4.6876,-4.6876,-4.6876,-4.7006,-4.7751,-4.8258,-4.8849,-5.0747,-5.1061,-5.1251,-5.279,-5.2951,-5.2698,-5.2603,-5.2624,-5.2624,-5.2834,-5.2764,-5.2624,-5.2834,-5.2764,-5.2624,-5.2624,-5.2624,-5.257,-5.2445,-5.2373,-5.2373,-5.2373,-5.2373,-5.2373,-5.2373,-5.2373,-5.2373,-5.2373,-5.2373,-5.2373,-5.2373,-5.2373,-5.1971,-5.1069,-5.0274,-4.9686,-4.9326,-4.9215,-4.9419,-4.989,-5.0564,-5.0945,-5.1105,-5.1105,-5.1105,-5.1105,-5.1105,-5.1052,-3.0252,-3.0528,0.0,-3.3034,0.0,0.0,0.0,-3.756,0.0,0.0,-4.2341,-4.1682,-3.924,0.0,0.0,0.0,0.0,0.0,0.0,0.0,0.0,0.0,0.0,0.0,0.0,0.0,0.0,0.0,0.0,0.0,0.0,0.0,0.0,0.0,0.0,0.0,0.0,0.0,-4.1152,-4.1805,-4.1791,-4.2162,-4.2831,-4.2736,-4.2997,-4.3578,-4.3174,-4.299,-4.3084,-4.3311,-4.3638,-4.4123,-4.5046,-4.571,-4.6131,-4.6131,-4.6439,-4.6876,-4.6876,-4.6876,-4.6925,-4.7151,-4.7626,-4.8367,-4.9719,-5.038,-5.1048,-5.2407,-5.2603,-5.2511,-5.257,-5.2499,-5.2445,-5.2516,-5.2516,-5.2516,-5.2516,-5.2516,-5.2445,-5.2445,-5.2445,-5.2445,-5.239,-5.2373,-5.2373,-5.2373,-5.2373,-5.2373,-5.2373,-5.2373,-5.2373,-5.2373,-5.2373,-5.2373,-5.2373,-5.1806,-5.0982,-5.0101,-4.9255,-4.9125,-4.989,-4.9447,-4.9656,-5.0582,-5.0873,-5.0998,-5.0945,-5.1158,-5.1141,-5.0945,-5.1052,-5.1105,-3.0783,-3.1469,0.0,-3.5084,-3.4684,-3.3956,-3.5295,0.0,0.0,0.0,0.0,-4.1996,0.0,0.0,0.0,0.0,0.0,0.0,0.0,0.0,0.0,0.0,0.0,0.0,0.0,0.0,0.0,0.0,0.0,0.0,0.0,0.0,0.0,0.0,0.0,0.0,0.0,0.0,0.0,-4.1816,-4.1627,-4.1838,-4.24,-4.2294,-4.2699,-4.3514,-4.3522,-4.3355,-4.3162,-4.3649,-4.3831,-4.3783,-4.4512,-4.5208,-4.5807,-4.5807,-4.6261,-4.6876,-4.6876,-4.6876,-4.6941,-4.7232,-4.7582,-4.8099,-4.9374,-5.0257,-5.0942,-5.1868,-5.2283,-5.2445,-5.2499,-5.2445,-5.2373,-5.2373,-5.2373,-5.2373,-5.2373,-5.2373,-5.2373,-5.2373,-5.2373,-5.2373,-5.2373,-5.2373,-5.2373,-5.2373,-5.2373,-5.2373,-5.2373,-5.2373,-5.2373,-5.2373,-5.2373,-5.2373,-5.2373,-5.1536,-5.0582,-4.9649,-4.8789,-4.8575,-4.9244,-4.9137,-4.9538,-5.0509,-5.0819,-5.0998,-5.0998,-5.1141,-5.1158,-5.0998,-5.1158,-5.1246,-3.0371,-3.187,0.0,-3.7112,-3.6003,0.0,-3.6417,-3.7635,-3.9354,-4.2608,0.0,0.0,0.0,0.0,0.0,0.0,0.0,0.0,0.0,0.0,0.0,0.0,0.0,0.0,0.0,0.0,0.0,0.0,0.0,0.0,0.0,0.0,0.0,0.0,0.0,0.0,0.0,0.0,0.0,0.0,0.0,-4.1491,-4.2185,-4.19,-4.232,-4.3297,-4.3709,-4.3564,-4.3064,-4.3797,-4.3858,-4.367,-4.4399,-4.5014,-4.5629,-4.5678,-4.6164,-4.6795,-4.686,-4.6945,-4.7075,-4.7756,-4.7858,-4.7968,-4.9384,-5.0289,-5.0826,-5.1358,-5.1885,-5.2307,-5.2357,-5.2373,-5.2373,-5.2373,-5.2373,-5.2373,-5.2373,-5.2373,-5.2373,-5.2373,-5.2373,-5.2373,-5.2373,-5.2373,-5.2373,-5.2373,-5.2373,-5.2373,-5.2373,-5.2373,-5.2373,-5.2373,-5.2373,-5.2373,-5.2373,-5.1536,-5.0582,-4.9649,-4.8789,-4.8191,-4.7918,-4.8509,-4.9205,-4.989,-5.0582,-5.0945,-5.1052,-5.1105,-5.1105,-5.1105,-5.1368,-5.1454,-3.1344,-3.2398,0.0,0.0,-3.3437,-3.3958,-3.8897,-3.8924,-3.8742,0.0,0.0,0.0,0.0,0.0,0.0,0.0,0.0,0.0,0.0,0.0,0.0,0.0,0.0,0.0,0.0,0.0,0.0,0.0,0.0,0.0,0.0,0.0,0.0,0.0,0.0,0.0,0.0,0.0,-4.0676,0.0,-4.0611,-4.0713,-4.1441,-4.1388,-4.1617,-4.2143,-4.2256,-4.2261,-4.2294,-4.268,-4.2834,-4.2877,-4.3274,-4.3779,-4.4237,-4.4804,-4.5451,-4.6115,-4.6682,-4.7082,-4.7302,-4.7466,-4.7703,-4.8101,-4.8994,-4.9375,-4.9741,-5.0985,-5.1466,-5.1645,-5.2224,-5.2373,-5.2373,-5.2373,-5.2373,-5.2373,-5.2373,-5.2373,-5.2373,-5.2373,-5.2373,-5.2373,-5.2373,-5.2373,-5.2373,-5.2373,-5.2373,-5.2373,-5.2373,-5.2373,-5.2373,-5.2373,-5.2373,-5.2373,-5.2373,-5.1536,-5.0582,-4.9649,-4.8789,-4.8191,-4.7918,-4.8509,-4.9205,-4.989,-5.0675,-5.0998,-5.0945,-5.1141,-5.1246,-5.1246,-5.1402,-5.1658,-3.0094,0.0,0.0,-3.5399,0.0,-3.6824,-3.8763,-3.8877,0.0,0.0,0.0,0.0,0.0,0.0,0.0,0.0,0.0,0.0,0.0,0.0,0.0,0.0,0.0,0.0,0.0,0.0,0.0,0.0,0.0,0.0,0.0,0.0,0.0,0.0,0.0,0.0,-3.9257,-3.9828,-4.0273,-4.0663,-4.0257,-4.029,-4.0679,-4.1035,-4.1302,-4.1513,-4.192,-4.2217,-4.2518,-4.2691,-4.2874,-4.3113,-4.3279,-4.383,-4.4512,-4.4903,-4.5568,-4.6374,-4.6952,-4.727,-4.7404,-4.7621,-4.7902,-4.8246,-4.853,-4.9194,-4.9976,-5.062,-5.1264,-5.1893,-5.2274,-5.2373,-5.2373,-5.2373,-5.2373,-5.2373,-5.2373,-5.2373,-5.2373,-5.2373,-5.2373,-5.2373,-5.2373,-5.2373,-5.2373,-5.2373,-5.2373,-5.2373,-5.2373,-5.2373,-5.2373,-5.2373,-5.1988,-5.1905,-5.234,-5.1152,-5.0134,-4.9616,-4.8789,-4.8054,-4.7421,-4.8383,-4.9205,-4.989,-5.0637,-5.0945,-5.0891,-5.1193,-5.1298,-5.1298,-5.1658,-5.1907,-2.7814,0.0,-3.5145,-3.7741,-3.9137,0.0,-3.8149,-3.8505,0.0,0.0,0.0,0.0,0.0,0.0,0.0,0.0,0.0,0.0,0.0,0.0,0.0,0.0,0.0,0.0,0.0,0.0,0.0,0.0,0.0,0.0,0.0,0.0,0.0,0.0,0.0,0.0,-3.9152,-3.9799,-4.007,-4.007,-4.007,-4.007,-4.0104,-4.073,-4.1018,-4.1035,-4.1644,-4.2244,-4.2791,-4.2847,-4.3163,-4.3578,-4.3638,-4.4219,-4.5074,-4.5321,-4.598,-4.6825,-4.7339,-4.7538,-4.7605,-4.7984,-4.8308,-4.8547,-4.8179,-4.9276,-5.051,-5.0255,-5.1164,-5.2224,-5.2357,-5.2373,-5.2373,-5.2373,-5.2373,-5.2373,-5.2373,-5.2373,-5.2373,-5.2373,-5.2373,-5.2373,-5.2373,-5.2373,-5.2373,-5.2373,-5.2373,-5.2373,-5.2373,-5.2373,-5.2373,-5.2373,-5.1553,-5.1284,-5.2054,-5.0582,-4.955,-4.9419,-4.8723,-4.7863,-4.6909,-4.8208,-4.9144,-4.9698,-5.0509,-5.0945,-5.0998,-5.1193,-5.135,-5.1454,-5.1889,-5.2132,0.0,0.0,-3.4197,0.0,-3.6729,-3.668,0.0,0.0,0.0,0.0,0.0,0.0,0.0,0.0,0.0,0.0,0.0,0.0,0.0,0.0,0.0,0.0,0.0,0.0,0.0,0.0,0.0,0.0,0.0,0.0,0.0,0.0,0.0,0.0,0.0,0.0,-3.8978,-3.9731,-4.007,-4.007,-4.007,-4.007,-4.007,-4.0172,-4.0223,-4.024,-4.0324,-4.0997,-4.1988,-4.2277,-4.2864,-4.3638,-4.3906,-4.3964,-4.3965,-4.5256,-4.5851,-4.6135,-4.7489,-4.8098,-4.8356,-4.842,-4.8673,-4.8877,-4.8547,-4.9136,-4.9924,-5.0123,-5.08,-5.1562,-5.2208,-5.2373,-5.2373,-5.2373,-5.2373,-5.2373,-5.2373,-5.2373,-5.2373,-5.2373,-5.2373,-5.2373,-5.2373,-5.2373,-5.2373,-5.2373,-5.2373,-5.2373,-5.2373,-5.2373,-5.2373,-5.2373,-5.1553,-5.1069,-5.1168,-5.0199,-4.9267,-4.8507,-4.8376,-4.7863,-4.6909,-4.8208,-4.8944,-4.9006,-5.025,-5.0981,-5.1246,-5.1298,-5.1538,-5.1987,-5.2054,-5.2246,-2.7625,-2.9925,-3.2363,0.0,-3.7254,-3.6178,0.0,0.0,0.0,0.0,0.0,0.0,0.0,0.0,0.0,0.0,0.0,0.0,0.0,0.0,0.0,0.0,0.0,0.0,0.0,0.0,0.0,0.0,0.0,0.0,0.0,-4.0716,-4.0638,-4.0759,-4.0829,0.0,-3.9558,-3.9901,-4.007,-4.007,-4.007,-4.007,-4.007,-4.007,-4.007,-4.007,-4.007,-4.0865,-4.2109,-4.2233,-4.3271,-4.4775,-4.4966,-4.5278,-4.5824,-4.6491,-4.6866,-4.7123,-4.8011,-4.8356,-4.8547,-4.8736,-4.8877,-4.894,-4.861,-4.932,-5.0292,-5.0189,-5.1032,-5.1976,-5.2307,-5.2373,-5.2373,-5.2373,-5.2373,-5.2373,-5.2373,-5.2373,-5.2373,-5.2373,-5.2373,-5.2373,-5.2373,-5.2373,-5.2373,-5.2373,-5.2373,-5.2373,-5.2373,-5.2373,-5.2224,-5.1636,-5.0801,-5.0216,-5.0216,-4.9419,-4.874,-4.829,-4.8274,-4.7863,-4.6909,-4.8208,-4.8989,-4.9137,-5.0457,-5.1193,-5.1298,-5.1589,-5.1889,-5.2084,-5.2246,-5.2387,0.0,0.0,-2.9722,-3.6483,-3.59,-3.4546,0.0,0.0,0.0,0.0,0.0,0.0,0.0,0.0,0.0,0.0,0.0,0.0,0.0,0.0,0.0,0.0,0.0,0.0,0.0,0.0,0.0,0.0,0.0,0.0,0.0,-4.0653,-4.0713,-4.1272,-4.0817,-4.045,-4.0087,-4.007,-4.007,-4.007,-4.007,-4.007,-4.007,-4.007,-4.007,-4.007,-4.007,-4.0916,-4.2286,-4.2286,-4.3521,-4.5432,-4.5635,-4.6203,-4.7015,-4.7402,-4.7701,-4.8011,-4.8497,-4.861,-4.8673,-4.894,-4.9001,-4.894,-4.861,-4.9404,-5.0443,-5.0222,-5.1131,-5.2142,-5.2324,-5.2373,-5.2373,-5.2373,-5.2373,-5.2373,-5.2373,-5.2373,-5.2373,-5.2373,-5.2373,-5.2373,-5.2373,-5.2373,-5.2373,-5.2373,-5.2373,-5.2373,-5.2373,-5.2373,-5.2021,-5.1102,-5.0167,-4.9599,-4.9599,-4.8805,-4.8274,-4.8274,-4.8274,-4.7932,-4.7167,-4.8366,-4.9154,-4.9536,-5.0822,-5.1487,-5.1487,-5.1889,-5.215,-5.2198,-5.2405,-5.2498,0.0,-2.5091,0.0,-2.9964,0.0,0.0,0.0,0.0,0.0,0.0,0.0,0.0,0.0,0.0,0.0,0.0,0.0,0.0,0.0,0.0,0.0,0.0,0.0,0.0,0.0,0.0,0.0,0.0,0.0,0.0,-3.9807,-4.1036,-4.1369,-4.0415,-4.0978,-4.0934,-4.0087,-4.007,-4.007,-4.007,-4.007,-4.007,-4.007,-4.007,-4.007,-4.007,-4.007,-4.0916,-4.2286,-4.2286,-4.3217,-4.4705,-4.5432,-4.5754,-4.5933,-4.7335,-4.7875,-4.801,-4.8703,-4.9001,-4.9001,-4.9001,-4.9001,-4.894,-4.861,-4.9167,-4.9923,-5.009,-5.075,-5.1496,-5.2191,-5.2373,-5.2373,-5.2373,-5.2373,-5.2373,-5.2373,-5.2373,-5.2373,-5.2373,-5.2373,-5.2373,-5.2373,-5.2373,-5.2373,-5.2373,-5.2373,-5.2373,-5.2373,-5.2373,-5.2021,-5.1102,-5.0167,-4.9599,-4.9599,-4.8805,-4.8274,-4.8274,-4.8274,-4.8191,-4.7852,-4.8771,-4.9595,-5.0237,-5.1416,-5.2054,-5.2054,-5.2102,-5.2246,-5.2498,-5.2498,-5.2498,0.0,0.0,0.0,-2.8967,0.0,0.0,0.0,0.0,0.0,0.0,0.0,0.0,0.0,0.0,0.0,0.0,0.0,0.0,0.0,0.0,0.0,0.0,0.0,0.0,0.0,0.0,0.0,0.0,0.0,0.0,-3.8936,-3.7686,-3.7931,-4.0211,-4.0121,-3.9999,-4.0087,-4.007,-4.007,-4.007,-4.007,-4.007,-4.007,-4.007,-4.007,-4.007,-4.007,-4.0916,-4.2286,-4.2286,-4.3487,-4.5382,-4.6109,-4.6701,-4.7242,-4.824,-4.8612,-4.8646,-4.8917,-4.9001,-4.9001,-4.9001,-4.9001,-4.894,-4.861,-4.9036,-4.9741,-5.0073,-5.0734,-5.1446,-5.2191,-5.2373,-5.2373,-5.2373,-5.2373,-5.2373,-5.2373,-5.2373,-5.2373,-5.2373,-5.2373,-5.2224,-5.1602,-5.1503,-5.1503,-5.1503,-5.1503,-5.1756,-5.2307,-5.2373,-5.2021,-5.1102,-5.0735,-5.0052,-4.8854,-4.8474,-4.8062,-4.7452,-4.761,-4.7852,-4.8142,-4.8742,-4.9393,-5.0241,-5.0715,-5.1314,-5.2102,-5.2293,-5.2405,-5.2498,-5.2498,-5.2498,-2.2686,0.0,0.0,0.0,0.0,0.0,0.0,0.0,0.0,0.0,0.0,0.0,0.0,0.0,0.0,0.0,0.0,0.0,0.0,0.0,0.0,0.0,0.0,0.0,0.0,0.0,0.0,0.0,0.0,0.0,-3.848,-3.697,-3.729,-4.001,-3.9737,-3.9696,-4.0087,-4.007,-4.007,-4.007,-4.007,-4.007,-4.007,-4.007,-4.007,-4.007,-4.007,-4.0916,-4.2286,-4.2286,-4.3487,-4.5399,-4.6143,-4.6735,-4.7293,-4.8274,-4.8646,-4.868,-4.8917,-4.9001,-4.9001,-4.9001,-4.894,-4.8894,-4.861,-4.8771,-4.9308,-5.0007,-5.0551,-5.1148,-5.2125,-5.2373,-5.2373,-5.2373,-5.2373,-5.2373,-5.2373,-5.2373,-5.2373,-5.2373,-5.2373,-5.207,-5.1152,-5.1036,-5.1036,-5.1036,-5.1036,-5.1371,-5.2274,-5.2373,-5.2021,-5.1102,-5.0735,-5.0068,-4.8838,-4.8474,-4.8046,-4.742,-4.7645,-4.8035,-4.8349,-4.8804,-4.9411,-5.0241,-5.0369,-5.0947,-5.192,-5.2114,-5.2275,-5.2498,-5.2498,-5.2498,0.0,0.0,0.0,0.0,0.0,0.0,0.0,0.0,0.0,0.0,0.0,0.0,0.0,0.0,0.0,0.0,0.0,0.0,0.0,0.0,0.0,0.0,0.0,0.0,0.0,0.0,0.0,0.0,0.0,0.0,-3.8259,-3.9289,-3.982,-3.9694,-3.9935,-4.007,-4.007,-4.007,-4.007,-4.007,-4.007,-4.007,-4.007,-4.007,-4.007,-4.007,-4.007,-4.0899,-4.2252,-4.2286,-4.32,-4.4654,-4.5415,-4.5703,-4.5889,-4.7378,-4.7919,-4.802,-4.8748,-4.9001,-4.9001,-4.9001,-4.8894,-4.8769,-4.8547,-4.8356,-4.8479,-4.9824,-5.0187,-5.0551,-5.2009,-5.2373,-5.2373,-5.2373,-5.2373,-5.2373,-5.2373,-5.2373,-5.2373,-5.2373,-5.2373,-5.2054,-5.1135,-5.0933,-5.0916,-5.09,-5.0916,-5.1267,-5.2224,-5.234,-5.1988,-5.1086,-5.0167,-4.9616,-4.9567,-4.8821,-4.8344,-4.8311,-4.8571,-4.8696,-4.845,-4.8989,-4.9629,-5.0293,-5.0535,-5.0982,-5.1601,-5.1601,-5.1884,-5.2498,-5.248,-5.248,-2.1015,0.0,0.0,0.0,0.0,0.0,0.0,0.0,0.0,0.0,0.0,0.0,0.0,0.0,0.0,0.0,0.0,0.0,0.0,0.0,0.0,0.0,0.0,0.0,0.0,0.0,0.0,0.0,0.0,-3.5974,-3.7547,-3.8561,-3.9166,-3.9329,-3.9661,-3.9918,-4.007,-4.007,-4.007,-4.007,-4.007,-4.007,-4.007,-4.007,-4.007,-4.007,-4.007,-4.0612,-4.1542,-4.2066,-4.32,-4.4654,-4.5415,-4.5703,-4.5889,-4.7378,-4.7919,-4.802,-4.8748,-4.9001,-4.9001,-4.8894,-4.8832,-4.8723,-4.8373,-4.8227,-4.8362,-4.921,-4.9806,-5.0551,-5.2009,-5.2373,-5.2373,-5.2373,-5.2373,-5.2373,-5.2373,-5.2373,-5.2373,-5.2373,-5.2373,-5.1905,-5.0265,-4.9965,-4.9784,-4.9136,-4.9567,-5.0117,-5.0314,-5.0949,-5.1053,-5.0117,-5.0385,-5.0101,-4.8789,-4.9263,-4.9052,-4.7713,-4.8266,-4.8714,-4.905,-4.904,-4.9563,-5.0589,-5.0293,-5.0624,-5.1601,-5.1601,-5.1884,-5.248,-5.19,-5.1937,-2.1678,-2.1613,-2.1523,0.0,0.0,0.0,0.0,-2.3963,0.0,0.0,0.0,0.0,0.0,0.0,0.0,0.0,0.0,0.0,0.0,0.0,0.0,0.0,0.0,0.0,0.0,0.0,0.0,0.0,-3.657,-3.6178,-3.7706,-3.8455,-3.8898,-3.9206,-3.9382,-3.9661,-3.9935,-3.9918,-3.9918,-3.9918,-4.0037,-4.007,-4.007,-4.007,-4.007,-4.007,-4.007,-4.0679,-4.1694,-4.2117,-4.2997,-4.4181,-4.4942,-4.5229,-4.5415,-4.6904,-4.7445,-4.7597,-4.8646,-4.9001,-4.9001,-4.8832,-4.8769,-4.8627,-4.8292,-4.8163,-4.8264,-4.8895,-4.9641,-5.0419,-5.1264,-5.1678,-5.1947,-5.1947,-5.2213,-5.2373,-5.2373,-5.2373,-5.2373,-5.2373,-5.2373,-5.1938,-5.0451,-4.9937,-4.9538,-4.8903,-4.9006,-4.9255,-4.9707,-5.0117,-5.0199,-4.9789,-4.9924,-4.9661,-4.8617,-4.8991,-4.8828,-4.7687,-4.8146,-4.8639,-4.8961,-4.8968,-4.9436,-5.0331,-5.0028,-5.0477,-5.1601,-5.1601,-5.1723,-5.1991,-5.1846,-5.1864,-2.1888,-2.1988,-2.229,-2.336,0.0,0.0,-2.2409,-2.4903,0.0,0.0,0.0,0.0,0.0,0.0,0.0,0.0,0.0,0.0,0.0,0.0,0.0,0.0,0.0,0.0,0.0,0.0,0.0,-3.8397,-3.784,-3.7786,-3.8391,-3.8655,-3.8898,-3.9206,-3.9206,-3.9382,-3.9677,-3.9729,-3.9729,-3.9729,-3.9969,-4.007,-4.007,-4.007,-4.007,-4.007,-4.007,-4.0815,-4.2049,-4.2219,-4.2794,-4.3606,-4.4316,-4.4587,-4.4756,-4.6244,-4.6786,-4.7005,-4.8494,-4.9001,-4.894,-4.8832,-4.8627,-4.842,-4.8227,-4.8115,-4.815,-4.8762,-4.9541,-5.0104,-5.0187,-5.072,-5.1151,-5.1168,-5.1748,-5.2224,-5.2103,-5.2208,-5.2224,-5.2158,-5.2191,-5.1922,-5.0867,-5.0192,-4.9678,-4.937,-4.8862,-4.8784,-4.9444,-4.9506,-4.9522,-4.9595,-4.9137,-4.8843,-4.8693,-4.8382,-4.8149,-4.8066,-4.8373,-4.8547,-4.8547,-4.8877,-4.9273,-4.989,-5.0045,-5.0642,-5.1719,-5.1719,-5.164,-5.1448,-5.2063,-5.2027,0.0,0.0,0.0,0.0,0.0,0.0,-2.0986,-2.1759,0.0,0.0,0.0,0.0,0.0,0.0,0.0,0.0,0.0,0.0,0.0,0.0,0.0,0.0,0.0,0.0,0.0,0.0,0.0,-3.9269,-3.8624,-3.8278,-3.8391,-3.8448,-3.8711,-3.9206,-3.9206,-3.9382,-3.9677,-3.9918,-3.9918,-3.9729,-3.9969,-4.007,-4.007,-4.007,-4.007,-4.007,-4.007,-4.024,-4.0595,-4.1796,-4.3115,-4.4367,-4.4519,-4.4587,-4.4756,-4.6244,-4.6786,-4.7005,-4.8494,-4.8956,-4.8832,-4.8627,-4.842,-4.8227,-4.8049,-4.8001,-4.8001,-4.8183,-4.8761,-4.9458,-5.0055,-5.0303,-5.0419,-5.038,-5.0999,-5.1313,-5.0566,-5.0883,-5.1156,-5.0717,-5.0995,-5.0768,-4.912,-4.883,-4.8449,-4.7586,-4.8017,-4.827,-4.757,-4.8371,-4.8707,-4.7964,-4.8696,-4.8945,-4.82,-4.8925,-4.9184,-4.847,-4.8753,-4.8877,-4.8877,-4.894,-4.9273,-4.989,-5.0804,-5.1619,-5.2322,-5.2322,-5.2297,-5.2245,-5.1756,-5.1792,0.0,0.0,0.0,-2.2968,0.0,0.0,0.0,-2.167,0.0,0.0,0.0,0.0,0.0,0.0,0.0,0.0,0.0,0.0,0.0,0.0,0.0,0.0,0.0,0.0,0.0,0.0,-3.9331,-3.8974,-3.8602,-3.8391,-3.8391,-3.8391,-3.86,-3.9007,-3.9007,-3.9169,-3.9435,-3.9764,-3.9833,-3.9729,-3.9969,-4.007,-4.007,-4.007,-4.007,-4.007,-4.007,-4.029,-4.073,-4.183,-4.2963,-4.4045,-4.4418,-4.4807,-4.528,-4.638,-4.7022,-4.7513,-4.8568,-4.8832,-4.8769,-4.8436,-4.8292,-4.8163,-4.8066,-4.8001,-4.8017,-4.8002,-4.8283,-4.8647,-4.9011,-4.9376,-4.9643,-4.9559,-5.0158,-5.0574,-5.0047,-5.0386,-5.0558,-4.9519,-4.9837,-5.0106,-4.9606,-4.9242,-4.8845,-4.8197,-4.8231,-4.8166,-4.7604,-4.8034,-4.8249,-4.7853,-4.8479,-4.874,-4.8277,-4.8963,-4.9203,-4.8769,-4.894,-4.9001,-4.9001,-4.9273,-4.989,-5.075,-5.1619,-5.2209,-5.2498,-5.2498,-5.2281,-5.19,-5.19,-5.19,0.0,0.0,0.0,0.0,0.0,-2.2207,0.0,0.0,0.0,0.0,0.0,0.0,0.0,0.0,0.0,0.0,0.0,0.0,0.0,0.0,0.0,0.0,0.0,0.0,0.0,0.0,0.0,-3.8408,-3.8391,-3.8391,-3.8391,-3.8391,-3.8488,-3.8805,-3.8843,-3.9007,-3.9206,-3.9592,-3.9729,-3.9729,-3.9969,-4.007,-4.007,-4.007,-4.007,-4.007,-4.007,-4.0426,-4.1052,-4.1931,-4.2642,-4.3284,-4.4215,-4.4942,-4.5585,-4.6312,-4.7056,-4.774,-4.836,-4.8652,-4.8644,-4.8308,-4.8163,-4.8115,-4.8066,-4.8001,-4.8001,-4.8001,-4.8001,-4.8001,-4.8001,-4.8447,-4.8877,-4.8695,-4.9358,-4.9941,-4.9642,-5.0009,-5.0072,-4.8794,-4.9028,-4.9572,-4.9976,-4.9658,-4.9241,-4.9093,-4.8529,-4.8163,-4.8163,-4.8115,-4.8115,-4.8227,-4.8483,-4.861,-4.861,-4.8877,-4.9001,-4.9001,-4.9001,-4.9001,-4.9001,-4.9555,-5.0422,-5.1569,-5.2048,-5.2387,-5.2498,-5.2335,-5.2009,-5.1538,-5.2027,-5.1919,0.0,0.0,0.0,0.0,-2.355,0.0,0.0,0.0,0.0,0.0,0.0,0.0,0.0,0.0,0.0,0.0,0.0,0.0,0.0,0.0,0.0,0.0,0.0,0.0,0.0,0.0,0.0,0.0,-3.8391,-3.8391,-3.8391,-3.8391,-3.8488,-3.8805,-3.9061,-3.9152,-3.9206,-3.9747,-3.9935,-3.9729,-3.9969,-4.007,-4.007,-4.007,-4.007,-4.007,-4.007,-4.0121,-4.0307,-4.1711,-4.2337,-4.2557,-4.4012,-4.4621,-4.479,-4.5551,-4.6161,-4.6733,-4.7507,-4.7994,-4.8227,-4.8227,-4.8115,-4.8001,-4.8001,-4.8001,-4.8001,-4.8001,-4.8001,-4.8001,-4.8001,-4.805,-4.8084,-4.8067,-4.8678,-4.9075,-4.8494,-4.8938,-4.9315,-4.8795,-4.8757,-4.8601,-4.7902,-4.8068,-4.8296,-4.8182,-4.8164,-4.8179,-4.8066,-4.8244,-4.842,-4.8483,-4.8736,-4.894,-4.894,-4.9001,-4.9001,-4.9001,-4.9001,-4.9001,-4.9001,-4.9555,-5.0422,-5.1569,-5.1669,-5.1951,-5.2498,-5.1774,-5.1756,-5.2353,-5.1719,-5.1375,0.0,0.0,0.0,0.0,0.0,0.0,-2.3595,0.0,-2.0542,0.0,0.0,0.0,0.0,0.0,0.0,0.0,0.0,0.0,0.0,0.0,0.0,0.0,0.0,0.0,0.0,0.0,0.0,0.0,0.0,-3.6653,-3.6529,-3.7711,-3.8448,-3.8544,-3.9007,-3.9206,-3.9206,-3.9799,-4.002,-3.9918,-4.0037,-4.007,-4.007,-4.007,-4.007,-4.007,-4.007,-4.007,-4.0189,-4.1677,-4.2233,-4.2348,-4.385,-4.4693,-4.5098,-4.5378,-4.5909,-4.6512,-4.7144,-4.7488,-4.7694,-4.7982,-4.8066,-4.8001,-4.8001,-4.8001,-4.8001,-4.8001,-4.8001,-4.8001,-4.8001,-4.8001,-4.7984,-4.7836,-4.8296,-4.8654,-4.8253,-4.8786,-4.9097,-4.8707,-4.8781,-4.8781,-4.8146,-4.842,-4.8627,-4.8564,-4.8627,-4.8627,-4.8564,-4.869,-4.8815,-4.8815,-4.894,-4.9001,-4.9001,-4.9001,-4.9001,-4.9001,-4.9333,-4.9832,-5.0477,-5.0311,-5.0817,-5.2096,-5.1196,-5.129,-5.2498,-5.1683,-5.1466,-5.1774,-5.0977,-5.0597,-2.542,0.0,0.0,0.0,0.0,0.0,0.0,0.0,0.0,0.0,0.0,0.0,0.0,0.0,0.0,-2.1338,0.0,0.0,0.0,0.0,0.0,0.0,0.0,0.0,0.0,0.0,0.0,0.0,-3.5049,0.0,-3.5237,-3.7226,-3.8391,-3.8504,-3.8952,-3.9259,-3.9329,-3.985,-4.007,-4.007,-4.007,-4.007,-4.007,-4.007,-4.007,-4.007,-4.002,-4.007,-4.0189,-4.1642,-4.2142,-4.224,-4.3665,-4.4572,-4.4984,-4.5001,-4.5479,-4.6102,-4.6429,-4.6733,-4.7101,-4.7817,-4.8001,-4.8001,-4.8001,-4.8001,-4.8001,-4.8001,-4.8001,-4.8001,-4.8001,-4.8049,-4.8016,-4.7917,-4.8208,-4.848,-4.85,-4.8804,-4.9046,-4.8736,-4.8984,-4.9107,-4.8673,-4.8815,-4.9001,-4.9001,-4.9001,-4.9001,-4.9001,-4.9001,-4.9001,-4.9001,-4.9001,-4.9001,-4.9001,-4.9001,-4.9063,-4.9229,-4.9496,-5.0142,-5.1329,-5.0677,-5.0862,-5.2209,-5.0944,-5.0991,-5.2498,-5.1293,-5.0805,-5.0959,-5.0361,-4.9963,0.0,0.0,0.0,-2.5777,0.0,0.0,0.0,0.0,-2.2413,0.0,0.0,0.0,0.0,-2.3548,-2.3688,-2.3535,-2.3761,0.0,0.0,0.0,0.0,0.0,0.0,0.0,0.0,0.0,0.0,0.0,-3.4137,0.0,-3.5185,-3.7116,-3.8375,-3.875,-3.9061,-3.9382,-3.9677,-3.9969,-4.007,-4.007,-4.007,-4.007,-4.007,-4.007,-4.007,-4.007,-3.9885,-3.9901,-4.0189,-4.1392,-4.2013,-4.224,-4.3585,-4.4073,-4.3989,-4.4073,-4.4673,-4.5407,-4.5086,-4.5645,-4.6711,-4.7703,-4.8001,-4.8001,-4.8001,-4.8001,-4.8001,-4.8001,-4.8001,-4.8001,-4.8001,-4.8081,-4.8225,-4.8403,-4.8497,-4.8589,-4.9073,-4.9107,-4.9063,-4.9168,-4.9168,-4.9168,-4.9001,-4.9001,-4.9001,-4.9001,-4.9001,-4.9001,-4.9001,-4.9001,-4.9001,-4.9001,-4.9001,-4.9001,-4.9001,-4.9001,-4.9229,-4.9832,-4.9333,-4.9538,-5.0697,-5.022,-5.046,-5.1619,-5.0981,-5.1258,-5.2498,-5.0307,-4.96,-5.0126,-5.009,-4.9673,0.0,0.0,-3.2901,-3.0447,0.0,0.0,0.0,0.0,0.0,0.0,0.0,0.0,0.0,-2.3681,-2.3852,-2.4173,-2.4256,-2.4265,0.0,0.0,0.0,0.0,0.0,0.0,0.0,0.0,0.0,-2.9892,-3.0717,0.0,0.0,-3.4207,-3.6179,-3.6413,-3.8159,-3.9169,-3.9382,-3.9867,-4.0037,-3.9986,-3.9986,-3.9935,-3.9833,-3.9935,-3.9935,-3.9833,-3.9884,-3.9867,-3.995,-4.1355,-4.1849,-4.1961,-4.343,-4.3881,-4.3687,-4.3881,-4.4055,-4.4324,-4.5197,-4.635,-4.7458,-4.7303,-4.7568,-4.793,-4.7436,-4.7603,-4.8001,-4.8001,-4.8179,-4.8292,-4.8292,-4.8467,-4.856,-4.8656,-4.8719,-4.8844,-4.9046,-4.9107,-4.9168,-4.9168,-4.9107,-4.9063,-4.9001,-4.9001,-4.9001,-4.9001,-4.9001,-4.9001,-4.9001,-4.9001,-4.9001,-4.9001,-4.9001,-4.9001,-4.9001,-4.9001,-4.929,-4.989,-4.9715,-4.9706,-4.996,-4.931,-4.931,-5.0049,-4.9368,-4.9895,-5.1701,-5.0398,-5.0191,-5.085,-4.98,-4.8876,-3.3066,-3.4532,0.0,0.0,-3.2033,0.0,-2.8487,0.0,0.0,0.0,0.0,0.0,0.0,0.0,-2.6029,-2.5591,-2.5415,-2.5156,0.0,-2.5292,0.0,0.0,0.0,0.0,0.0,0.0,-2.7228,-2.7729,-2.8518,-2.8958,0.0,0.0,-3.4993,-3.5289,-3.7621,-3.9007,-3.9206,-3.9696,-3.9935,-3.9849,-3.9849,-3.9781,-3.9677,-3.9747,-3.9764,-3.9677,-3.9696,-3.9713,-3.9795,-4.1159,-4.1683,-4.1866,-4.3257,-4.3704,-4.3628,-4.3763,-4.3853,-4.4175,-4.5404,-4.6291,-4.6974,-4.6822,-4.7087,-4.7448,-4.7165,-4.7597,-4.8179,-4.8308,-4.85,-4.8673,-4.8593,-4.8656,-4.8781,-4.8781,-4.894,-4.9001,-4.9063,-4.9107,-4.9107,-4.9107,-4.9063,-4.9001,-4.9001,-4.9001,-4.9001,-4.9001,-4.9001,-4.9001,-4.9001,-4.9001,-4.9001,-4.9001,-4.8781,-4.8612,-4.8612,-4.8849,-4.929,-4.989,-4.989,-4.9812,-4.9592,-4.9082,-4.9217,-5.0084,-4.8857,-4.949,-5.2154,-5.0543,-5.029,-5.1249,-4.9549,-4.8493]}]]